<?xml version="1.0" encoding="UTF-8" standalone="no" ?>
<gpx xmlns="http://www.topografix.com/GPX/1/1" xmlns:xsi="http://www.w3.org/2001/XMLSchema-instance" xsi:schemaLocation="http://www.topografix.com/GPX/1/1 http://www.topografix.com/GPX/1/1/gpx.xsd" version="1.1" creator="VisuGPX - https://www.visugpx.com">
  <metadata>
    <name>Foncine Le Haut,Les Arboux,Le Pré Audin,Le Bayard</name>
  </metadata>
  <trk>
    <name><![CDATA[Foncine Le Haut,Les Arboux,Le Pré Audin,Le Bayard_1]]></name>
    <trkseg>
      <trkpt lat="46.6669" lon="6.04763">
        <ele>1062.9</ele>
        <time>2020-06-14T11:38:56Z</time>
      </trkpt>
      <trkpt lat="46.66686" lon="6.04758">
        <ele>1059.6</ele>
        <time>2020-06-14T11:39:03Z</time>
      </trkpt>
      <trkpt lat="46.66687" lon="6.04765">
        <ele>1057.9</ele>
        <time>2020-06-14T11:39:26Z</time>
      </trkpt>
      <trkpt lat="46.66688" lon="6.04773">
        <ele>1057.5</ele>
        <time>2020-06-14T11:39:30Z</time>
      </trkpt>
      <trkpt lat="46.66689" lon="6.04785">
        <ele>1056.6</ele>
        <time>2020-06-14T11:39:38Z</time>
      </trkpt>
      <trkpt lat="46.66691" lon="6.04802">
        <ele>1055.5</ele>
        <time>2020-06-14T11:39:54Z</time>
      </trkpt>
      <trkpt lat="46.66693" lon="6.04809">
        <ele>1055.5</ele>
        <time>2020-06-14T11:39:56Z</time>
      </trkpt>
      <trkpt lat="46.66695" lon="6.04817">
        <ele>1055.4</ele>
        <time>2020-06-14T11:39:59Z</time>
      </trkpt>
      <trkpt lat="46.66696" lon="6.04825">
        <ele>1055.2</ele>
        <time>2020-06-14T11:40:03Z</time>
      </trkpt>
      <trkpt lat="46.66695" lon="6.04832">
        <ele>1054.8</ele>
        <time>2020-06-14T11:40:08Z</time>
      </trkpt>
      <trkpt lat="46.66694" lon="6.04839">
        <ele>1054.2</ele>
        <time>2020-06-14T11:40:15Z</time>
      </trkpt>
      <trkpt lat="46.66692" lon="6.04845">
        <ele>1053.6</ele>
        <time>2020-06-14T11:40:22Z</time>
      </trkpt>
      <trkpt lat="46.66692" lon="6.04852">
        <ele>1053.3</ele>
        <time>2020-06-14T11:40:26Z</time>
      </trkpt>
      <trkpt lat="46.66693" lon="6.04859">
        <ele>1053.2</ele>
        <time>2020-06-14T11:40:29Z</time>
      </trkpt>
      <trkpt lat="46.66692" lon="6.04865">
        <ele>1053</ele>
        <time>2020-06-14T11:40:34Z</time>
      </trkpt>
      <trkpt lat="46.66693" lon="6.04873">
        <ele>1053.3</ele>
        <time>2020-06-14T11:40:40Z</time>
      </trkpt>
      <trkpt lat="46.66695" lon="6.04879">
        <ele>1053.8</ele>
        <time>2020-06-14T11:40:46Z</time>
      </trkpt>
      <trkpt lat="46.66698" lon="6.04885">
        <ele>1054.2</ele>
        <time>2020-06-14T11:40:51Z</time>
      </trkpt>
      <trkpt lat="46.667" lon="6.04891">
        <ele>1054.7</ele>
        <time>2020-06-14T11:40:56Z</time>
      </trkpt>
      <trkpt lat="46.66703" lon="6.04897">
        <ele>1055.1</ele>
        <time>2020-06-14T11:41:00Z</time>
      </trkpt>
      <trkpt lat="46.66704" lon="6.04903">
        <ele>1055.5</ele>
        <time>2020-06-14T11:41:06Z</time>
      </trkpt>
      <trkpt lat="46.66708" lon="6.04908">
        <ele>1055.6</ele>
        <time>2020-06-14T11:41:12Z</time>
      </trkpt>
      <trkpt lat="46.66712" lon="6.04912">
        <ele>1055.6</ele>
        <time>2020-06-14T11:41:17Z</time>
      </trkpt>
      <trkpt lat="46.66715" lon="6.04918">
        <ele>1055.5</ele>
        <time>2020-06-14T11:41:22Z</time>
      </trkpt>
      <trkpt lat="46.66717" lon="6.04925">
        <ele>1055.3</ele>
        <time>2020-06-14T11:41:28Z</time>
      </trkpt>
      <trkpt lat="46.66716" lon="6.04932">
        <ele>1054.7</ele>
        <time>2020-06-14T11:41:34Z</time>
      </trkpt>
      <trkpt lat="46.66717" lon="6.04939">
        <ele>1053.8</ele>
        <time>2020-06-14T11:41:39Z</time>
      </trkpt>
      <trkpt lat="46.6672" lon="6.04945">
        <ele>1052.4</ele>
        <time>2020-06-14T11:41:45Z</time>
      </trkpt>
      <trkpt lat="46.66724" lon="6.04951">
        <ele>1051.2</ele>
        <time>2020-06-14T11:41:49Z</time>
      </trkpt>
      <trkpt lat="46.66728" lon="6.04957">
        <ele>1050.4</ele>
        <time>2020-06-14T11:41:55Z</time>
      </trkpt>
      <trkpt lat="46.66732" lon="6.0496">
        <ele>1050.4</ele>
        <time>2020-06-14T11:41:58Z</time>
      </trkpt>
      <trkpt lat="46.66736" lon="6.04964">
        <ele>1050.7</ele>
        <time>2020-06-14T11:42:01Z</time>
      </trkpt>
      <trkpt lat="46.6674" lon="6.04967">
        <ele>1051</ele>
        <time>2020-06-14T11:42:04Z</time>
      </trkpt>
      <trkpt lat="46.66743" lon="6.04972">
        <ele>1051.5</ele>
        <time>2020-06-14T11:42:09Z</time>
      </trkpt>
      <trkpt lat="46.66746" lon="6.04978">
        <ele>1051.5</ele>
        <time>2020-06-14T11:42:14Z</time>
      </trkpt>
      <trkpt lat="46.66746" lon="6.04985">
        <ele>1051.5</ele>
        <time>2020-06-14T11:42:19Z</time>
      </trkpt>
      <trkpt lat="46.66748" lon="6.04992">
        <ele>1051.4</ele>
        <time>2020-06-14T11:42:23Z</time>
      </trkpt>
      <trkpt lat="46.66748" lon="6.04998">
        <ele>1051.4</ele>
        <time>2020-06-14T11:42:27Z</time>
      </trkpt>
      <trkpt lat="46.6675" lon="6.05006">
        <ele>1051.5</ele>
        <time>2020-06-14T11:42:32Z</time>
      </trkpt>
      <trkpt lat="46.66751" lon="6.05013">
        <ele>1051.5</ele>
        <time>2020-06-14T11:42:37Z</time>
      </trkpt>
      <trkpt lat="46.66752" lon="6.05019">
        <ele>1051.5</ele>
        <time>2020-06-14T11:42:40Z</time>
      </trkpt>
      <trkpt lat="46.66754" lon="6.05026">
        <ele>1051.6</ele>
        <time>2020-06-14T11:42:44Z</time>
      </trkpt>
      <trkpt lat="46.66755" lon="6.05033">
        <ele>1051.4</ele>
        <time>2020-06-14T11:42:48Z</time>
      </trkpt>
      <trkpt lat="46.66758" lon="6.05039">
        <ele>1051.4</ele>
        <time>2020-06-14T11:42:53Z</time>
      </trkpt>
      <trkpt lat="46.6676" lon="6.05046">
        <ele>1051.4</ele>
        <time>2020-06-14T11:42:58Z</time>
      </trkpt>
      <trkpt lat="46.6676" lon="6.05053">
        <ele>1051.2</ele>
        <time>2020-06-14T11:43:03Z</time>
      </trkpt>
      <trkpt lat="46.66759" lon="6.0506">
        <ele>1050.6</ele>
        <time>2020-06-14T11:43:08Z</time>
      </trkpt>
      <trkpt lat="46.66762" lon="6.05066">
        <ele>1050.2</ele>
        <time>2020-06-14T11:43:14Z</time>
      </trkpt>
      <trkpt lat="46.66764" lon="6.05072">
        <ele>1050</ele>
        <time>2020-06-14T11:43:21Z</time>
      </trkpt>
      <trkpt lat="46.66765" lon="6.05079">
        <ele>1049.6</ele>
        <time>2020-06-14T11:43:28Z</time>
      </trkpt>
      <trkpt lat="46.66767" lon="6.05085">
        <ele>1050.1</ele>
        <time>2020-06-14T11:43:36Z</time>
      </trkpt>
      <trkpt lat="46.66769" lon="6.05091">
        <ele>1050.4</ele>
        <time>2020-06-14T11:43:39Z</time>
      </trkpt>
      <trkpt lat="46.66771" lon="6.05098">
        <ele>1050.8</ele>
        <time>2020-06-14T11:43:42Z</time>
      </trkpt>
      <trkpt lat="46.66773" lon="6.05106">
        <ele>1051.4</ele>
        <time>2020-06-14T11:43:46Z</time>
      </trkpt>
      <trkpt lat="46.66778" lon="6.05112">
        <ele>1051.8</ele>
        <time>2020-06-14T11:43:49Z</time>
      </trkpt>
      <trkpt lat="46.66781" lon="6.05118">
        <ele>1052.8</ele>
        <time>2020-06-14T11:43:54Z</time>
      </trkpt>
      <trkpt lat="46.66784" lon="6.05123">
        <ele>1053.3</ele>
        <time>2020-06-14T11:43:58Z</time>
      </trkpt>
      <trkpt lat="46.66786" lon="6.05129">
        <ele>1053.7</ele>
        <time>2020-06-14T11:44:03Z</time>
      </trkpt>
      <trkpt lat="46.66789" lon="6.05135">
        <ele>1053.5</ele>
        <time>2020-06-14T11:44:08Z</time>
      </trkpt>
      <trkpt lat="46.66792" lon="6.05141">
        <ele>1052.9</ele>
        <time>2020-06-14T11:44:13Z</time>
      </trkpt>
      <trkpt lat="46.66795" lon="6.05147">
        <ele>1051.9</ele>
        <time>2020-06-14T11:44:22Z</time>
      </trkpt>
      <trkpt lat="46.66799" lon="6.05153">
        <ele>1050.9</ele>
        <time>2020-06-14T11:44:30Z</time>
      </trkpt>
      <trkpt lat="46.66803" lon="6.05158">
        <ele>1050.3</ele>
        <time>2020-06-14T11:44:34Z</time>
      </trkpt>
      <trkpt lat="46.66808" lon="6.05161">
        <ele>1049.6</ele>
        <time>2020-06-14T11:44:38Z</time>
      </trkpt>
      <trkpt lat="46.66812" lon="6.05164">
        <ele>1048.5</ele>
        <time>2020-06-14T11:44:43Z</time>
      </trkpt>
      <trkpt lat="46.66816" lon="6.05167">
        <ele>1047.5</ele>
        <time>2020-06-14T11:44:49Z</time>
      </trkpt>
      <trkpt lat="46.66824" lon="6.05176">
        <ele>1047</ele>
        <time>2020-06-14T11:44:58Z</time>
      </trkpt>
      <trkpt lat="46.66827" lon="6.05181">
        <ele>1047.3</ele>
        <time>2020-06-14T11:45:03Z</time>
      </trkpt>
      <trkpt lat="46.66829" lon="6.05187">
        <ele>1047.7</ele>
        <time>2020-06-14T11:45:10Z</time>
      </trkpt>
      <trkpt lat="46.66833" lon="6.05191">
        <ele>1048</ele>
        <time>2020-06-14T11:45:16Z</time>
      </trkpt>
      <trkpt lat="46.66838" lon="6.05194">
        <ele>1048.2</ele>
        <time>2020-06-14T11:45:21Z</time>
      </trkpt>
      <trkpt lat="46.66842" lon="6.05199">
        <ele>1048.5</ele>
        <time>2020-06-14T11:45:26Z</time>
      </trkpt>
      <trkpt lat="46.66846" lon="6.05204">
        <ele>1048.7</ele>
        <time>2020-06-14T11:45:30Z</time>
      </trkpt>
      <trkpt lat="46.6685" lon="6.05207">
        <ele>1049</ele>
        <time>2020-06-14T11:45:35Z</time>
      </trkpt>
      <trkpt lat="46.66853" lon="6.05213">
        <ele>1049.1</ele>
        <time>2020-06-14T11:45:40Z</time>
      </trkpt>
      <trkpt lat="46.66855" lon="6.05219">
        <ele>1049.2</ele>
        <time>2020-06-14T11:45:44Z</time>
      </trkpt>
      <trkpt lat="46.66858" lon="6.05226">
        <ele>1049.6</ele>
        <time>2020-06-14T11:45:50Z</time>
      </trkpt>
      <trkpt lat="46.6686" lon="6.05231">
        <ele>1050.1</ele>
        <time>2020-06-14T11:45:54Z</time>
      </trkpt>
      <trkpt lat="46.66863" lon="6.05237">
        <ele>1050.7</ele>
        <time>2020-06-14T11:45:58Z</time>
      </trkpt>
      <trkpt lat="46.66866" lon="6.05243">
        <ele>1051</ele>
        <time>2020-06-14T11:46:00Z</time>
      </trkpt>
      <trkpt lat="46.66869" lon="6.0525">
        <ele>1051.5</ele>
        <time>2020-06-14T11:46:03Z</time>
      </trkpt>
      <trkpt lat="46.66872" lon="6.05256">
        <ele>1051.9</ele>
        <time>2020-06-14T11:46:06Z</time>
      </trkpt>
      <trkpt lat="46.66874" lon="6.05264">
        <ele>1052.1</ele>
        <time>2020-06-14T11:46:10Z</time>
      </trkpt>
      <trkpt lat="46.66875" lon="6.0527">
        <ele>1052.1</ele>
        <time>2020-06-14T11:46:15Z</time>
      </trkpt>
      <trkpt lat="46.66874" lon="6.05277">
        <ele>1051.9</ele>
        <time>2020-06-14T11:46:20Z</time>
      </trkpt>
      <trkpt lat="46.66873" lon="6.05284">
        <ele>1051.8</ele>
        <time>2020-06-14T11:46:24Z</time>
      </trkpt>
      <trkpt lat="46.66872" lon="6.05291">
        <ele>1051.8</ele>
        <time>2020-06-14T11:46:30Z</time>
      </trkpt>
      <trkpt lat="46.66872" lon="6.05299">
        <ele>1052.4</ele>
        <time>2020-06-14T11:46:36Z</time>
      </trkpt>
      <trkpt lat="46.66871" lon="6.05305">
        <ele>1053.2</ele>
        <time>2020-06-14T11:46:42Z</time>
      </trkpt>
      <trkpt lat="46.6687" lon="6.05313">
        <ele>1053.6</ele>
        <time>2020-06-14T11:46:46Z</time>
      </trkpt>
      <trkpt lat="46.66869" lon="6.0532">
        <ele>1053.7</ele>
        <time>2020-06-14T11:46:49Z</time>
      </trkpt>
      <trkpt lat="46.66869" lon="6.05327">
        <ele>1053.6</ele>
        <time>2020-06-14T11:46:53Z</time>
      </trkpt>
      <trkpt lat="46.66869" lon="6.05334">
        <ele>1053.1</ele>
        <time>2020-06-14T11:46:58Z</time>
      </trkpt>
      <trkpt lat="46.66869" lon="6.0534">
        <ele>1052.9</ele>
        <time>2020-06-14T11:47:04Z</time>
      </trkpt>
      <trkpt lat="46.66871" lon="6.05348">
        <ele>1053.2</ele>
        <time>2020-06-14T11:47:11Z</time>
      </trkpt>
      <trkpt lat="46.66873" lon="6.05365">
        <ele>1054.4</ele>
        <time>2020-06-14T11:47:26Z</time>
      </trkpt>
      <trkpt lat="46.66875" lon="6.05372">
        <ele>1054.4</ele>
        <time>2020-06-14T11:47:32Z</time>
      </trkpt>
      <trkpt lat="46.66875" lon="6.0538">
        <ele>1054.3</ele>
        <time>2020-06-14T11:47:38Z</time>
      </trkpt>
      <trkpt lat="46.66876" lon="6.05386">
        <ele>1053.8</ele>
        <time>2020-06-14T11:47:44Z</time>
      </trkpt>
      <trkpt lat="46.66879" lon="6.05392">
        <ele>1053.2</ele>
        <time>2020-06-14T11:47:49Z</time>
      </trkpt>
      <trkpt lat="46.66881" lon="6.05398">
        <ele>1052.4</ele>
        <time>2020-06-14T11:47:56Z</time>
      </trkpt>
      <trkpt lat="46.66885" lon="6.05404">
        <ele>1052.1</ele>
        <time>2020-06-14T11:48:00Z</time>
      </trkpt>
      <trkpt lat="46.66889" lon="6.0541">
        <ele>1051.8</ele>
        <time>2020-06-14T11:48:05Z</time>
      </trkpt>
      <trkpt lat="46.66894" lon="6.05415">
        <ele>1051.7</ele>
        <time>2020-06-14T11:48:07Z</time>
      </trkpt>
      <trkpt lat="46.66897" lon="6.05422">
        <ele>1051.6</ele>
        <time>2020-06-14T11:48:09Z</time>
      </trkpt>
      <trkpt lat="46.669" lon="6.05427">
        <ele>1051.2</ele>
        <time>2020-06-14T11:48:12Z</time>
      </trkpt>
      <trkpt lat="46.66902" lon="6.05434">
        <ele>1050.6</ele>
        <time>2020-06-14T11:48:17Z</time>
      </trkpt>
      <trkpt lat="46.66903" lon="6.05441">
        <ele>1049.8</ele>
        <time>2020-06-14T11:48:23Z</time>
      </trkpt>
      <trkpt lat="46.66905" lon="6.05447">
        <ele>1049.5</ele>
        <time>2020-06-14T11:48:26Z</time>
      </trkpt>
      <trkpt lat="46.66908" lon="6.05453">
        <ele>1049</ele>
        <time>2020-06-14T11:48:30Z</time>
      </trkpt>
      <trkpt lat="46.6691" lon="6.05466">
        <ele>1046.9</ele>
        <time>2020-06-14T11:48:43Z</time>
      </trkpt>
      <trkpt lat="46.66909" lon="6.05473">
        <ele>1046.3</ele>
        <time>2020-06-14T11:48:48Z</time>
      </trkpt>
      <trkpt lat="46.66917" lon="6.05497">
        <ele>1045.8</ele>
        <time>2020-06-14T11:49:01Z</time>
      </trkpt>
      <trkpt lat="46.66922" lon="6.05501">
        <ele>1045.7</ele>
        <time>2020-06-14T11:49:05Z</time>
      </trkpt>
      <trkpt lat="46.66925" lon="6.05506">
        <ele>1045.6</ele>
        <time>2020-06-14T11:49:09Z</time>
      </trkpt>
      <trkpt lat="46.66924" lon="6.05513">
        <ele>1045.6</ele>
        <time>2020-06-14T11:49:15Z</time>
      </trkpt>
      <trkpt lat="46.66924" lon="6.05521">
        <ele>1045.4</ele>
        <time>2020-06-14T11:49:21Z</time>
      </trkpt>
      <trkpt lat="46.66925" lon="6.05528">
        <ele>1045.4</ele>
        <time>2020-06-14T11:49:27Z</time>
      </trkpt>
      <trkpt lat="46.66927" lon="6.05536">
        <ele>1045.2</ele>
        <time>2020-06-14T11:49:32Z</time>
      </trkpt>
      <trkpt lat="46.66928" lon="6.05543">
        <ele>1045.1</ele>
        <time>2020-06-14T11:49:35Z</time>
      </trkpt>
      <trkpt lat="46.66931" lon="6.05549">
        <ele>1045</ele>
        <time>2020-06-14T11:49:38Z</time>
      </trkpt>
      <trkpt lat="46.66933" lon="6.05555">
        <ele>1044.8</ele>
        <time>2020-06-14T11:49:43Z</time>
      </trkpt>
      <trkpt lat="46.66934" lon="6.05564">
        <ele>1044.6</ele>
        <time>2020-06-14T11:49:50Z</time>
      </trkpt>
      <trkpt lat="46.66935" lon="6.05571">
        <ele>1044.3</ele>
        <time>2020-06-14T11:49:54Z</time>
      </trkpt>
      <trkpt lat="46.66937" lon="6.05578">
        <ele>1044.1</ele>
        <time>2020-06-14T11:49:57Z</time>
      </trkpt>
      <trkpt lat="46.66939" lon="6.05586">
        <ele>1044</ele>
        <time>2020-06-14T11:50:00Z</time>
      </trkpt>
      <trkpt lat="46.6694" lon="6.05593">
        <ele>1043.9</ele>
        <time>2020-06-14T11:50:04Z</time>
      </trkpt>
      <trkpt lat="46.66941" lon="6.056">
        <ele>1044.1</ele>
        <time>2020-06-14T11:50:09Z</time>
      </trkpt>
      <trkpt lat="46.66941" lon="6.05608">
        <ele>1044.7</ele>
        <time>2020-06-14T11:50:16Z</time>
      </trkpt>
      <trkpt lat="46.66943" lon="6.05614">
        <ele>1045.4</ele>
        <time>2020-06-14T11:50:23Z</time>
      </trkpt>
      <trkpt lat="46.66945" lon="6.0562">
        <ele>1046.5</ele>
        <time>2020-06-14T11:50:30Z</time>
      </trkpt>
      <trkpt lat="46.66945" lon="6.0563">
        <ele>1047.7</ele>
        <time>2020-06-14T11:50:37Z</time>
      </trkpt>
      <trkpt lat="46.66947" lon="6.05637">
        <ele>1048.1</ele>
        <time>2020-06-14T11:50:39Z</time>
      </trkpt>
      <trkpt lat="46.66949" lon="6.05644">
        <ele>1048.9</ele>
        <time>2020-06-14T11:50:43Z</time>
      </trkpt>
      <trkpt lat="46.66952" lon="6.0565">
        <ele>1049.6</ele>
        <time>2020-06-14T11:50:46Z</time>
      </trkpt>
      <trkpt lat="46.66955" lon="6.05656">
        <ele>1050.5</ele>
        <time>2020-06-14T11:50:51Z</time>
      </trkpt>
      <trkpt lat="46.66958" lon="6.05661">
        <ele>1051.4</ele>
        <time>2020-06-14T11:50:57Z</time>
      </trkpt>
      <trkpt lat="46.6696" lon="6.05669">
        <ele>1052.2</ele>
        <time>2020-06-14T11:51:05Z</time>
      </trkpt>
      <trkpt lat="46.66959" lon="6.05676">
        <ele>1052.3</ele>
        <time>2020-06-14T11:51:10Z</time>
      </trkpt>
      <trkpt lat="46.6696" lon="6.05684">
        <ele>1052.4</ele>
        <time>2020-06-14T11:51:15Z</time>
      </trkpt>
      <trkpt lat="46.66961" lon="6.05691">
        <ele>1052.4</ele>
        <time>2020-06-14T11:51:20Z</time>
      </trkpt>
      <trkpt lat="46.66964" lon="6.05697">
        <ele>1052.4</ele>
        <time>2020-06-14T11:51:24Z</time>
      </trkpt>
      <trkpt lat="46.66966" lon="6.05703">
        <ele>1052.4</ele>
        <time>2020-06-14T11:51:28Z</time>
      </trkpt>
      <trkpt lat="46.66967" lon="6.05711">
        <ele>1052.4</ele>
        <time>2020-06-14T11:51:31Z</time>
      </trkpt>
      <trkpt lat="46.66969" lon="6.05717">
        <ele>1052.2</ele>
        <time>2020-06-14T11:51:35Z</time>
      </trkpt>
      <trkpt lat="46.66972" lon="6.05723">
        <ele>1052</ele>
        <time>2020-06-14T11:51:39Z</time>
      </trkpt>
      <trkpt lat="46.66974" lon="6.05729">
        <ele>1051.9</ele>
        <time>2020-06-14T11:51:43Z</time>
      </trkpt>
      <trkpt lat="46.66977" lon="6.05734">
        <ele>1051.9</ele>
        <time>2020-06-14T11:51:48Z</time>
      </trkpt>
      <trkpt lat="46.6698" lon="6.05741">
        <ele>1051.7</ele>
        <time>2020-06-14T11:51:54Z</time>
      </trkpt>
      <trkpt lat="46.66984" lon="6.05746">
        <ele>1051.5</ele>
        <time>2020-06-14T11:51:58Z</time>
      </trkpt>
      <trkpt lat="46.66988" lon="6.05751">
        <ele>1051.3</ele>
        <time>2020-06-14T11:52:03Z</time>
      </trkpt>
      <trkpt lat="46.66997" lon="6.05761">
        <ele>1050.4</ele>
        <time>2020-06-14T11:52:16Z</time>
      </trkpt>
      <trkpt lat="46.67" lon="6.05767">
        <ele>1050.1</ele>
        <time>2020-06-14T11:52:22Z</time>
      </trkpt>
      <trkpt lat="46.67004" lon="6.05774">
        <ele>1049.9</ele>
        <time>2020-06-14T11:52:24Z</time>
      </trkpt>
      <trkpt lat="46.6701" lon="6.05781">
        <ele>1049.6</ele>
        <time>2020-06-14T11:52:26Z</time>
      </trkpt>
      <trkpt lat="46.67014" lon="6.05786">
        <ele>1049.3</ele>
        <time>2020-06-14T11:52:29Z</time>
      </trkpt>
      <trkpt lat="46.67015" lon="6.05793">
        <ele>1048.6</ele>
        <time>2020-06-14T11:52:35Z</time>
      </trkpt>
      <trkpt lat="46.67015" lon="6.05799">
        <ele>1047.6</ele>
        <time>2020-06-14T11:52:41Z</time>
      </trkpt>
      <trkpt lat="46.67014" lon="6.05807">
        <ele>1046.8</ele>
        <time>2020-06-14T11:52:46Z</time>
      </trkpt>
      <trkpt lat="46.67015" lon="6.05815">
        <ele>1046.2</ele>
        <time>2020-06-14T11:52:51Z</time>
      </trkpt>
      <trkpt lat="46.67014" lon="6.05822">
        <ele>1045.6</ele>
        <time>2020-06-14T11:52:56Z</time>
      </trkpt>
      <trkpt lat="46.67015" lon="6.05829">
        <ele>1045</ele>
        <time>2020-06-14T11:53:01Z</time>
      </trkpt>
      <trkpt lat="46.67017" lon="6.05837">
        <ele>1044.5</ele>
        <time>2020-06-14T11:53:06Z</time>
      </trkpt>
      <trkpt lat="46.67018" lon="6.05844">
        <ele>1043.9</ele>
        <time>2020-06-14T11:53:11Z</time>
      </trkpt>
      <trkpt lat="46.6702" lon="6.05851">
        <ele>1043.6</ele>
        <time>2020-06-14T11:53:16Z</time>
      </trkpt>
      <trkpt lat="46.67023" lon="6.05857">
        <ele>1043.5</ele>
        <time>2020-06-14T11:53:20Z</time>
      </trkpt>
      <trkpt lat="46.6703" lon="6.05876">
        <ele>1042.6</ele>
        <time>2020-06-14T11:53:34Z</time>
      </trkpt>
      <trkpt lat="46.67031" lon="6.05883">
        <ele>1042.4</ele>
        <time>2020-06-14T11:53:40Z</time>
      </trkpt>
      <trkpt lat="46.67034" lon="6.0589">
        <ele>1042.4</ele>
        <time>2020-06-14T11:53:44Z</time>
      </trkpt>
      <trkpt lat="46.67036" lon="6.05896">
        <ele>1042.2</ele>
        <time>2020-06-14T11:53:48Z</time>
      </trkpt>
      <trkpt lat="46.67037" lon="6.05903">
        <ele>1042.1</ele>
        <time>2020-06-14T11:53:51Z</time>
      </trkpt>
      <trkpt lat="46.67039" lon="6.05909">
        <ele>1042</ele>
        <time>2020-06-14T11:53:55Z</time>
      </trkpt>
      <trkpt lat="46.67044" lon="6.05912">
        <ele>1041.7</ele>
        <time>2020-06-14T11:54:00Z</time>
      </trkpt>
      <trkpt lat="46.67046" lon="6.05917">
        <ele>1041.5</ele>
        <time>2020-06-14T11:54:04Z</time>
      </trkpt>
      <trkpt lat="46.67049" lon="6.05924">
        <ele>1041.3</ele>
        <time>2020-06-14T11:54:09Z</time>
      </trkpt>
      <trkpt lat="46.67052" lon="6.05931">
        <ele>1041.1</ele>
        <time>2020-06-14T11:54:13Z</time>
      </trkpt>
      <trkpt lat="46.67055" lon="6.05937">
        <ele>1040.9</ele>
        <time>2020-06-14T11:54:17Z</time>
      </trkpt>
      <trkpt lat="46.67057" lon="6.05944">
        <ele>1040.5</ele>
        <time>2020-06-14T11:54:21Z</time>
      </trkpt>
      <trkpt lat="46.6706" lon="6.05961">
        <ele>1040.4</ele>
        <time>2020-06-14T11:54:34Z</time>
      </trkpt>
      <trkpt lat="46.67057" lon="6.05966">
        <ele>1042.3</ele>
        <time>2020-06-14T11:54:50Z</time>
      </trkpt>
      <trkpt lat="46.67059" lon="6.05973">
        <ele>1043.2</ele>
        <time>2020-06-14T11:54:59Z</time>
      </trkpt>
      <trkpt lat="46.67063" lon="6.05979">
        <ele>1043.7</ele>
        <time>2020-06-14T11:55:03Z</time>
      </trkpt>
      <trkpt lat="46.67066" lon="6.05984">
        <ele>1044</ele>
        <time>2020-06-14T11:55:08Z</time>
      </trkpt>
      <trkpt lat="46.67071" lon="6.05988">
        <ele>1044.1</ele>
        <time>2020-06-14T11:55:14Z</time>
      </trkpt>
      <trkpt lat="46.67075" lon="6.05991">
        <ele>1044</ele>
        <time>2020-06-14T11:55:19Z</time>
      </trkpt>
      <trkpt lat="46.6708" lon="6.05993">
        <ele>1044.2</ele>
        <time>2020-06-14T11:55:27Z</time>
      </trkpt>
      <trkpt lat="46.67084" lon="6.05994">
        <ele>1044.2</ele>
        <time>2020-06-14T11:55:32Z</time>
      </trkpt>
      <trkpt lat="46.67097" lon="6.06001">
        <ele>1043.9</ele>
        <time>2020-06-14T11:55:51Z</time>
      </trkpt>
      <trkpt lat="46.67102" lon="6.06">
        <ele>1044.2</ele>
        <time>2020-06-14T11:55:56Z</time>
      </trkpt>
      <trkpt lat="46.67114" lon="6.06001">
        <ele>1045.6</ele>
        <time>2020-06-14T11:56:10Z</time>
      </trkpt>
      <trkpt lat="46.6712" lon="6.06005">
        <ele>1046.1</ele>
        <time>2020-06-14T11:56:13Z</time>
      </trkpt>
      <trkpt lat="46.67125" lon="6.06005">
        <ele>1046.5</ele>
        <time>2020-06-14T11:56:15Z</time>
      </trkpt>
      <trkpt lat="46.67131" lon="6.06008">
        <ele>1047.2</ele>
        <time>2020-06-14T11:56:18Z</time>
      </trkpt>
      <trkpt lat="46.67138" lon="6.0601">
        <ele>1047.8</ele>
        <time>2020-06-14T11:56:20Z</time>
      </trkpt>
      <trkpt lat="46.67143" lon="6.06012">
        <ele>1048.6</ele>
        <time>2020-06-14T11:56:23Z</time>
      </trkpt>
      <trkpt lat="46.67151" lon="6.06017">
        <ele>1053.2</ele>
        <time>2020-06-14T11:56:41Z</time>
      </trkpt>
      <trkpt lat="46.67156" lon="6.06018">
        <ele>1054.3</ele>
        <time>2020-06-14T11:56:47Z</time>
      </trkpt>
      <trkpt lat="46.6716" lon="6.06019">
        <ele>1055.4</ele>
        <time>2020-06-14T11:56:54Z</time>
      </trkpt>
      <trkpt lat="46.67168" lon="6.06017">
        <ele>1055.7</ele>
        <time>2020-06-14T11:56:57Z</time>
      </trkpt>
      <trkpt lat="46.67174" lon="6.06017">
        <ele>1056.1</ele>
        <time>2020-06-14T11:57:01Z</time>
      </trkpt>
      <trkpt lat="46.67179" lon="6.06017">
        <ele>1056.3</ele>
        <time>2020-06-14T11:57:04Z</time>
      </trkpt>
      <trkpt lat="46.67192" lon="6.06018">
        <ele>1057.1</ele>
        <time>2020-06-14T11:57:14Z</time>
      </trkpt>
      <trkpt lat="46.67202" lon="6.06021">
        <ele>1057.8</ele>
        <time>2020-06-14T11:57:27Z</time>
      </trkpt>
      <trkpt lat="46.67207" lon="6.06021">
        <ele>1058.1</ele>
        <time>2020-06-14T11:57:32Z</time>
      </trkpt>
      <trkpt lat="46.67213" lon="6.06023">
        <ele>1059.9</ele>
        <time>2020-06-14T11:57:41Z</time>
      </trkpt>
      <trkpt lat="46.67217" lon="6.06026">
        <ele>1061.8</ele>
        <time>2020-06-14T11:57:47Z</time>
      </trkpt>
      <trkpt lat="46.67222" lon="6.06026">
        <ele>1063.2</ele>
        <time>2020-06-14T11:57:52Z</time>
      </trkpt>
      <trkpt lat="46.67227" lon="6.06025">
        <ele>1064.3</ele>
        <time>2020-06-14T11:57:58Z</time>
      </trkpt>
      <trkpt lat="46.67232" lon="6.06026">
        <ele>1065</ele>
        <time>2020-06-14T11:58:03Z</time>
      </trkpt>
      <trkpt lat="46.67237" lon="6.06026">
        <ele>1066.2</ele>
        <time>2020-06-14T11:58:09Z</time>
      </trkpt>
      <trkpt lat="46.67249" lon="6.0603">
        <ele>1068.1</ele>
        <time>2020-06-14T11:58:23Z</time>
      </trkpt>
      <trkpt lat="46.67267" lon="6.06039">
        <ele>1068.1</ele>
        <time>2020-06-14T11:58:36Z</time>
      </trkpt>
      <trkpt lat="46.67269" lon="6.06045">
        <ele>1067.8</ele>
        <time>2020-06-14T11:58:45Z</time>
      </trkpt>
      <trkpt lat="46.67274" lon="6.06048">
        <ele>1067.8</ele>
        <time>2020-06-14T11:58:49Z</time>
      </trkpt>
      <trkpt lat="46.67278" lon="6.06052">
        <ele>1067.8</ele>
        <time>2020-06-14T11:58:53Z</time>
      </trkpt>
      <trkpt lat="46.67295" lon="6.06063">
        <ele>1066.2</ele>
        <time>2020-06-14T11:59:11Z</time>
      </trkpt>
      <trkpt lat="46.673" lon="6.06059">
        <ele>1066</ele>
        <time>2020-06-14T11:59:13Z</time>
      </trkpt>
      <trkpt lat="46.67304" lon="6.06056">
        <ele>1065.7</ele>
        <time>2020-06-14T11:59:15Z</time>
      </trkpt>
      <trkpt lat="46.67302" lon="6.06081">
        <ele>1066.6</ele>
        <time>2020-06-14T12:00:20Z</time>
      </trkpt>
      <trkpt lat="46.67304" lon="6.06087">
        <ele>1066.6</ele>
        <time>2020-06-14T12:00:25Z</time>
      </trkpt>
      <trkpt lat="46.67307" lon="6.06092">
        <ele>1065.7</ele>
        <time>2020-06-14T12:00:31Z</time>
      </trkpt>
      <trkpt lat="46.67311" lon="6.06096">
        <ele>1065.1</ele>
        <time>2020-06-14T12:00:34Z</time>
      </trkpt>
      <trkpt lat="46.67313" lon="6.06102">
        <ele>1064.1</ele>
        <time>2020-06-14T12:00:43Z</time>
      </trkpt>
      <trkpt lat="46.67314" lon="6.06113">
        <ele>1069.3</ele>
        <time>2020-06-14T12:01:50Z</time>
      </trkpt>
      <trkpt lat="46.67322" lon="6.06142">
        <ele>1070.9</ele>
        <time>2020-06-14T12:02:11Z</time>
      </trkpt>
      <trkpt lat="46.67324" lon="6.06148">
        <ele>1071.1</ele>
        <time>2020-06-14T12:02:14Z</time>
      </trkpt>
      <trkpt lat="46.67327" lon="6.06155">
        <ele>1071.6</ele>
        <time>2020-06-14T12:02:18Z</time>
      </trkpt>
      <trkpt lat="46.67329" lon="6.06161">
        <ele>1072.1</ele>
        <time>2020-06-14T12:02:21Z</time>
      </trkpt>
      <trkpt lat="46.67331" lon="6.06168">
        <ele>1072.9</ele>
        <time>2020-06-14T12:02:26Z</time>
      </trkpt>
      <trkpt lat="46.67332" lon="6.06182">
        <ele>1074.2</ele>
        <time>2020-06-14T12:02:45Z</time>
      </trkpt>
      <trkpt lat="46.67329" lon="6.06186">
        <ele>1075.2</ele>
        <time>2020-06-14T12:02:56Z</time>
      </trkpt>
      <trkpt lat="46.67326" lon="6.06192">
        <ele>1075</ele>
        <time>2020-06-14T12:03:01Z</time>
      </trkpt>
      <trkpt lat="46.67324" lon="6.06198">
        <ele>1074.5</ele>
        <time>2020-06-14T12:03:06Z</time>
      </trkpt>
      <trkpt lat="46.67323" lon="6.06205">
        <ele>1074.1</ele>
        <time>2020-06-14T12:03:11Z</time>
      </trkpt>
      <trkpt lat="46.67322" lon="6.06212">
        <ele>1074</ele>
        <time>2020-06-14T12:03:15Z</time>
      </trkpt>
      <trkpt lat="46.67321" lon="6.0622">
        <ele>1073.8</ele>
        <time>2020-06-14T12:03:18Z</time>
      </trkpt>
      <trkpt lat="46.67329" lon="6.0626">
        <ele>1071.6</ele>
        <time>2020-06-14T12:03:51Z</time>
      </trkpt>
      <trkpt lat="46.67333" lon="6.06263">
        <ele>1071.5</ele>
        <time>2020-06-14T12:03:53Z</time>
      </trkpt>
      <trkpt lat="46.67336" lon="6.0627">
        <ele>1071</ele>
        <time>2020-06-14T12:03:58Z</time>
      </trkpt>
      <trkpt lat="46.67343" lon="6.06286">
        <ele>1069.9</ele>
        <time>2020-06-14T12:04:11Z</time>
      </trkpt>
      <trkpt lat="46.67346" lon="6.06292">
        <ele>1070.9</ele>
        <time>2020-06-14T12:04:19Z</time>
      </trkpt>
      <trkpt lat="46.6735" lon="6.06298">
        <ele>1069.8</ele>
        <time>2020-06-14T12:04:42Z</time>
      </trkpt>
      <trkpt lat="46.67353" lon="6.06303">
        <ele>1068.6</ele>
        <time>2020-06-14T12:04:47Z</time>
      </trkpt>
      <trkpt lat="46.67357" lon="6.06307">
        <ele>1068.1</ele>
        <time>2020-06-14T12:04:53Z</time>
      </trkpt>
      <trkpt lat="46.67361" lon="6.06311">
        <ele>1068.4</ele>
        <time>2020-06-14T12:05:02Z</time>
      </trkpt>
      <trkpt lat="46.67366" lon="6.06314">
        <ele>1069</ele>
        <time>2020-06-14T12:05:09Z</time>
      </trkpt>
      <trkpt lat="46.6737" lon="6.06317">
        <ele>1069.4</ele>
        <time>2020-06-14T12:05:12Z</time>
      </trkpt>
      <trkpt lat="46.67374" lon="6.06323">
        <ele>1070.9</ele>
        <time>2020-06-14T12:05:18Z</time>
      </trkpt>
      <trkpt lat="46.67377" lon="6.06329">
        <ele>1072</ele>
        <time>2020-06-14T12:05:24Z</time>
      </trkpt>
      <trkpt lat="46.6738" lon="6.06336">
        <ele>1072.9</ele>
        <time>2020-06-14T12:05:31Z</time>
      </trkpt>
      <trkpt lat="46.67383" lon="6.06341">
        <ele>1073.3</ele>
        <time>2020-06-14T12:05:36Z</time>
      </trkpt>
      <trkpt lat="46.67386" lon="6.06347">
        <ele>1073.7</ele>
        <time>2020-06-14T12:05:43Z</time>
      </trkpt>
      <trkpt lat="46.67389" lon="6.06352">
        <ele>1073.6</ele>
        <time>2020-06-14T12:05:53Z</time>
      </trkpt>
      <trkpt lat="46.67392" lon="6.06356">
        <ele>1074.3</ele>
        <time>2020-06-14T12:06:05Z</time>
      </trkpt>
      <trkpt lat="46.67396" lon="6.0636">
        <ele>1075.1</ele>
        <time>2020-06-14T12:06:16Z</time>
      </trkpt>
      <trkpt lat="46.67399" lon="6.06367">
        <ele>1075.5</ele>
        <time>2020-06-14T12:06:20Z</time>
      </trkpt>
      <trkpt lat="46.67402" lon="6.06372">
        <ele>1076.6</ele>
        <time>2020-06-14T12:06:31Z</time>
      </trkpt>
      <trkpt lat="46.67405" lon="6.06382">
        <ele>1078.3</ele>
        <time>2020-06-14T12:06:44Z</time>
      </trkpt>
      <trkpt lat="46.67409" lon="6.06386">
        <ele>1078.5</ele>
        <time>2020-06-14T12:06:47Z</time>
      </trkpt>
      <trkpt lat="46.67414" lon="6.0639">
        <ele>1078.7</ele>
        <time>2020-06-14T12:06:49Z</time>
      </trkpt>
      <trkpt lat="46.67417" lon="6.06395">
        <ele>1079</ele>
        <time>2020-06-14T12:06:53Z</time>
      </trkpt>
      <trkpt lat="46.6742" lon="6.06401">
        <ele>1080.7</ele>
        <time>2020-06-14T12:07:05Z</time>
      </trkpt>
      <trkpt lat="46.67424" lon="6.06407">
        <ele>1081.5</ele>
        <time>2020-06-14T12:07:09Z</time>
      </trkpt>
      <trkpt lat="46.67428" lon="6.06411">
        <ele>1082.3</ele>
        <time>2020-06-14T12:07:14Z</time>
      </trkpt>
      <trkpt lat="46.67431" lon="6.06416">
        <ele>1083.6</ele>
        <time>2020-06-14T12:07:23Z</time>
      </trkpt>
      <trkpt lat="46.67432" lon="6.06423">
        <ele>1084.1</ele>
        <time>2020-06-14T12:07:29Z</time>
      </trkpt>
      <trkpt lat="46.67444" lon="6.06446">
        <ele>1084.2</ele>
        <time>2020-06-14T12:07:53Z</time>
      </trkpt>
      <trkpt lat="46.67445" lon="6.06454">
        <ele>1084.8</ele>
        <time>2020-06-14T12:07:59Z</time>
      </trkpt>
      <trkpt lat="46.67448" lon="6.06461">
        <ele>1085.4</ele>
        <time>2020-06-14T12:08:03Z</time>
      </trkpt>
      <trkpt lat="46.6745" lon="6.06466">
        <ele>1086.2</ele>
        <time>2020-06-14T12:08:09Z</time>
      </trkpt>
      <trkpt lat="46.67454" lon="6.0647">
        <ele>1087.1</ele>
        <time>2020-06-14T12:08:21Z</time>
      </trkpt>
      <trkpt lat="46.67453" lon="6.06471">
        <ele>1090.8</ele>
        <time>2020-06-14T12:09:26Z</time>
      </trkpt>
      <trkpt lat="46.67453" lon="6.06477">
        <ele>1091.1</ele>
        <time>2020-06-14T12:09:33Z</time>
      </trkpt>
      <trkpt lat="46.67455" lon="6.06484">
        <ele>1091.7</ele>
        <time>2020-06-14T12:09:40Z</time>
      </trkpt>
      <trkpt lat="46.67458" lon="6.0649">
        <ele>1091.8</ele>
        <time>2020-06-14T12:09:44Z</time>
      </trkpt>
      <trkpt lat="46.67461" lon="6.06496">
        <ele>1091.9</ele>
        <time>2020-06-14T12:09:48Z</time>
      </trkpt>
      <trkpt lat="46.67465" lon="6.06503">
        <ele>1092</ele>
        <time>2020-06-14T12:09:51Z</time>
      </trkpt>
      <trkpt lat="46.67468" lon="6.06509">
        <ele>1092</ele>
        <time>2020-06-14T12:09:55Z</time>
      </trkpt>
      <trkpt lat="46.67471" lon="6.06517">
        <ele>1091.9</ele>
        <time>2020-06-14T12:10:01Z</time>
      </trkpt>
      <trkpt lat="46.67473" lon="6.06523">
        <ele>1091.5</ele>
        <time>2020-06-14T12:10:06Z</time>
      </trkpt>
      <trkpt lat="46.67472" lon="6.0653">
        <ele>1091.1</ele>
        <time>2020-06-14T12:10:10Z</time>
      </trkpt>
      <trkpt lat="46.67474" lon="6.06537">
        <ele>1090.3</ele>
        <time>2020-06-14T12:10:19Z</time>
      </trkpt>
      <trkpt lat="46.67477" lon="6.06542">
        <ele>1090.2</ele>
        <time>2020-06-14T12:10:26Z</time>
      </trkpt>
      <trkpt lat="46.6748" lon="6.06547">
        <ele>1090.3</ele>
        <time>2020-06-14T12:10:31Z</time>
      </trkpt>
      <trkpt lat="46.67484" lon="6.0655">
        <ele>1090.3</ele>
        <time>2020-06-14T12:10:35Z</time>
      </trkpt>
      <trkpt lat="46.67487" lon="6.06557">
        <ele>1090.6</ele>
        <time>2020-06-14T12:10:44Z</time>
      </trkpt>
      <trkpt lat="46.67491" lon="6.06562">
        <ele>1091</ele>
        <time>2020-06-14T12:10:50Z</time>
      </trkpt>
      <trkpt lat="46.67495" lon="6.06573">
        <ele>1093.2</ele>
        <time>2020-06-14T12:11:08Z</time>
      </trkpt>
      <trkpt lat="46.67498" lon="6.06579">
        <ele>1094.1</ele>
        <time>2020-06-14T12:11:12Z</time>
      </trkpt>
      <trkpt lat="46.67503" lon="6.06583">
        <ele>1094.6</ele>
        <time>2020-06-14T12:11:15Z</time>
      </trkpt>
      <trkpt lat="46.67508" lon="6.06586">
        <ele>1095.3</ele>
        <time>2020-06-14T12:11:19Z</time>
      </trkpt>
      <trkpt lat="46.67513" lon="6.06589">
        <ele>1096.2</ele>
        <time>2020-06-14T12:11:25Z</time>
      </trkpt>
      <trkpt lat="46.67516" lon="6.06594">
        <ele>1096.8</ele>
        <time>2020-06-14T12:11:31Z</time>
      </trkpt>
      <trkpt lat="46.67521" lon="6.06596">
        <ele>1097.5</ele>
        <time>2020-06-14T12:11:38Z</time>
      </trkpt>
      <trkpt lat="46.67526" lon="6.06599">
        <ele>1098.3</ele>
        <time>2020-06-14T12:11:47Z</time>
      </trkpt>
      <trkpt lat="46.67531" lon="6.06601">
        <ele>1098.7</ele>
        <time>2020-06-14T12:11:51Z</time>
      </trkpt>
      <trkpt lat="46.67536" lon="6.06604">
        <ele>1099.2</ele>
        <time>2020-06-14T12:11:55Z</time>
      </trkpt>
      <trkpt lat="46.67541" lon="6.06606">
        <ele>1100.1</ele>
        <time>2020-06-14T12:12:04Z</time>
      </trkpt>
      <trkpt lat="46.67546" lon="6.06607">
        <ele>1100.5</ele>
        <time>2020-06-14T12:12:08Z</time>
      </trkpt>
      <trkpt lat="46.67551" lon="6.06609">
        <ele>1100.9</ele>
        <time>2020-06-14T12:12:14Z</time>
      </trkpt>
      <trkpt lat="46.67556" lon="6.06612">
        <ele>1101.3</ele>
        <time>2020-06-14T12:12:20Z</time>
      </trkpt>
      <trkpt lat="46.67562" lon="6.06614">
        <ele>1102.5</ele>
        <time>2020-06-14T12:12:28Z</time>
      </trkpt>
      <trkpt lat="46.67566" lon="6.06617">
        <ele>1103.3</ele>
        <time>2020-06-14T12:12:33Z</time>
      </trkpt>
      <trkpt lat="46.67569" lon="6.06623">
        <ele>1104.4</ele>
        <time>2020-06-14T12:12:39Z</time>
      </trkpt>
      <trkpt lat="46.67572" lon="6.06629">
        <ele>1106.1</ele>
        <time>2020-06-14T12:12:47Z</time>
      </trkpt>
      <trkpt lat="46.67577" lon="6.06633">
        <ele>1107.1</ele>
        <time>2020-06-14T12:12:53Z</time>
      </trkpt>
      <trkpt lat="46.67581" lon="6.06637">
        <ele>1107.8</ele>
        <time>2020-06-14T12:13:00Z</time>
      </trkpt>
      <trkpt lat="46.67585" lon="6.0664">
        <ele>1108.2</ele>
        <time>2020-06-14T12:13:06Z</time>
      </trkpt>
      <trkpt lat="46.67589" lon="6.06644">
        <ele>1108.9</ele>
        <time>2020-06-14T12:13:12Z</time>
      </trkpt>
      <trkpt lat="46.67593" lon="6.06648">
        <ele>1109.8</ele>
        <time>2020-06-14T12:13:19Z</time>
      </trkpt>
      <trkpt lat="46.67616" lon="6.06662">
        <ele>1118.1</ele>
        <time>2020-06-14T12:15:20Z</time>
      </trkpt>
      <trkpt lat="46.67621" lon="6.06663">
        <ele>1118.8</ele>
        <time>2020-06-14T12:15:24Z</time>
      </trkpt>
      <trkpt lat="46.67626" lon="6.06664">
        <ele>1119.7</ele>
        <time>2020-06-14T12:15:29Z</time>
      </trkpt>
      <trkpt lat="46.67631" lon="6.06665">
        <ele>1120.3</ele>
        <time>2020-06-14T12:15:33Z</time>
      </trkpt>
      <trkpt lat="46.67636" lon="6.06669">
        <ele>1120.8</ele>
        <time>2020-06-14T12:15:37Z</time>
      </trkpt>
      <trkpt lat="46.67639" lon="6.06673">
        <ele>1121.1</ele>
        <time>2020-06-14T12:15:41Z</time>
      </trkpt>
      <trkpt lat="46.67643" lon="6.06677">
        <ele>1121.5</ele>
        <time>2020-06-14T12:15:47Z</time>
      </trkpt>
      <trkpt lat="46.67649" lon="6.06675">
        <ele>1121.6</ele>
        <time>2020-06-14T12:15:55Z</time>
      </trkpt>
      <trkpt lat="46.67654" lon="6.06676">
        <ele>1121.7</ele>
        <time>2020-06-14T12:16:03Z</time>
      </trkpt>
      <trkpt lat="46.67658" lon="6.06675">
        <ele>1122.1</ele>
        <time>2020-06-14T12:16:10Z</time>
      </trkpt>
      <trkpt lat="46.67663" lon="6.06672">
        <ele>1122.8</ele>
        <time>2020-06-14T12:16:16Z</time>
      </trkpt>
      <trkpt lat="46.67669" lon="6.06671">
        <ele>1123.1</ele>
        <time>2020-06-14T12:16:19Z</time>
      </trkpt>
      <trkpt lat="46.67674" lon="6.0667">
        <ele>1123.4</ele>
        <time>2020-06-14T12:16:21Z</time>
      </trkpt>
      <trkpt lat="46.67678" lon="6.06668">
        <ele>1123.9</ele>
        <time>2020-06-14T12:16:25Z</time>
      </trkpt>
      <trkpt lat="46.67683" lon="6.06665">
        <ele>1124.6</ele>
        <time>2020-06-14T12:16:31Z</time>
      </trkpt>
      <trkpt lat="46.67686" lon="6.0666">
        <ele>1124.8</ele>
        <time>2020-06-14T12:16:43Z</time>
      </trkpt>
      <trkpt lat="46.6769" lon="6.06655">
        <ele>1124.6</ele>
        <time>2020-06-14T12:16:47Z</time>
      </trkpt>
      <trkpt lat="46.67694" lon="6.06652">
        <ele>1123.7</ele>
        <time>2020-06-14T12:16:54Z</time>
      </trkpt>
      <trkpt lat="46.67699" lon="6.0665">
        <ele>1123.3</ele>
        <time>2020-06-14T12:16:57Z</time>
      </trkpt>
      <trkpt lat="46.67704" lon="6.06647">
        <ele>1122.8</ele>
        <time>2020-06-14T12:17:00Z</time>
      </trkpt>
      <trkpt lat="46.67709" lon="6.06644">
        <ele>1122.4</ele>
        <time>2020-06-14T12:17:04Z</time>
      </trkpt>
      <trkpt lat="46.67718" lon="6.06638">
        <ele>1121.9</ele>
        <time>2020-06-14T12:17:16Z</time>
      </trkpt>
      <trkpt lat="46.67722" lon="6.06635">
        <ele>1122</ele>
        <time>2020-06-14T12:17:23Z</time>
      </trkpt>
      <trkpt lat="46.67727" lon="6.06633">
        <ele>1122</ele>
        <time>2020-06-14T12:17:27Z</time>
      </trkpt>
      <trkpt lat="46.67731" lon="6.06631">
        <ele>1122.3</ele>
        <time>2020-06-14T12:17:31Z</time>
      </trkpt>
      <trkpt lat="46.67736" lon="6.06632">
        <ele>1122.8</ele>
        <time>2020-06-14T12:17:37Z</time>
      </trkpt>
      <trkpt lat="46.67741" lon="6.06634">
        <ele>1124.2</ele>
        <time>2020-06-14T12:17:52Z</time>
      </trkpt>
      <trkpt lat="46.67742" lon="6.0664">
        <ele>1132.7</ele>
        <time>2020-06-14T12:19:16Z</time>
      </trkpt>
      <trkpt lat="46.67747" lon="6.06641">
        <ele>1131.9</ele>
        <time>2020-06-14T12:19:35Z</time>
      </trkpt>
      <trkpt lat="46.67751" lon="6.06641">
        <ele>1131.5</ele>
        <time>2020-06-14T12:19:39Z</time>
      </trkpt>
      <trkpt lat="46.67756" lon="6.06641">
        <ele>1131</ele>
        <time>2020-06-14T12:19:43Z</time>
      </trkpt>
      <trkpt lat="46.67762" lon="6.06644">
        <ele>1130.1</ele>
        <time>2020-06-14T12:19:50Z</time>
      </trkpt>
      <trkpt lat="46.67766" lon="6.06647">
        <ele>1129.5</ele>
        <time>2020-06-14T12:19:54Z</time>
      </trkpt>
      <trkpt lat="46.6777" lon="6.06649">
        <ele>1128.3</ele>
        <time>2020-06-14T12:20:02Z</time>
      </trkpt>
      <trkpt lat="46.67775" lon="6.06652">
        <ele>1127.9</ele>
        <time>2020-06-14T12:20:06Z</time>
      </trkpt>
      <trkpt lat="46.6778" lon="6.06655">
        <ele>1127.7</ele>
        <time>2020-06-14T12:20:09Z</time>
      </trkpt>
      <trkpt lat="46.67785" lon="6.06657">
        <ele>1127.6</ele>
        <time>2020-06-14T12:20:13Z</time>
      </trkpt>
      <trkpt lat="46.6779" lon="6.0666">
        <ele>1127.6</ele>
        <time>2020-06-14T12:20:16Z</time>
      </trkpt>
      <trkpt lat="46.67795" lon="6.06662">
        <ele>1127.9</ele>
        <time>2020-06-14T12:20:20Z</time>
      </trkpt>
      <trkpt lat="46.678" lon="6.06665">
        <ele>1128.2</ele>
        <time>2020-06-14T12:20:24Z</time>
      </trkpt>
      <trkpt lat="46.67806" lon="6.06666">
        <ele>1128.5</ele>
        <time>2020-06-14T12:20:27Z</time>
      </trkpt>
      <trkpt lat="46.6781" lon="6.06668">
        <ele>1128.8</ele>
        <time>2020-06-14T12:20:31Z</time>
      </trkpt>
      <trkpt lat="46.67815" lon="6.06671">
        <ele>1129.2</ele>
        <time>2020-06-14T12:20:36Z</time>
      </trkpt>
      <trkpt lat="46.6782" lon="6.06675">
        <ele>1129.5</ele>
        <time>2020-06-14T12:20:40Z</time>
      </trkpt>
      <trkpt lat="46.67825" lon="6.06678">
        <ele>1129.9</ele>
        <time>2020-06-14T12:20:45Z</time>
      </trkpt>
      <trkpt lat="46.67829" lon="6.06679">
        <ele>1130.2</ele>
        <time>2020-06-14T12:20:50Z</time>
      </trkpt>
      <trkpt lat="46.67835" lon="6.06678">
        <ele>1130.4</ele>
        <time>2020-06-14T12:20:55Z</time>
      </trkpt>
      <trkpt lat="46.6784" lon="6.06679">
        <ele>1130.5</ele>
        <time>2020-06-14T12:21:01Z</time>
      </trkpt>
      <trkpt lat="46.67845" lon="6.06679">
        <ele>1130.5</ele>
        <time>2020-06-14T12:21:06Z</time>
      </trkpt>
      <trkpt lat="46.6785" lon="6.06681">
        <ele>1130.5</ele>
        <time>2020-06-14T12:21:12Z</time>
      </trkpt>
      <trkpt lat="46.67855" lon="6.06682">
        <ele>1130.4</ele>
        <time>2020-06-14T12:21:16Z</time>
      </trkpt>
      <trkpt lat="46.6786" lon="6.06684">
        <ele>1130.3</ele>
        <time>2020-06-14T12:21:21Z</time>
      </trkpt>
      <trkpt lat="46.67865" lon="6.06684">
        <ele>1129.9</ele>
        <time>2020-06-14T12:21:27Z</time>
      </trkpt>
      <trkpt lat="46.6787" lon="6.06683">
        <ele>1129.9</ele>
        <time>2020-06-14T12:21:33Z</time>
      </trkpt>
      <trkpt lat="46.67875" lon="6.06681">
        <ele>1129.9</ele>
        <time>2020-06-14T12:21:38Z</time>
      </trkpt>
      <trkpt lat="46.67879" lon="6.06679">
        <ele>1129.7</ele>
        <time>2020-06-14T12:21:44Z</time>
      </trkpt>
      <trkpt lat="46.67884" lon="6.06678">
        <ele>1129.4</ele>
        <time>2020-06-14T12:21:49Z</time>
      </trkpt>
      <trkpt lat="46.6789" lon="6.06678">
        <ele>1129</ele>
        <time>2020-06-14T12:21:54Z</time>
      </trkpt>
      <trkpt lat="46.67894" lon="6.06678">
        <ele>1128.7</ele>
        <time>2020-06-14T12:21:58Z</time>
      </trkpt>
      <trkpt lat="46.679" lon="6.06678">
        <ele>1128.6</ele>
        <time>2020-06-14T12:22:02Z</time>
      </trkpt>
      <trkpt lat="46.67905" lon="6.06677">
        <ele>1128.4</ele>
        <time>2020-06-14T12:22:06Z</time>
      </trkpt>
      <trkpt lat="46.6791" lon="6.06679">
        <ele>1128.2</ele>
        <time>2020-06-14T12:22:11Z</time>
      </trkpt>
      <trkpt lat="46.67915" lon="6.0668">
        <ele>1128</ele>
        <time>2020-06-14T12:22:14Z</time>
      </trkpt>
      <trkpt lat="46.67919" lon="6.06681">
        <ele>1127.9</ele>
        <time>2020-06-14T12:22:18Z</time>
      </trkpt>
      <trkpt lat="46.67924" lon="6.06682">
        <ele>1128</ele>
        <time>2020-06-14T12:22:25Z</time>
      </trkpt>
      <trkpt lat="46.67929" lon="6.06683">
        <ele>1128.4</ele>
        <time>2020-06-14T12:22:30Z</time>
      </trkpt>
      <trkpt lat="46.67935" lon="6.06685">
        <ele>1129</ele>
        <time>2020-06-14T12:22:35Z</time>
      </trkpt>
      <trkpt lat="46.67939" lon="6.06686">
        <ele>1129.4</ele>
        <time>2020-06-14T12:22:40Z</time>
      </trkpt>
      <trkpt lat="46.67945" lon="6.06688">
        <ele>1129.6</ele>
        <time>2020-06-14T12:22:46Z</time>
      </trkpt>
      <trkpt lat="46.6795" lon="6.06688">
        <ele>1129.7</ele>
        <time>2020-06-14T12:22:50Z</time>
      </trkpt>
      <trkpt lat="46.67955" lon="6.06687">
        <ele>1129.5</ele>
        <time>2020-06-14T12:22:54Z</time>
      </trkpt>
      <trkpt lat="46.6796" lon="6.06688">
        <ele>1129.2</ele>
        <time>2020-06-14T12:23:01Z</time>
      </trkpt>
      <trkpt lat="46.67965" lon="6.06689">
        <ele>1128.7</ele>
        <time>2020-06-14T12:23:07Z</time>
      </trkpt>
      <trkpt lat="46.6797" lon="6.06692">
        <ele>1128.5</ele>
        <time>2020-06-14T12:23:11Z</time>
      </trkpt>
      <trkpt lat="46.67975" lon="6.06694">
        <ele>1128.2</ele>
        <time>2020-06-14T12:23:16Z</time>
      </trkpt>
      <trkpt lat="46.67979" lon="6.06697">
        <ele>1127.9</ele>
        <time>2020-06-14T12:23:21Z</time>
      </trkpt>
      <trkpt lat="46.67984" lon="6.067">
        <ele>1127.8</ele>
        <time>2020-06-14T12:23:25Z</time>
      </trkpt>
      <trkpt lat="46.67988" lon="6.06705">
        <ele>1127.7</ele>
        <time>2020-06-14T12:23:29Z</time>
      </trkpt>
      <trkpt lat="46.67992" lon="6.0671">
        <ele>1127.7</ele>
        <time>2020-06-14T12:23:34Z</time>
      </trkpt>
      <trkpt lat="46.67997" lon="6.06713">
        <ele>1127.8</ele>
        <time>2020-06-14T12:23:38Z</time>
      </trkpt>
      <trkpt lat="46.68002" lon="6.06718">
        <ele>1127.9</ele>
        <time>2020-06-14T12:23:42Z</time>
      </trkpt>
      <trkpt lat="46.68006" lon="6.06723">
        <ele>1128.1</ele>
        <time>2020-06-14T12:23:46Z</time>
      </trkpt>
      <trkpt lat="46.68009" lon="6.06729">
        <ele>1128.2</ele>
        <time>2020-06-14T12:23:50Z</time>
      </trkpt>
      <trkpt lat="46.68012" lon="6.06734">
        <ele>1128.3</ele>
        <time>2020-06-14T12:23:55Z</time>
      </trkpt>
      <trkpt lat="46.68018" lon="6.06745">
        <ele>1128.1</ele>
        <time>2020-06-14T12:24:04Z</time>
      </trkpt>
      <trkpt lat="46.68022" lon="6.06751">
        <ele>1128.1</ele>
        <time>2020-06-14T12:24:09Z</time>
      </trkpt>
      <trkpt lat="46.68025" lon="6.06756">
        <ele>1127.9</ele>
        <time>2020-06-14T12:24:13Z</time>
      </trkpt>
      <trkpt lat="46.68028" lon="6.06763">
        <ele>1127.6</ele>
        <time>2020-06-14T12:24:17Z</time>
      </trkpt>
      <trkpt lat="46.6803" lon="6.0677">
        <ele>1127.3</ele>
        <time>2020-06-14T12:24:21Z</time>
      </trkpt>
      <trkpt lat="46.68033" lon="6.06776">
        <ele>1126.8</ele>
        <time>2020-06-14T12:24:25Z</time>
      </trkpt>
      <trkpt lat="46.68034" lon="6.06783">
        <ele>1126.4</ele>
        <time>2020-06-14T12:24:29Z</time>
      </trkpt>
      <trkpt lat="46.68036" lon="6.0679">
        <ele>1125.9</ele>
        <time>2020-06-14T12:24:34Z</time>
      </trkpt>
      <trkpt lat="46.68039" lon="6.06796">
        <ele>1125</ele>
        <time>2020-06-14T12:24:41Z</time>
      </trkpt>
      <trkpt lat="46.68041" lon="6.06802">
        <ele>1124.1</ele>
        <time>2020-06-14T12:24:47Z</time>
      </trkpt>
      <trkpt lat="46.68043" lon="6.06808">
        <ele>1123.7</ele>
        <time>2020-06-14T12:24:50Z</time>
      </trkpt>
      <trkpt lat="46.68046" lon="6.06814">
        <ele>1123.3</ele>
        <time>2020-06-14T12:24:53Z</time>
      </trkpt>
      <trkpt lat="46.68049" lon="6.06821">
        <ele>1122.7</ele>
        <time>2020-06-14T12:24:58Z</time>
      </trkpt>
      <trkpt lat="46.68052" lon="6.06826">
        <ele>1122.2</ele>
        <time>2020-06-14T12:25:03Z</time>
      </trkpt>
      <trkpt lat="46.68055" lon="6.06832">
        <ele>1121.7</ele>
        <time>2020-06-14T12:25:08Z</time>
      </trkpt>
      <trkpt lat="46.68059" lon="6.06837">
        <ele>1121.2</ele>
        <time>2020-06-14T12:25:13Z</time>
      </trkpt>
      <trkpt lat="46.68063" lon="6.06843">
        <ele>1121</ele>
        <time>2020-06-14T12:25:17Z</time>
      </trkpt>
      <trkpt lat="46.68067" lon="6.06848">
        <ele>1120.7</ele>
        <time>2020-06-14T12:25:21Z</time>
      </trkpt>
      <trkpt lat="46.68071" lon="6.06853">
        <ele>1120.5</ele>
        <time>2020-06-14T12:25:25Z</time>
      </trkpt>
      <trkpt lat="46.68075" lon="6.06857">
        <ele>1120.5</ele>
        <time>2020-06-14T12:25:29Z</time>
      </trkpt>
      <trkpt lat="46.68079" lon="6.06862">
        <ele>1120.4</ele>
        <time>2020-06-14T12:25:32Z</time>
      </trkpt>
      <trkpt lat="46.68082" lon="6.06866">
        <ele>1120.2</ele>
        <time>2020-06-14T12:25:36Z</time>
      </trkpt>
      <trkpt lat="46.68085" lon="6.06871">
        <ele>1120</ele>
        <time>2020-06-14T12:25:40Z</time>
      </trkpt>
      <trkpt lat="46.68088" lon="6.06877">
        <ele>1119.7</ele>
        <time>2020-06-14T12:25:44Z</time>
      </trkpt>
      <trkpt lat="46.68092" lon="6.06881">
        <ele>1119.6</ele>
        <time>2020-06-14T12:25:47Z</time>
      </trkpt>
      <trkpt lat="46.68096" lon="6.06885">
        <ele>1119.4</ele>
        <time>2020-06-14T12:25:51Z</time>
      </trkpt>
      <trkpt lat="46.68099" lon="6.06891">
        <ele>1119.3</ele>
        <time>2020-06-14T12:25:56Z</time>
      </trkpt>
      <trkpt lat="46.68102" lon="6.06897">
        <ele>1119.6</ele>
        <time>2020-06-14T12:26:01Z</time>
      </trkpt>
      <trkpt lat="46.68105" lon="6.06905">
        <ele>1119.8</ele>
        <time>2020-06-14T12:26:06Z</time>
      </trkpt>
      <trkpt lat="46.68107" lon="6.06911">
        <ele>1119.9</ele>
        <time>2020-06-14T12:26:09Z</time>
      </trkpt>
      <trkpt lat="46.68109" lon="6.06918">
        <ele>1120.1</ele>
        <time>2020-06-14T12:26:12Z</time>
      </trkpt>
      <trkpt lat="46.6811" lon="6.06925">
        <ele>1120.3</ele>
        <time>2020-06-14T12:26:16Z</time>
      </trkpt>
      <trkpt lat="46.6811" lon="6.06933">
        <ele>1120.6</ele>
        <time>2020-06-14T12:26:21Z</time>
      </trkpt>
      <trkpt lat="46.68109" lon="6.0694">
        <ele>1120.9</ele>
        <time>2020-06-14T12:26:27Z</time>
      </trkpt>
      <trkpt lat="46.6811" lon="6.06947">
        <ele>1121.2</ele>
        <time>2020-06-14T12:26:32Z</time>
      </trkpt>
      <trkpt lat="46.68111" lon="6.06955">
        <ele>1121.1</ele>
        <time>2020-06-14T12:26:37Z</time>
      </trkpt>
      <trkpt lat="46.68112" lon="6.06962">
        <ele>1120.9</ele>
        <time>2020-06-14T12:26:41Z</time>
      </trkpt>
      <trkpt lat="46.68113" lon="6.06969">
        <ele>1120.5</ele>
        <time>2020-06-14T12:26:47Z</time>
      </trkpt>
      <trkpt lat="46.68114" lon="6.06977">
        <ele>1120.1</ele>
        <time>2020-06-14T12:26:53Z</time>
      </trkpt>
      <trkpt lat="46.68116" lon="6.06984">
        <ele>1119.6</ele>
        <time>2020-06-14T12:26:58Z</time>
      </trkpt>
      <trkpt lat="46.68117" lon="6.06992">
        <ele>1119.5</ele>
        <time>2020-06-14T12:27:03Z</time>
      </trkpt>
      <trkpt lat="46.68118" lon="6.07">
        <ele>1119.3</ele>
        <time>2020-06-14T12:27:07Z</time>
      </trkpt>
      <trkpt lat="46.68118" lon="6.07007">
        <ele>1119.2</ele>
        <time>2020-06-14T12:27:10Z</time>
      </trkpt>
      <trkpt lat="46.6812" lon="6.07014">
        <ele>1119.1</ele>
        <time>2020-06-14T12:27:14Z</time>
      </trkpt>
      <trkpt lat="46.68121" lon="6.07021">
        <ele>1118.8</ele>
        <time>2020-06-14T12:27:20Z</time>
      </trkpt>
      <trkpt lat="46.68124" lon="6.07027">
        <ele>1118.4</ele>
        <time>2020-06-14T12:27:26Z</time>
      </trkpt>
      <trkpt lat="46.68125" lon="6.07033">
        <ele>1118.1</ele>
        <time>2020-06-14T12:27:29Z</time>
      </trkpt>
      <trkpt lat="46.68126" lon="6.07041">
        <ele>1117.8</ele>
        <time>2020-06-14T12:27:32Z</time>
      </trkpt>
      <trkpt lat="46.68124" lon="6.07048">
        <ele>1117.4</ele>
        <time>2020-06-14T12:27:35Z</time>
      </trkpt>
      <trkpt lat="46.68124" lon="6.07057">
        <ele>1116.9</ele>
        <time>2020-06-14T12:27:38Z</time>
      </trkpt>
      <trkpt lat="46.68122" lon="6.07064">
        <ele>1116.6</ele>
        <time>2020-06-14T12:27:42Z</time>
      </trkpt>
      <trkpt lat="46.6812" lon="6.07071">
        <ele>1116.6</ele>
        <time>2020-06-14T12:27:47Z</time>
      </trkpt>
      <trkpt lat="46.6812" lon="6.07078">
        <ele>1116.7</ele>
        <time>2020-06-14T12:27:51Z</time>
      </trkpt>
      <trkpt lat="46.6812" lon="6.07085">
        <ele>1117</ele>
        <time>2020-06-14T12:27:54Z</time>
      </trkpt>
      <trkpt lat="46.6812" lon="6.07093">
        <ele>1117.3</ele>
        <time>2020-06-14T12:27:58Z</time>
      </trkpt>
      <trkpt lat="46.68119" lon="6.071">
        <ele>1117.6</ele>
        <time>2020-06-14T12:28:03Z</time>
      </trkpt>
      <trkpt lat="46.68119" lon="6.07107">
        <ele>1117.8</ele>
        <time>2020-06-14T12:28:07Z</time>
      </trkpt>
      <trkpt lat="46.68119" lon="6.07115">
        <ele>1118</ele>
        <time>2020-06-14T12:28:12Z</time>
      </trkpt>
      <trkpt lat="46.68117" lon="6.07122">
        <ele>1118</ele>
        <time>2020-06-14T12:28:16Z</time>
      </trkpt>
      <trkpt lat="46.68116" lon="6.07129">
        <ele>1118.2</ele>
        <time>2020-06-14T12:28:20Z</time>
      </trkpt>
      <trkpt lat="46.68116" lon="6.07136">
        <ele>1118.4</ele>
        <time>2020-06-14T12:28:24Z</time>
      </trkpt>
      <trkpt lat="46.68115" lon="6.07143">
        <ele>1118.5</ele>
        <time>2020-06-14T12:28:28Z</time>
      </trkpt>
      <trkpt lat="46.68115" lon="6.0715">
        <ele>1118.7</ele>
        <time>2020-06-14T12:28:33Z</time>
      </trkpt>
      <trkpt lat="46.68111" lon="6.07153">
        <ele>1117.9</ele>
        <time>2020-06-14T12:28:54Z</time>
      </trkpt>
      <trkpt lat="46.68113" lon="6.0716">
        <ele>1115.6</ele>
        <time>2020-06-14T12:29:20Z</time>
      </trkpt>
      <trkpt lat="46.68114" lon="6.07167">
        <ele>1114.9</ele>
        <time>2020-06-14T12:29:25Z</time>
      </trkpt>
      <trkpt lat="46.68114" lon="6.07174">
        <ele>1115.3</ele>
        <time>2020-06-14T12:30:09Z</time>
      </trkpt>
      <trkpt lat="46.68113" lon="6.07182">
        <ele>1115.9</ele>
        <time>2020-06-14T12:30:13Z</time>
      </trkpt>
      <trkpt lat="46.68114" lon="6.07189">
        <ele>1117</ele>
        <time>2020-06-14T12:30:20Z</time>
      </trkpt>
      <trkpt lat="46.68116" lon="6.07195">
        <ele>1117.5</ele>
        <time>2020-06-14T12:30:25Z</time>
      </trkpt>
      <trkpt lat="46.68114" lon="6.07202">
        <ele>1117.9</ele>
        <time>2020-06-14T12:30:43Z</time>
      </trkpt>
      <trkpt lat="46.68115" lon="6.07208">
        <ele>1117.8</ele>
        <time>2020-06-14T12:30:47Z</time>
      </trkpt>
      <trkpt lat="46.68116" lon="6.07214">
        <ele>1118</ele>
        <time>2020-06-14T12:30:52Z</time>
      </trkpt>
      <trkpt lat="46.68116" lon="6.07222">
        <ele>1118.1</ele>
        <time>2020-06-14T12:30:56Z</time>
      </trkpt>
      <trkpt lat="46.68118" lon="6.07229">
        <ele>1118.3</ele>
        <time>2020-06-14T12:31:00Z</time>
      </trkpt>
      <trkpt lat="46.68121" lon="6.07235">
        <ele>1118.5</ele>
        <time>2020-06-14T12:31:08Z</time>
      </trkpt>
      <trkpt lat="46.68123" lon="6.07241">
        <ele>1118.5</ele>
        <time>2020-06-14T12:31:12Z</time>
      </trkpt>
      <trkpt lat="46.68125" lon="6.07247">
        <ele>1118.6</ele>
        <time>2020-06-14T12:31:19Z</time>
      </trkpt>
      <trkpt lat="46.68126" lon="6.07255">
        <ele>1119</ele>
        <time>2020-06-14T12:31:26Z</time>
      </trkpt>
      <trkpt lat="46.68126" lon="6.07263">
        <ele>1119.5</ele>
        <time>2020-06-14T12:31:31Z</time>
      </trkpt>
      <trkpt lat="46.68125" lon="6.07269">
        <ele>1120</ele>
        <time>2020-06-14T12:31:39Z</time>
      </trkpt>
      <trkpt lat="46.68121" lon="6.07274">
        <ele>1120</ele>
        <time>2020-06-14T12:31:45Z</time>
      </trkpt>
      <trkpt lat="46.68118" lon="6.07279">
        <ele>1119.9</ele>
        <time>2020-06-14T12:31:48Z</time>
      </trkpt>
      <trkpt lat="46.68115" lon="6.07285">
        <ele>1119.6</ele>
        <time>2020-06-14T12:31:52Z</time>
      </trkpt>
      <trkpt lat="46.68114" lon="6.07293">
        <ele>1119.2</ele>
        <time>2020-06-14T12:31:57Z</time>
      </trkpt>
      <trkpt lat="46.68113" lon="6.07299">
        <ele>1118.6</ele>
        <time>2020-06-14T12:32:03Z</time>
      </trkpt>
      <trkpt lat="46.6811" lon="6.07304">
        <ele>1117.7</ele>
        <time>2020-06-14T12:32:10Z</time>
      </trkpt>
      <trkpt lat="46.68106" lon="6.07307">
        <ele>1117.4</ele>
        <time>2020-06-14T12:32:25Z</time>
      </trkpt>
      <trkpt lat="46.68104" lon="6.07313">
        <ele>1116.7</ele>
        <time>2020-06-14T12:32:33Z</time>
      </trkpt>
      <trkpt lat="46.68102" lon="6.07319">
        <ele>1116.3</ele>
        <time>2020-06-14T12:32:37Z</time>
      </trkpt>
      <trkpt lat="46.68098" lon="6.07326">
        <ele>1115.8</ele>
        <time>2020-06-14T12:32:43Z</time>
      </trkpt>
      <trkpt lat="46.68096" lon="6.07332">
        <ele>1115.2</ele>
        <time>2020-06-14T12:32:48Z</time>
      </trkpt>
      <trkpt lat="46.68093" lon="6.07337">
        <ele>1114.7</ele>
        <time>2020-06-14T12:32:52Z</time>
      </trkpt>
      <trkpt lat="46.6809" lon="6.07343">
        <ele>1114.3</ele>
        <time>2020-06-14T12:32:56Z</time>
      </trkpt>
      <trkpt lat="46.68089" lon="6.07351">
        <ele>1113.6</ele>
        <time>2020-06-14T12:33:02Z</time>
      </trkpt>
      <trkpt lat="46.68088" lon="6.07358">
        <ele>1113.3</ele>
        <time>2020-06-14T12:33:06Z</time>
      </trkpt>
      <trkpt lat="46.68086" lon="6.07365">
        <ele>1113.1</ele>
        <time>2020-06-14T12:33:10Z</time>
      </trkpt>
      <trkpt lat="46.68084" lon="6.07372">
        <ele>1112.9</ele>
        <time>2020-06-14T12:33:14Z</time>
      </trkpt>
      <trkpt lat="46.68082" lon="6.07379">
        <ele>1112.9</ele>
        <time>2020-06-14T12:33:18Z</time>
      </trkpt>
      <trkpt lat="46.6808" lon="6.07384">
        <ele>1112.9</ele>
        <time>2020-06-14T12:33:23Z</time>
      </trkpt>
      <trkpt lat="46.68077" lon="6.07389">
        <ele>1112.9</ele>
        <time>2020-06-14T12:33:27Z</time>
      </trkpt>
      <trkpt lat="46.68074" lon="6.07396">
        <ele>1112.8</ele>
        <time>2020-06-14T12:33:31Z</time>
      </trkpt>
      <trkpt lat="46.68072" lon="6.07403">
        <ele>1113</ele>
        <time>2020-06-14T12:33:35Z</time>
      </trkpt>
      <trkpt lat="46.68069" lon="6.07409">
        <ele>1113.1</ele>
        <time>2020-06-14T12:33:39Z</time>
      </trkpt>
      <trkpt lat="46.68067" lon="6.07416">
        <ele>1113.2</ele>
        <time>2020-06-14T12:33:43Z</time>
      </trkpt>
      <trkpt lat="46.68064" lon="6.07421">
        <ele>1113.4</ele>
        <time>2020-06-14T12:33:49Z</time>
      </trkpt>
      <trkpt lat="46.68061" lon="6.07425">
        <ele>1113.8</ele>
        <time>2020-06-14T12:33:55Z</time>
      </trkpt>
      <trkpt lat="46.68059" lon="6.07432">
        <ele>1114.8</ele>
        <time>2020-06-14T12:34:00Z</time>
      </trkpt>
      <trkpt lat="46.68055" lon="6.07438">
        <ele>1115.8</ele>
        <time>2020-06-14T12:34:05Z</time>
      </trkpt>
      <trkpt lat="46.68052" lon="6.07442">
        <ele>1116.1</ele>
        <time>2020-06-14T12:34:09Z</time>
      </trkpt>
      <trkpt lat="46.68047" lon="6.07445">
        <ele>1116.3</ele>
        <time>2020-06-14T12:34:13Z</time>
      </trkpt>
      <trkpt lat="46.68044" lon="6.0745">
        <ele>1116.2</ele>
        <time>2020-06-14T12:34:17Z</time>
      </trkpt>
      <trkpt lat="46.68041" lon="6.07456">
        <ele>1116</ele>
        <time>2020-06-14T12:34:21Z</time>
      </trkpt>
      <trkpt lat="46.68037" lon="6.0746">
        <ele>1115.7</ele>
        <time>2020-06-14T12:34:25Z</time>
      </trkpt>
      <trkpt lat="46.68033" lon="6.07465">
        <ele>1115.2</ele>
        <time>2020-06-14T12:34:30Z</time>
      </trkpt>
      <trkpt lat="46.68028" lon="6.07467">
        <ele>1114.6</ele>
        <time>2020-06-14T12:34:37Z</time>
      </trkpt>
      <trkpt lat="46.68023" lon="6.0747">
        <ele>1114.1</ele>
        <time>2020-06-14T12:34:42Z</time>
      </trkpt>
      <trkpt lat="46.68019" lon="6.07473">
        <ele>1113.6</ele>
        <time>2020-06-14T12:34:46Z</time>
      </trkpt>
      <trkpt lat="46.68015" lon="6.07478">
        <ele>1112.8</ele>
        <time>2020-06-14T12:34:51Z</time>
      </trkpt>
      <trkpt lat="46.68011" lon="6.07484">
        <ele>1112</ele>
        <time>2020-06-14T12:34:56Z</time>
      </trkpt>
      <trkpt lat="46.68005" lon="6.07487">
        <ele>1111.4</ele>
        <time>2020-06-14T12:35:00Z</time>
      </trkpt>
      <trkpt lat="46.68" lon="6.07489">
        <ele>1110.9</ele>
        <time>2020-06-14T12:35:04Z</time>
      </trkpt>
      <trkpt lat="46.67996" lon="6.07491">
        <ele>1110.1</ele>
        <time>2020-06-14T12:35:09Z</time>
      </trkpt>
      <trkpt lat="46.67992" lon="6.07494">
        <ele>1109.3</ele>
        <time>2020-06-14T12:35:14Z</time>
      </trkpt>
      <trkpt lat="46.67988" lon="6.07497">
        <ele>1108.8</ele>
        <time>2020-06-14T12:35:18Z</time>
      </trkpt>
      <trkpt lat="46.67983" lon="6.07501">
        <ele>1108.2</ele>
        <time>2020-06-14T12:35:25Z</time>
      </trkpt>
      <trkpt lat="46.67978" lon="6.07504">
        <ele>1107.8</ele>
        <time>2020-06-14T12:35:29Z</time>
      </trkpt>
      <trkpt lat="46.67974" lon="6.07508">
        <ele>1107.5</ele>
        <time>2020-06-14T12:35:34Z</time>
      </trkpt>
      <trkpt lat="46.6797" lon="6.07511">
        <ele>1107.2</ele>
        <time>2020-06-14T12:35:39Z</time>
      </trkpt>
      <trkpt lat="46.67966" lon="6.07515">
        <ele>1106.9</ele>
        <time>2020-06-14T12:35:43Z</time>
      </trkpt>
      <trkpt lat="46.6796" lon="6.07517">
        <ele>1106.5</ele>
        <time>2020-06-14T12:35:49Z</time>
      </trkpt>
      <trkpt lat="46.67955" lon="6.0752">
        <ele>1106</ele>
        <time>2020-06-14T12:35:53Z</time>
      </trkpt>
      <trkpt lat="46.67949" lon="6.07523">
        <ele>1105.6</ele>
        <time>2020-06-14T12:35:56Z</time>
      </trkpt>
      <trkpt lat="46.67943" lon="6.07527">
        <ele>1105.3</ele>
        <time>2020-06-14T12:36:00Z</time>
      </trkpt>
      <trkpt lat="46.67939" lon="6.0753">
        <ele>1105.3</ele>
        <time>2020-06-14T12:36:04Z</time>
      </trkpt>
      <trkpt lat="46.67934" lon="6.07536">
        <ele>1105.5</ele>
        <time>2020-06-14T12:36:08Z</time>
      </trkpt>
      <trkpt lat="46.6793" lon="6.0754">
        <ele>1105.6</ele>
        <time>2020-06-14T12:36:10Z</time>
      </trkpt>
      <trkpt lat="46.67927" lon="6.07544">
        <ele>1106.2</ele>
        <time>2020-06-14T12:36:15Z</time>
      </trkpt>
      <trkpt lat="46.67925" lon="6.07551">
        <ele>1107.2</ele>
        <time>2020-06-14T12:36:23Z</time>
      </trkpt>
      <trkpt lat="46.67922" lon="6.07556">
        <ele>1107.5</ele>
        <time>2020-06-14T12:36:28Z</time>
      </trkpt>
      <trkpt lat="46.67918" lon="6.07562">
        <ele>1107.7</ele>
        <time>2020-06-14T12:36:34Z</time>
      </trkpt>
      <trkpt lat="46.67916" lon="6.07569">
        <ele>1107.5</ele>
        <time>2020-06-14T12:36:40Z</time>
      </trkpt>
      <trkpt lat="46.67914" lon="6.07575">
        <ele>1107.2</ele>
        <time>2020-06-14T12:36:45Z</time>
      </trkpt>
      <trkpt lat="46.67912" lon="6.07582">
        <ele>1106.6</ele>
        <time>2020-06-14T12:36:51Z</time>
      </trkpt>
      <trkpt lat="46.67912" lon="6.07589">
        <ele>1106.1</ele>
        <time>2020-06-14T12:36:57Z</time>
      </trkpt>
      <trkpt lat="46.67912" lon="6.07595">
        <ele>1105.9</ele>
        <time>2020-06-14T12:37:01Z</time>
      </trkpt>
      <trkpt lat="46.67911" lon="6.07604">
        <ele>1105.5</ele>
        <time>2020-06-14T12:37:06Z</time>
      </trkpt>
      <trkpt lat="46.67912" lon="6.07611">
        <ele>1105.2</ele>
        <time>2020-06-14T12:37:10Z</time>
      </trkpt>
      <trkpt lat="46.67912" lon="6.07618">
        <ele>1104.7</ele>
        <time>2020-06-14T12:37:16Z</time>
      </trkpt>
      <trkpt lat="46.6791" lon="6.07624">
        <ele>1103.6</ele>
        <time>2020-06-14T12:37:23Z</time>
      </trkpt>
      <trkpt lat="46.67908" lon="6.07631">
        <ele>1102.6</ele>
        <time>2020-06-14T12:37:30Z</time>
      </trkpt>
      <trkpt lat="46.67908" lon="6.07638">
        <ele>1101.5</ele>
        <time>2020-06-14T12:37:36Z</time>
      </trkpt>
      <trkpt lat="46.67909" lon="6.07645">
        <ele>1100.2</ele>
        <time>2020-06-14T12:37:42Z</time>
      </trkpt>
      <trkpt lat="46.6791" lon="6.07652">
        <ele>1099</ele>
        <time>2020-06-14T12:37:47Z</time>
      </trkpt>
      <trkpt lat="46.6791" lon="6.07659">
        <ele>1097.7</ele>
        <time>2020-06-14T12:37:52Z</time>
      </trkpt>
      <trkpt lat="46.67909" lon="6.07674">
        <ele>1095</ele>
        <time>2020-06-14T12:38:02Z</time>
      </trkpt>
      <trkpt lat="46.6791" lon="6.07681">
        <ele>1094.4</ele>
        <time>2020-06-14T12:38:06Z</time>
      </trkpt>
      <trkpt lat="46.67912" lon="6.07688">
        <ele>1093.9</ele>
        <time>2020-06-14T12:38:10Z</time>
      </trkpt>
      <trkpt lat="46.67913" lon="6.07695">
        <ele>1093.4</ele>
        <time>2020-06-14T12:38:14Z</time>
      </trkpt>
      <trkpt lat="46.67915" lon="6.07701">
        <ele>1093</ele>
        <time>2020-06-14T12:38:19Z</time>
      </trkpt>
      <trkpt lat="46.67916" lon="6.07708">
        <ele>1092.5</ele>
        <time>2020-06-14T12:38:24Z</time>
      </trkpt>
      <trkpt lat="46.67916" lon="6.07714">
        <ele>1092</ele>
        <time>2020-06-14T12:38:28Z</time>
      </trkpt>
      <trkpt lat="46.67916" lon="6.07721">
        <ele>1091.1</ele>
        <time>2020-06-14T12:38:33Z</time>
      </trkpt>
      <trkpt lat="46.67916" lon="6.07729">
        <ele>1089.7</ele>
        <time>2020-06-14T12:38:39Z</time>
      </trkpt>
      <trkpt lat="46.67916" lon="6.07736">
        <ele>1088.1</ele>
        <time>2020-06-14T12:38:46Z</time>
      </trkpt>
      <trkpt lat="46.67916" lon="6.07743">
        <ele>1087.5</ele>
        <time>2020-06-14T12:38:50Z</time>
      </trkpt>
      <trkpt lat="46.67916" lon="6.0775">
        <ele>1087.1</ele>
        <time>2020-06-14T12:38:54Z</time>
      </trkpt>
      <trkpt lat="46.67914" lon="6.07758">
        <ele>1086.8</ele>
        <time>2020-06-14T12:38:56Z</time>
      </trkpt>
      <trkpt lat="46.67912" lon="6.07766">
        <ele>1086.5</ele>
        <time>2020-06-14T12:38:58Z</time>
      </trkpt>
      <trkpt lat="46.6791" lon="6.07773">
        <ele>1086.1</ele>
        <time>2020-06-14T12:39:01Z</time>
      </trkpt>
      <trkpt lat="46.67909" lon="6.07779">
        <ele>1085.8</ele>
        <time>2020-06-14T12:39:05Z</time>
      </trkpt>
      <trkpt lat="46.67897" lon="6.07795">
        <ele>1087.9</ele>
        <time>2020-06-14T12:40:09Z</time>
      </trkpt>
      <trkpt lat="46.67897" lon="6.07802">
        <ele>1088.2</ele>
        <time>2020-06-14T12:40:14Z</time>
      </trkpt>
      <trkpt lat="46.67896" lon="6.07809">
        <ele>1088.6</ele>
        <time>2020-06-14T12:40:34Z</time>
      </trkpt>
      <trkpt lat="46.67893" lon="6.07815">
        <ele>1088.5</ele>
        <time>2020-06-14T12:40:40Z</time>
      </trkpt>
      <trkpt lat="46.6789" lon="6.07822">
        <ele>1088.5</ele>
        <time>2020-06-14T12:40:43Z</time>
      </trkpt>
      <trkpt lat="46.67887" lon="6.07829">
        <ele>1088.5</ele>
        <time>2020-06-14T12:40:47Z</time>
      </trkpt>
      <trkpt lat="46.67883" lon="6.07849">
        <ele>1089.8</ele>
        <time>2020-06-14T12:41:00Z</time>
      </trkpt>
      <trkpt lat="46.6788" lon="6.07854">
        <ele>1090</ele>
        <time>2020-06-14T12:41:04Z</time>
      </trkpt>
      <trkpt lat="46.67877" lon="6.0786">
        <ele>1090.1</ele>
        <time>2020-06-14T12:41:07Z</time>
      </trkpt>
      <trkpt lat="46.67874" lon="6.07867">
        <ele>1090</ele>
        <time>2020-06-14T12:41:11Z</time>
      </trkpt>
      <trkpt lat="46.67873" lon="6.07874">
        <ele>1089.7</ele>
        <time>2020-06-14T12:41:17Z</time>
      </trkpt>
      <trkpt lat="46.6787" lon="6.0788">
        <ele>1089.8</ele>
        <time>2020-06-14T12:41:25Z</time>
      </trkpt>
      <trkpt lat="46.6787" lon="6.07889">
        <ele>1089.8</ele>
        <time>2020-06-14T12:41:29Z</time>
      </trkpt>
      <trkpt lat="46.67871" lon="6.07896">
        <ele>1089.6</ele>
        <time>2020-06-14T12:41:36Z</time>
      </trkpt>
      <trkpt lat="46.67872" lon="6.07903">
        <ele>1089.6</ele>
        <time>2020-06-14T12:41:42Z</time>
      </trkpt>
      <trkpt lat="46.67874" lon="6.07909">
        <ele>1089.4</ele>
        <time>2020-06-14T12:41:48Z</time>
      </trkpt>
      <trkpt lat="46.67877" lon="6.07915">
        <ele>1089.2</ele>
        <time>2020-06-14T12:41:53Z</time>
      </trkpt>
      <trkpt lat="46.67881" lon="6.07919">
        <ele>1088.9</ele>
        <time>2020-06-14T12:41:57Z</time>
      </trkpt>
      <trkpt lat="46.67885" lon="6.07923">
        <ele>1088.6</ele>
        <time>2020-06-14T12:42:00Z</time>
      </trkpt>
      <trkpt lat="46.67889" lon="6.0793">
        <ele>1088</ele>
        <time>2020-06-14T12:42:04Z</time>
      </trkpt>
      <trkpt lat="46.6789" lon="6.07938">
        <ele>1087.1</ele>
        <time>2020-06-14T12:42:09Z</time>
      </trkpt>
      <trkpt lat="46.67892" lon="6.07944">
        <ele>1086.4</ele>
        <time>2020-06-14T12:42:12Z</time>
      </trkpt>
      <trkpt lat="46.67892" lon="6.07951">
        <ele>1085.5</ele>
        <time>2020-06-14T12:42:16Z</time>
      </trkpt>
      <trkpt lat="46.67894" lon="6.07958">
        <ele>1084.4</ele>
        <time>2020-06-14T12:42:21Z</time>
      </trkpt>
      <trkpt lat="46.67897" lon="6.07965">
        <ele>1083.5</ele>
        <time>2020-06-14T12:42:26Z</time>
      </trkpt>
      <trkpt lat="46.679" lon="6.07971">
        <ele>1082.9</ele>
        <time>2020-06-14T12:42:30Z</time>
      </trkpt>
      <trkpt lat="46.67903" lon="6.07977">
        <ele>1082.3</ele>
        <time>2020-06-14T12:42:34Z</time>
      </trkpt>
      <trkpt lat="46.67905" lon="6.07982">
        <ele>1081.8</ele>
        <time>2020-06-14T12:42:38Z</time>
      </trkpt>
      <trkpt lat="46.67909" lon="6.07988">
        <ele>1080.8</ele>
        <time>2020-06-14T12:42:43Z</time>
      </trkpt>
      <trkpt lat="46.67911" lon="6.07994">
        <ele>1080</ele>
        <time>2020-06-14T12:42:48Z</time>
      </trkpt>
      <trkpt lat="46.67914" lon="6.08">
        <ele>1079.4</ele>
        <time>2020-06-14T12:42:53Z</time>
      </trkpt>
      <trkpt lat="46.67918" lon="6.08005">
        <ele>1079</ele>
        <time>2020-06-14T12:42:58Z</time>
      </trkpt>
      <trkpt lat="46.67922" lon="6.0801">
        <ele>1078.9</ele>
        <time>2020-06-14T12:43:02Z</time>
      </trkpt>
      <trkpt lat="46.67925" lon="6.08015">
        <ele>1078.8</ele>
        <time>2020-06-14T12:43:06Z</time>
      </trkpt>
      <trkpt lat="46.67928" lon="6.0802">
        <ele>1078.5</ele>
        <time>2020-06-14T12:43:10Z</time>
      </trkpt>
      <trkpt lat="46.6793" lon="6.08027">
        <ele>1078</ele>
        <time>2020-06-14T12:43:15Z</time>
      </trkpt>
      <trkpt lat="46.67933" lon="6.08035">
        <ele>1077.6</ele>
        <time>2020-06-14T12:43:19Z</time>
      </trkpt>
      <trkpt lat="46.67935" lon="6.08041">
        <ele>1077.3</ele>
        <time>2020-06-14T12:43:23Z</time>
      </trkpt>
      <trkpt lat="46.6794" lon="6.08056">
        <ele>1076.3</ele>
        <time>2020-06-14T12:43:37Z</time>
      </trkpt>
      <trkpt lat="46.67941" lon="6.08064">
        <ele>1076</ele>
        <time>2020-06-14T12:43:41Z</time>
      </trkpt>
      <trkpt lat="46.67939" lon="6.08071">
        <ele>1075.5</ele>
        <time>2020-06-14T12:43:48Z</time>
      </trkpt>
      <trkpt lat="46.67932" lon="6.08081">
        <ele>1073.5</ele>
        <time>2020-06-14T12:44:02Z</time>
      </trkpt>
      <trkpt lat="46.67928" lon="6.08084">
        <ele>1072.2</ele>
        <time>2020-06-14T12:44:08Z</time>
      </trkpt>
      <trkpt lat="46.67924" lon="6.08089">
        <ele>1071.4</ele>
        <time>2020-06-14T12:44:12Z</time>
      </trkpt>
      <trkpt lat="46.67921" lon="6.08094">
        <ele>1070.7</ele>
        <time>2020-06-14T12:44:16Z</time>
      </trkpt>
      <trkpt lat="46.67916" lon="6.08098">
        <ele>1070</ele>
        <time>2020-06-14T12:44:21Z</time>
      </trkpt>
      <trkpt lat="46.67911" lon="6.08104">
        <ele>1069.5</ele>
        <time>2020-06-14T12:44:24Z</time>
      </trkpt>
      <trkpt lat="46.67906" lon="6.08109">
        <ele>1069</ele>
        <time>2020-06-14T12:44:27Z</time>
      </trkpt>
      <trkpt lat="46.67902" lon="6.08114">
        <ele>1068.5</ele>
        <time>2020-06-14T12:44:30Z</time>
      </trkpt>
      <trkpt lat="46.67898" lon="6.08117">
        <ele>1068.2</ele>
        <time>2020-06-14T12:44:33Z</time>
      </trkpt>
      <trkpt lat="46.67894" lon="6.0812">
        <ele>1068</ele>
        <time>2020-06-14T12:44:38Z</time>
      </trkpt>
      <trkpt lat="46.67889" lon="6.08121">
        <ele>1067.8</ele>
        <time>2020-06-14T12:44:42Z</time>
      </trkpt>
      <trkpt lat="46.67885" lon="6.08126">
        <ele>1067.6</ele>
        <time>2020-06-14T12:44:46Z</time>
      </trkpt>
      <trkpt lat="46.67881" lon="6.0813">
        <ele>1067.2</ele>
        <time>2020-06-14T12:44:52Z</time>
      </trkpt>
      <trkpt lat="46.67878" lon="6.08138">
        <ele>1067</ele>
        <time>2020-06-14T12:44:55Z</time>
      </trkpt>
      <trkpt lat="46.67875" lon="6.08143">
        <ele>1066.9</ele>
        <time>2020-06-14T12:44:57Z</time>
      </trkpt>
      <trkpt lat="46.67874" lon="6.08151">
        <ele>1066.9</ele>
        <time>2020-06-14T12:45:00Z</time>
      </trkpt>
      <trkpt lat="46.67874" lon="6.08158">
        <ele>1067.2</ele>
        <time>2020-06-14T12:45:04Z</time>
      </trkpt>
      <trkpt lat="46.67874" lon="6.08166">
        <ele>1067.8</ele>
        <time>2020-06-14T12:45:08Z</time>
      </trkpt>
      <trkpt lat="46.67874" lon="6.08173">
        <ele>1068.6</ele>
        <time>2020-06-14T12:45:13Z</time>
      </trkpt>
      <trkpt lat="46.67875" lon="6.08181">
        <ele>1069.3</ele>
        <time>2020-06-14T12:45:17Z</time>
      </trkpt>
      <trkpt lat="46.67877" lon="6.08189">
        <ele>1070.1</ele>
        <time>2020-06-14T12:45:22Z</time>
      </trkpt>
      <trkpt lat="46.67879" lon="6.08196">
        <ele>1070.9</ele>
        <time>2020-06-14T12:45:27Z</time>
      </trkpt>
      <trkpt lat="46.67881" lon="6.08202">
        <ele>1071.6</ele>
        <time>2020-06-14T12:45:34Z</time>
      </trkpt>
      <trkpt lat="46.67884" lon="6.08208">
        <ele>1071.6</ele>
        <time>2020-06-14T12:45:40Z</time>
      </trkpt>
      <trkpt lat="46.67888" lon="6.08214">
        <ele>1071.4</ele>
        <time>2020-06-14T12:45:45Z</time>
      </trkpt>
      <trkpt lat="46.67892" lon="6.08218">
        <ele>1071.2</ele>
        <time>2020-06-14T12:45:48Z</time>
      </trkpt>
      <trkpt lat="46.67895" lon="6.08223">
        <ele>1070.8</ele>
        <time>2020-06-14T12:45:52Z</time>
      </trkpt>
      <trkpt lat="46.67899" lon="6.08229">
        <ele>1070.3</ele>
        <time>2020-06-14T12:45:57Z</time>
      </trkpt>
      <trkpt lat="46.67902" lon="6.08235">
        <ele>1069.7</ele>
        <time>2020-06-14T12:46:02Z</time>
      </trkpt>
      <trkpt lat="46.67904" lon="6.08241">
        <ele>1069.5</ele>
        <time>2020-06-14T12:46:06Z</time>
      </trkpt>
      <trkpt lat="46.67905" lon="6.08247">
        <ele>1069.1</ele>
        <time>2020-06-14T12:46:10Z</time>
      </trkpt>
      <trkpt lat="46.67906" lon="6.08254">
        <ele>1068.6</ele>
        <time>2020-06-14T12:46:15Z</time>
      </trkpt>
      <trkpt lat="46.67906" lon="6.08261">
        <ele>1067.8</ele>
        <time>2020-06-14T12:46:20Z</time>
      </trkpt>
      <trkpt lat="46.67906" lon="6.0827">
        <ele>1066.9</ele>
        <time>2020-06-14T12:46:24Z</time>
      </trkpt>
      <trkpt lat="46.67905" lon="6.08278">
        <ele>1065.9</ele>
        <time>2020-06-14T12:46:28Z</time>
      </trkpt>
      <trkpt lat="46.67904" lon="6.08285">
        <ele>1065</ele>
        <time>2020-06-14T12:46:32Z</time>
      </trkpt>
      <trkpt lat="46.67902" lon="6.08292">
        <ele>1064</ele>
        <time>2020-06-14T12:46:37Z</time>
      </trkpt>
      <trkpt lat="46.679" lon="6.08299">
        <ele>1063.2</ele>
        <time>2020-06-14T12:46:43Z</time>
      </trkpt>
      <trkpt lat="46.67897" lon="6.08305">
        <ele>1062.7</ele>
        <time>2020-06-14T12:46:48Z</time>
      </trkpt>
      <trkpt lat="46.67897" lon="6.08312">
        <ele>1062.4</ele>
        <time>2020-06-14T12:46:51Z</time>
      </trkpt>
      <trkpt lat="46.67896" lon="6.08319">
        <ele>1062.1</ele>
        <time>2020-06-14T12:46:55Z</time>
      </trkpt>
      <trkpt lat="46.67893" lon="6.08326">
        <ele>1061.7</ele>
        <time>2020-06-14T12:47:00Z</time>
      </trkpt>
      <trkpt lat="46.67891" lon="6.08333">
        <ele>1061.4</ele>
        <time>2020-06-14T12:47:04Z</time>
      </trkpt>
      <trkpt lat="46.67889" lon="6.0834">
        <ele>1061.2</ele>
        <time>2020-06-14T12:47:08Z</time>
      </trkpt>
      <trkpt lat="46.67888" lon="6.08346">
        <ele>1061.1</ele>
        <time>2020-06-14T12:47:13Z</time>
      </trkpt>
      <trkpt lat="46.67888" lon="6.08354">
        <ele>1060.8</ele>
        <time>2020-06-14T12:47:19Z</time>
      </trkpt>
      <trkpt lat="46.67886" lon="6.0836">
        <ele>1060.6</ele>
        <time>2020-06-14T12:47:24Z</time>
      </trkpt>
      <trkpt lat="46.67886" lon="6.08368">
        <ele>1060.2</ele>
        <time>2020-06-14T12:47:30Z</time>
      </trkpt>
      <trkpt lat="46.67886" lon="6.08376">
        <ele>1059.7</ele>
        <time>2020-06-14T12:47:35Z</time>
      </trkpt>
      <trkpt lat="46.67886" lon="6.08383">
        <ele>1059.2</ele>
        <time>2020-06-14T12:47:39Z</time>
      </trkpt>
      <trkpt lat="46.67887" lon="6.0839">
        <ele>1058.9</ele>
        <time>2020-06-14T12:47:43Z</time>
      </trkpt>
      <trkpt lat="46.67889" lon="6.08397">
        <ele>1058.5</ele>
        <time>2020-06-14T12:47:48Z</time>
      </trkpt>
      <trkpt lat="46.67889" lon="6.08404">
        <ele>1058.3</ele>
        <time>2020-06-14T12:47:51Z</time>
      </trkpt>
      <trkpt lat="46.67892" lon="6.08411">
        <ele>1057.8</ele>
        <time>2020-06-14T12:47:55Z</time>
      </trkpt>
      <trkpt lat="46.67894" lon="6.08417">
        <ele>1057</ele>
        <time>2020-06-14T12:48:02Z</time>
      </trkpt>
      <trkpt lat="46.67894" lon="6.08424">
        <ele>1056.6</ele>
        <time>2020-06-14T12:48:05Z</time>
      </trkpt>
      <trkpt lat="46.67896" lon="6.08431">
        <ele>1056.3</ele>
        <time>2020-06-14T12:48:08Z</time>
      </trkpt>
      <trkpt lat="46.67899" lon="6.08436">
        <ele>1056.1</ele>
        <time>2020-06-14T12:48:11Z</time>
      </trkpt>
      <trkpt lat="46.67901" lon="6.08443">
        <ele>1055.9</ele>
        <time>2020-06-14T12:48:15Z</time>
      </trkpt>
      <trkpt lat="46.67902" lon="6.0845">
        <ele>1055.9</ele>
        <time>2020-06-14T12:48:18Z</time>
      </trkpt>
      <trkpt lat="46.67902" lon="6.08458">
        <ele>1055.7</ele>
        <time>2020-06-14T12:48:23Z</time>
      </trkpt>
      <trkpt lat="46.67902" lon="6.08465">
        <ele>1055.6</ele>
        <time>2020-06-14T12:48:27Z</time>
      </trkpt>
      <trkpt lat="46.67902" lon="6.08471">
        <ele>1055.6</ele>
        <time>2020-06-14T12:48:33Z</time>
      </trkpt>
      <trkpt lat="46.67902" lon="6.08478">
        <ele>1055.5</ele>
        <time>2020-06-14T12:48:39Z</time>
      </trkpt>
      <trkpt lat="46.67903" lon="6.08486">
        <ele>1055.5</ele>
        <time>2020-06-14T12:48:44Z</time>
      </trkpt>
      <trkpt lat="46.67903" lon="6.08493">
        <ele>1055.4</ele>
        <time>2020-06-14T12:48:48Z</time>
      </trkpt>
      <trkpt lat="46.67904" lon="6.08499">
        <ele>1055.1</ele>
        <time>2020-06-14T12:48:52Z</time>
      </trkpt>
      <trkpt lat="46.67904" lon="6.08506">
        <ele>1054.8</ele>
        <time>2020-06-14T12:48:57Z</time>
      </trkpt>
      <trkpt lat="46.67905" lon="6.08514">
        <ele>1054.1</ele>
        <time>2020-06-14T12:49:03Z</time>
      </trkpt>
      <trkpt lat="46.67907" lon="6.08521">
        <ele>1053.1</ele>
        <time>2020-06-14T12:49:08Z</time>
      </trkpt>
      <trkpt lat="46.67907" lon="6.08529">
        <ele>1052.3</ele>
        <time>2020-06-14T12:49:13Z</time>
      </trkpt>
      <trkpt lat="46.67907" lon="6.08536">
        <ele>1051.6</ele>
        <time>2020-06-14T12:49:18Z</time>
      </trkpt>
      <trkpt lat="46.67908" lon="6.08544">
        <ele>1051</ele>
        <time>2020-06-14T12:49:23Z</time>
      </trkpt>
      <trkpt lat="46.67909" lon="6.08551">
        <ele>1050.1</ele>
        <time>2020-06-14T12:49:29Z</time>
      </trkpt>
      <trkpt lat="46.6791" lon="6.08558">
        <ele>1048.8</ele>
        <time>2020-06-14T12:49:36Z</time>
      </trkpt>
      <trkpt lat="46.67912" lon="6.08565">
        <ele>1047.9</ele>
        <time>2020-06-14T12:49:40Z</time>
      </trkpt>
      <trkpt lat="46.67913" lon="6.08572">
        <ele>1046.7</ele>
        <time>2020-06-14T12:49:45Z</time>
      </trkpt>
      <trkpt lat="46.67913" lon="6.08578">
        <ele>1044.8</ele>
        <time>2020-06-14T12:49:53Z</time>
      </trkpt>
      <trkpt lat="46.67911" lon="6.08585">
        <ele>1043.3</ele>
        <time>2020-06-14T12:50:02Z</time>
      </trkpt>
      <trkpt lat="46.67909" lon="6.08594">
        <ele>1042.6</ele>
        <time>2020-06-14T12:50:09Z</time>
      </trkpt>
      <trkpt lat="46.67908" lon="6.08601">
        <ele>1042.3</ele>
        <time>2020-06-14T12:50:12Z</time>
      </trkpt>
      <trkpt lat="46.67907" lon="6.0861">
        <ele>1042</ele>
        <time>2020-06-14T12:50:16Z</time>
      </trkpt>
      <trkpt lat="46.67906" lon="6.08618">
        <ele>1041.9</ele>
        <time>2020-06-14T12:50:20Z</time>
      </trkpt>
      <trkpt lat="46.67907" lon="6.08625">
        <ele>1041.9</ele>
        <time>2020-06-14T12:50:25Z</time>
      </trkpt>
      <trkpt lat="46.67907" lon="6.08632">
        <ele>1041.8</ele>
        <time>2020-06-14T12:50:30Z</time>
      </trkpt>
      <trkpt lat="46.67906" lon="6.0864">
        <ele>1041.6</ele>
        <time>2020-06-14T12:50:36Z</time>
      </trkpt>
      <trkpt lat="46.67906" lon="6.08649">
        <ele>1041.3</ele>
        <time>2020-06-14T12:50:39Z</time>
      </trkpt>
      <trkpt lat="46.67906" lon="6.08655">
        <ele>1041.1</ele>
        <time>2020-06-14T12:50:41Z</time>
      </trkpt>
      <trkpt lat="46.67905" lon="6.08662">
        <ele>1040.8</ele>
        <time>2020-06-14T12:50:44Z</time>
      </trkpt>
      <trkpt lat="46.67904" lon="6.08669">
        <ele>1040.4</ele>
        <time>2020-06-14T12:50:48Z</time>
      </trkpt>
      <trkpt lat="46.67903" lon="6.08676">
        <ele>1039.8</ele>
        <time>2020-06-14T12:50:53Z</time>
      </trkpt>
      <trkpt lat="46.67902" lon="6.08684">
        <ele>1039.7</ele>
        <time>2020-06-14T12:50:56Z</time>
      </trkpt>
      <trkpt lat="46.67901" lon="6.08692">
        <ele>1040</ele>
        <time>2020-06-14T12:51:00Z</time>
      </trkpt>
      <trkpt lat="46.679" lon="6.08699">
        <ele>1041</ele>
        <time>2020-06-14T12:51:04Z</time>
      </trkpt>
      <trkpt lat="46.679" lon="6.08707">
        <ele>1042.2</ele>
        <time>2020-06-14T12:51:08Z</time>
      </trkpt>
      <trkpt lat="46.67901" lon="6.08715">
        <ele>1043.4</ele>
        <time>2020-06-14T12:51:12Z</time>
      </trkpt>
      <trkpt lat="46.67904" lon="6.08722">
        <ele>1044.8</ele>
        <time>2020-06-14T12:51:18Z</time>
      </trkpt>
      <trkpt lat="46.67905" lon="6.08728">
        <ele>1045.4</ele>
        <time>2020-06-14T12:51:24Z</time>
      </trkpt>
      <trkpt lat="46.67908" lon="6.08733">
        <ele>1045.6</ele>
        <time>2020-06-14T12:51:27Z</time>
      </trkpt>
      <trkpt lat="46.67912" lon="6.08738">
        <ele>1045.8</ele>
        <time>2020-06-14T12:51:32Z</time>
      </trkpt>
      <trkpt lat="46.67913" lon="6.08745">
        <ele>1045.6</ele>
        <time>2020-06-14T12:51:38Z</time>
      </trkpt>
      <trkpt lat="46.67914" lon="6.08753">
        <ele>1045.1</ele>
        <time>2020-06-14T12:51:44Z</time>
      </trkpt>
      <trkpt lat="46.67915" lon="6.0876">
        <ele>1044.6</ele>
        <time>2020-06-14T12:51:49Z</time>
      </trkpt>
      <trkpt lat="46.67914" lon="6.08767">
        <ele>1044.1</ele>
        <time>2020-06-14T12:51:54Z</time>
      </trkpt>
      <trkpt lat="46.67915" lon="6.08775">
        <ele>1043.5</ele>
        <time>2020-06-14T12:51:59Z</time>
      </trkpt>
      <trkpt lat="46.67916" lon="6.08782">
        <ele>1042.9</ele>
        <time>2020-06-14T12:52:03Z</time>
      </trkpt>
      <trkpt lat="46.67917" lon="6.0879">
        <ele>1041.8</ele>
        <time>2020-06-14T12:52:08Z</time>
      </trkpt>
      <trkpt lat="46.67918" lon="6.08798">
        <ele>1040.4</ele>
        <time>2020-06-14T12:52:14Z</time>
      </trkpt>
      <trkpt lat="46.67919" lon="6.08805">
        <ele>1039.7</ele>
        <time>2020-06-14T12:52:18Z</time>
      </trkpt>
      <trkpt lat="46.67919" lon="6.08811">
        <ele>1039.1</ele>
        <time>2020-06-14T12:52:22Z</time>
      </trkpt>
      <trkpt lat="46.67921" lon="6.08818">
        <ele>1038.1</ele>
        <time>2020-06-14T12:52:34Z</time>
      </trkpt>
      <trkpt lat="46.67919" lon="6.08825">
        <ele>1038</ele>
        <time>2020-06-14T12:52:39Z</time>
      </trkpt>
      <trkpt lat="46.67916" lon="6.08832">
        <ele>1038</ele>
        <time>2020-06-14T12:52:44Z</time>
      </trkpt>
      <trkpt lat="46.67914" lon="6.08839">
        <ele>1037.9</ele>
        <time>2020-06-14T12:52:49Z</time>
      </trkpt>
      <trkpt lat="46.67913" lon="6.08845">
        <ele>1037.9</ele>
        <time>2020-06-14T12:52:53Z</time>
      </trkpt>
      <trkpt lat="46.6791" lon="6.08851">
        <ele>1037.8</ele>
        <time>2020-06-14T12:52:59Z</time>
      </trkpt>
      <trkpt lat="46.67906" lon="6.08855">
        <ele>1037.8</ele>
        <time>2020-06-14T12:53:04Z</time>
      </trkpt>
      <trkpt lat="46.67901" lon="6.08855">
        <ele>1037.8</ele>
        <time>2020-06-14T12:53:11Z</time>
      </trkpt>
      <trkpt lat="46.67897" lon="6.08859">
        <ele>1037.5</ele>
        <time>2020-06-14T12:53:16Z</time>
      </trkpt>
      <trkpt lat="46.67892" lon="6.08861">
        <ele>1036.4</ele>
        <time>2020-06-14T12:53:22Z</time>
      </trkpt>
      <trkpt lat="46.67887" lon="6.08862">
        <ele>1034.7</ele>
        <time>2020-06-14T12:53:28Z</time>
      </trkpt>
      <trkpt lat="46.67883" lon="6.08865">
        <ele>1033.1</ele>
        <time>2020-06-14T12:53:33Z</time>
      </trkpt>
      <trkpt lat="46.67879" lon="6.0887">
        <ele>1031.5</ele>
        <time>2020-06-14T12:53:38Z</time>
      </trkpt>
      <trkpt lat="46.67876" lon="6.08876">
        <ele>1029.9</ele>
        <time>2020-06-14T12:53:42Z</time>
      </trkpt>
      <trkpt lat="46.67874" lon="6.08882">
        <ele>1029</ele>
        <time>2020-06-14T12:53:44Z</time>
      </trkpt>
      <trkpt lat="46.67871" lon="6.08888">
        <ele>1028</ele>
        <time>2020-06-14T12:53:46Z</time>
      </trkpt>
      <trkpt lat="46.67868" lon="6.08893">
        <ele>1026.6</ele>
        <time>2020-06-14T12:53:49Z</time>
      </trkpt>
      <trkpt lat="46.67866" lon="6.08899">
        <ele>1024</ele>
        <time>2020-06-14T12:53:56Z</time>
      </trkpt>
      <trkpt lat="46.67864" lon="6.08906">
        <ele>1022.9</ele>
        <time>2020-06-14T12:54:01Z</time>
      </trkpt>
      <trkpt lat="46.67862" lon="6.08913">
        <ele>1022.3</ele>
        <time>2020-06-14T12:54:04Z</time>
      </trkpt>
      <trkpt lat="46.67859" lon="6.0892">
        <ele>1020.7</ele>
        <time>2020-06-14T12:54:12Z</time>
      </trkpt>
      <trkpt lat="46.67857" lon="6.08926">
        <ele>1020.3</ele>
        <time>2020-06-14T12:54:14Z</time>
      </trkpt>
      <trkpt lat="46.67854" lon="6.08931">
        <ele>1020</ele>
        <time>2020-06-14T12:54:16Z</time>
      </trkpt>
      <trkpt lat="46.67847" lon="6.08943">
        <ele>1018.7</ele>
        <time>2020-06-14T12:54:28Z</time>
      </trkpt>
      <trkpt lat="46.67843" lon="6.08948">
        <ele>1018.1</ele>
        <time>2020-06-14T12:54:31Z</time>
      </trkpt>
      <trkpt lat="46.67838" lon="6.08955">
        <ele>1017.6</ele>
        <time>2020-06-14T12:54:33Z</time>
      </trkpt>
      <trkpt lat="46.67835" lon="6.08961">
        <ele>1017.2</ele>
        <time>2020-06-14T12:54:35Z</time>
      </trkpt>
      <trkpt lat="46.67831" lon="6.08966">
        <ele>1016.7</ele>
        <time>2020-06-14T12:54:39Z</time>
      </trkpt>
      <trkpt lat="46.67828" lon="6.08972">
        <ele>1016.5</ele>
        <time>2020-06-14T12:54:44Z</time>
      </trkpt>
      <trkpt lat="46.67825" lon="6.08977">
        <ele>1017.1</ele>
        <time>2020-06-14T12:54:54Z</time>
      </trkpt>
      <trkpt lat="46.6782" lon="6.08983">
        <ele>1017.7</ele>
        <time>2020-06-14T12:54:57Z</time>
      </trkpt>
      <trkpt lat="46.67808" lon="6.08996">
        <ele>1020.9</ele>
        <time>2020-06-14T12:55:05Z</time>
      </trkpt>
      <trkpt lat="46.67804" lon="6.09">
        <ele>1021.3</ele>
        <time>2020-06-14T12:55:07Z</time>
      </trkpt>
      <trkpt lat="46.67794" lon="6.09008">
        <ele>1024.2</ele>
        <time>2020-06-14T12:55:18Z</time>
      </trkpt>
      <trkpt lat="46.67791" lon="6.09013">
        <ele>1025.8</ele>
        <time>2020-06-14T12:55:26Z</time>
      </trkpt>
      <trkpt lat="46.67782" lon="6.09025">
        <ele>1026.3</ele>
        <time>2020-06-14T12:55:38Z</time>
      </trkpt>
      <trkpt lat="46.67779" lon="6.09034">
        <ele>1025.9</ele>
        <time>2020-06-14T12:55:42Z</time>
      </trkpt>
      <trkpt lat="46.67775" lon="6.09039">
        <ele>1024.9</ele>
        <time>2020-06-14T12:55:47Z</time>
      </trkpt>
      <trkpt lat="46.67771" lon="6.09044">
        <ele>1024</ele>
        <time>2020-06-14T12:55:51Z</time>
      </trkpt>
      <trkpt lat="46.67768" lon="6.09051">
        <ele>1022.9</ele>
        <time>2020-06-14T12:55:57Z</time>
      </trkpt>
      <trkpt lat="46.67762" lon="6.09055">
        <ele>1022.8</ele>
        <time>2020-06-14T12:56:03Z</time>
      </trkpt>
      <trkpt lat="46.67758" lon="6.09058">
        <ele>1023.2</ele>
        <time>2020-06-14T12:56:06Z</time>
      </trkpt>
      <trkpt lat="46.67753" lon="6.09061">
        <ele>1023.8</ele>
        <time>2020-06-14T12:56:09Z</time>
      </trkpt>
      <trkpt lat="46.67751" lon="6.09067">
        <ele>1024.7</ele>
        <time>2020-06-14T12:56:14Z</time>
      </trkpt>
      <trkpt lat="46.67749" lon="6.09073">
        <ele>1025.4</ele>
        <time>2020-06-14T12:56:21Z</time>
      </trkpt>
      <trkpt lat="46.67745" lon="6.09078">
        <ele>1025.5</ele>
        <time>2020-06-14T12:56:26Z</time>
      </trkpt>
      <trkpt lat="46.67743" lon="6.09084">
        <ele>1025.3</ele>
        <time>2020-06-14T12:56:30Z</time>
      </trkpt>
      <trkpt lat="46.67739" lon="6.09089">
        <ele>1025</ele>
        <time>2020-06-14T12:56:35Z</time>
      </trkpt>
      <trkpt lat="46.67736" lon="6.09094">
        <ele>1024.7</ele>
        <time>2020-06-14T12:56:40Z</time>
      </trkpt>
      <trkpt lat="46.67732" lon="6.09099">
        <ele>1024.4</ele>
        <time>2020-06-14T12:56:45Z</time>
      </trkpt>
      <trkpt lat="46.67729" lon="6.09104">
        <ele>1024</ele>
        <time>2020-06-14T12:56:49Z</time>
      </trkpt>
      <trkpt lat="46.67725" lon="6.0911">
        <ele>1023.4</ele>
        <time>2020-06-14T12:56:54Z</time>
      </trkpt>
      <trkpt lat="46.67721" lon="6.09115">
        <ele>1023.1</ele>
        <time>2020-06-14T12:56:57Z</time>
      </trkpt>
      <trkpt lat="46.67709" lon="6.09128">
        <ele>1022.4</ele>
        <time>2020-06-14T12:57:08Z</time>
      </trkpt>
      <trkpt lat="46.67705" lon="6.09132">
        <ele>1022.2</ele>
        <time>2020-06-14T12:57:14Z</time>
      </trkpt>
      <trkpt lat="46.67701" lon="6.09133">
        <ele>1021.5</ele>
        <time>2020-06-14T12:57:37Z</time>
      </trkpt>
      <trkpt lat="46.67696" lon="6.0913">
        <ele>1020.9</ele>
        <time>2020-06-14T12:57:43Z</time>
      </trkpt>
      <trkpt lat="46.67692" lon="6.09126">
        <ele>1020.4</ele>
        <time>2020-06-14T12:57:48Z</time>
      </trkpt>
      <trkpt lat="46.67689" lon="6.09121">
        <ele>1019.8</ele>
        <time>2020-06-14T12:57:52Z</time>
      </trkpt>
      <trkpt lat="46.67686" lon="6.09115">
        <ele>1019.4</ele>
        <time>2020-06-14T12:57:57Z</time>
      </trkpt>
      <trkpt lat="46.67683" lon="6.09109">
        <ele>1019.4</ele>
        <time>2020-06-14T12:58:02Z</time>
      </trkpt>
      <trkpt lat="46.67681" lon="6.09103">
        <ele>1019.6</ele>
        <time>2020-06-14T12:58:06Z</time>
      </trkpt>
      <trkpt lat="46.67678" lon="6.09098">
        <ele>1019.8</ele>
        <time>2020-06-14T12:58:09Z</time>
      </trkpt>
      <trkpt lat="46.67676" lon="6.09092">
        <ele>1020</ele>
        <time>2020-06-14T12:58:13Z</time>
      </trkpt>
      <trkpt lat="46.67673" lon="6.09086">
        <ele>1020</ele>
        <time>2020-06-14T12:58:17Z</time>
      </trkpt>
      <trkpt lat="46.6767" lon="6.0908">
        <ele>1019.8</ele>
        <time>2020-06-14T12:58:21Z</time>
      </trkpt>
      <trkpt lat="46.67667" lon="6.09074">
        <ele>1019.3</ele>
        <time>2020-06-14T12:58:26Z</time>
      </trkpt>
      <trkpt lat="46.67664" lon="6.09068">
        <ele>1018.9</ele>
        <time>2020-06-14T12:58:32Z</time>
      </trkpt>
      <trkpt lat="46.6766" lon="6.09064">
        <ele>1018.8</ele>
        <time>2020-06-14T12:58:37Z</time>
      </trkpt>
      <trkpt lat="46.67657" lon="6.09059">
        <ele>1018.9</ele>
        <time>2020-06-14T12:58:42Z</time>
      </trkpt>
      <trkpt lat="46.67653" lon="6.09054">
        <ele>1019.1</ele>
        <time>2020-06-14T12:58:46Z</time>
      </trkpt>
      <trkpt lat="46.6765" lon="6.0905">
        <ele>1019.2</ele>
        <time>2020-06-14T12:58:49Z</time>
      </trkpt>
      <trkpt lat="46.67646" lon="6.09045">
        <ele>1019.4</ele>
        <time>2020-06-14T12:58:55Z</time>
      </trkpt>
      <trkpt lat="46.67642" lon="6.0904">
        <ele>1019.5</ele>
        <time>2020-06-14T12:58:58Z</time>
      </trkpt>
      <trkpt lat="46.67638" lon="6.09036">
        <ele>1019.8</ele>
        <time>2020-06-14T12:59:01Z</time>
      </trkpt>
      <trkpt lat="46.67634" lon="6.09031">
        <ele>1020.3</ele>
        <time>2020-06-14T12:59:06Z</time>
      </trkpt>
      <trkpt lat="46.67631" lon="6.09026">
        <ele>1021.8</ele>
        <time>2020-06-14T12:59:17Z</time>
      </trkpt>
      <trkpt lat="46.67626" lon="6.09021">
        <ele>1022.8</ele>
        <time>2020-06-14T12:59:23Z</time>
      </trkpt>
      <trkpt lat="46.67622" lon="6.09016">
        <ele>1023.4</ele>
        <time>2020-06-14T12:59:27Z</time>
      </trkpt>
      <trkpt lat="46.67619" lon="6.09009">
        <ele>1023.8</ele>
        <time>2020-06-14T12:59:31Z</time>
      </trkpt>
      <trkpt lat="46.67616" lon="6.09004">
        <ele>1024</ele>
        <time>2020-06-14T12:59:36Z</time>
      </trkpt>
      <trkpt lat="46.67614" lon="6.08997">
        <ele>1023.6</ele>
        <time>2020-06-14T12:59:43Z</time>
      </trkpt>
      <trkpt lat="46.67611" lon="6.0899">
        <ele>1021.4</ele>
        <time>2020-06-14T12:59:54Z</time>
      </trkpt>
      <trkpt lat="46.67607" lon="6.08986">
        <ele>1020.6</ele>
        <time>2020-06-14T12:59:57Z</time>
      </trkpt>
      <trkpt lat="46.67603" lon="6.08982">
        <ele>1019.1</ele>
        <time>2020-06-14T13:00:02Z</time>
      </trkpt>
      <trkpt lat="46.67601" lon="6.08976">
        <ele>1017.8</ele>
        <time>2020-06-14T13:00:06Z</time>
      </trkpt>
      <trkpt lat="46.67598" lon="6.08971">
        <ele>1016.8</ele>
        <time>2020-06-14T13:00:09Z</time>
      </trkpt>
      <trkpt lat="46.67596" lon="6.08964">
        <ele>1015.2</ele>
        <time>2020-06-14T13:00:14Z</time>
      </trkpt>
      <trkpt lat="46.67594" lon="6.08959">
        <ele>1013.9</ele>
        <time>2020-06-14T13:00:18Z</time>
      </trkpt>
      <trkpt lat="46.67592" lon="6.08953">
        <ele>1012.8</ele>
        <time>2020-06-14T13:00:22Z</time>
      </trkpt>
      <trkpt lat="46.67591" lon="6.08946">
        <ele>1011.7</ele>
        <time>2020-06-14T13:00:26Z</time>
      </trkpt>
      <trkpt lat="46.67588" lon="6.08939">
        <ele>1010.2</ele>
        <time>2020-06-14T13:00:32Z</time>
      </trkpt>
      <trkpt lat="46.67586" lon="6.08933">
        <ele>1008.9</ele>
        <time>2020-06-14T13:00:37Z</time>
      </trkpt>
      <trkpt lat="46.67586" lon="6.08926">
        <ele>1007.8</ele>
        <time>2020-06-14T13:00:42Z</time>
      </trkpt>
      <trkpt lat="46.67582" lon="6.0892">
        <ele>1007.2</ele>
        <time>2020-06-14T13:00:45Z</time>
      </trkpt>
      <trkpt lat="46.67578" lon="6.08915">
        <ele>1006.9</ele>
        <time>2020-06-14T13:00:48Z</time>
      </trkpt>
      <trkpt lat="46.67576" lon="6.08909">
        <ele>1006.7</ele>
        <time>2020-06-14T13:00:53Z</time>
      </trkpt>
      <trkpt lat="46.67575" lon="6.08903">
        <ele>1006.7</ele>
        <time>2020-06-14T13:00:58Z</time>
      </trkpt>
      <trkpt lat="46.67574" lon="6.08896">
        <ele>1006.7</ele>
        <time>2020-06-14T13:01:03Z</time>
      </trkpt>
      <trkpt lat="46.67575" lon="6.0889">
        <ele>1006.5</ele>
        <time>2020-06-14T13:01:08Z</time>
      </trkpt>
      <trkpt lat="46.67574" lon="6.08882">
        <ele>1006.4</ele>
        <time>2020-06-14T13:01:14Z</time>
      </trkpt>
      <trkpt lat="46.67573" lon="6.08875">
        <ele>1006.2</ele>
        <time>2020-06-14T13:01:20Z</time>
      </trkpt>
      <trkpt lat="46.67572" lon="6.08868">
        <ele>1006.2</ele>
        <time>2020-06-14T13:01:25Z</time>
      </trkpt>
      <trkpt lat="46.67572" lon="6.08861">
        <ele>1006.2</ele>
        <time>2020-06-14T13:01:31Z</time>
      </trkpt>
      <trkpt lat="46.67571" lon="6.08855">
        <ele>1007</ele>
        <time>2020-06-14T13:01:45Z</time>
      </trkpt>
      <trkpt lat="46.67569" lon="6.08848">
        <ele>1008.1</ele>
        <time>2020-06-14T13:01:50Z</time>
      </trkpt>
      <trkpt lat="46.67569" lon="6.08842">
        <ele>1008.8</ele>
        <time>2020-06-14T13:01:53Z</time>
      </trkpt>
      <trkpt lat="46.67569" lon="6.08835">
        <ele>1010.5</ele>
        <time>2020-06-14T13:01:58Z</time>
      </trkpt>
      <trkpt lat="46.67568" lon="6.08828">
        <ele>1012.2</ele>
        <time>2020-06-14T13:02:03Z</time>
      </trkpt>
      <trkpt lat="46.67565" lon="6.08823">
        <ele>1014.6</ele>
        <time>2020-06-14T13:02:13Z</time>
      </trkpt>
      <trkpt lat="46.67564" lon="6.08814">
        <ele>1015.1</ele>
        <time>2020-06-14T13:02:17Z</time>
      </trkpt>
      <trkpt lat="46.67561" lon="6.08808">
        <ele>1015.6</ele>
        <time>2020-06-14T13:02:22Z</time>
      </trkpt>
      <trkpt lat="46.67559" lon="6.08802">
        <ele>1016.1</ele>
        <time>2020-06-14T13:02:27Z</time>
      </trkpt>
      <trkpt lat="46.67558" lon="6.08795">
        <ele>1016.5</ele>
        <time>2020-06-14T13:02:31Z</time>
      </trkpt>
      <trkpt lat="46.67558" lon="6.08787">
        <ele>1017.3</ele>
        <time>2020-06-14T13:02:41Z</time>
      </trkpt>
      <trkpt lat="46.67559" lon="6.0878">
        <ele>1017.9</ele>
        <time>2020-06-14T13:02:46Z</time>
      </trkpt>
      <trkpt lat="46.67561" lon="6.08773">
        <ele>1018.4</ele>
        <time>2020-06-14T13:02:50Z</time>
      </trkpt>
      <trkpt lat="46.67562" lon="6.08765">
        <ele>1018.8</ele>
        <time>2020-06-14T13:02:54Z</time>
      </trkpt>
      <trkpt lat="46.67564" lon="6.08758">
        <ele>1018.9</ele>
        <time>2020-06-14T13:02:58Z</time>
      </trkpt>
      <trkpt lat="46.67567" lon="6.08753">
        <ele>1019</ele>
        <time>2020-06-14T13:03:01Z</time>
      </trkpt>
      <trkpt lat="46.67569" lon="6.08747">
        <ele>1018.9</ele>
        <time>2020-06-14T13:03:05Z</time>
      </trkpt>
      <trkpt lat="46.67569" lon="6.0874">
        <ele>1018.7</ele>
        <time>2020-06-14T13:03:08Z</time>
      </trkpt>
      <trkpt lat="46.67568" lon="6.08732">
        <ele>1018.3</ele>
        <time>2020-06-14T13:03:12Z</time>
      </trkpt>
      <trkpt lat="46.67567" lon="6.08724">
        <ele>1017.4</ele>
        <time>2020-06-14T13:03:18Z</time>
      </trkpt>
      <trkpt lat="46.67564" lon="6.08718">
        <ele>1016.6</ele>
        <time>2020-06-14T13:03:23Z</time>
      </trkpt>
      <trkpt lat="46.67562" lon="6.08711">
        <ele>1015.5</ele>
        <time>2020-06-14T13:03:29Z</time>
      </trkpt>
      <trkpt lat="46.6756" lon="6.08705">
        <ele>1014.7</ele>
        <time>2020-06-14T13:03:36Z</time>
      </trkpt>
      <trkpt lat="46.67558" lon="6.08698">
        <ele>1014.5</ele>
        <time>2020-06-14T13:03:39Z</time>
      </trkpt>
      <trkpt lat="46.67557" lon="6.08691">
        <ele>1014.1</ele>
        <time>2020-06-14T13:03:44Z</time>
      </trkpt>
      <trkpt lat="46.67555" lon="6.08685">
        <ele>1013.8</ele>
        <time>2020-06-14T13:03:48Z</time>
      </trkpt>
      <trkpt lat="46.67552" lon="6.08678">
        <ele>1013.9</ele>
        <time>2020-06-14T13:03:52Z</time>
      </trkpt>
      <trkpt lat="46.67552" lon="6.08671">
        <ele>1014.3</ele>
        <time>2020-06-14T13:03:59Z</time>
      </trkpt>
      <trkpt lat="46.6755" lon="6.08665">
        <ele>1014.9</ele>
        <time>2020-06-14T13:04:06Z</time>
      </trkpt>
      <trkpt lat="46.67548" lon="6.08658">
        <ele>1015.5</ele>
        <time>2020-06-14T13:04:11Z</time>
      </trkpt>
      <trkpt lat="46.67547" lon="6.08651">
        <ele>1016.3</ele>
        <time>2020-06-14T13:04:16Z</time>
      </trkpt>
      <trkpt lat="46.67547" lon="6.08644">
        <ele>1017.3</ele>
        <time>2020-06-14T13:04:21Z</time>
      </trkpt>
      <trkpt lat="46.67545" lon="6.08636">
        <ele>1018.4</ele>
        <time>2020-06-14T13:04:27Z</time>
      </trkpt>
      <trkpt lat="46.67544" lon="6.08629">
        <ele>1019.1</ele>
        <time>2020-06-14T13:04:31Z</time>
      </trkpt>
      <trkpt lat="46.67541" lon="6.08623">
        <ele>1019.5</ele>
        <time>2020-06-14T13:04:34Z</time>
      </trkpt>
      <trkpt lat="46.67539" lon="6.08617">
        <ele>1020.2</ele>
        <time>2020-06-14T13:04:39Z</time>
      </trkpt>
      <trkpt lat="46.67536" lon="6.08611">
        <ele>1021</ele>
        <time>2020-06-14T13:04:44Z</time>
      </trkpt>
      <trkpt lat="46.67533" lon="6.08606">
        <ele>1021.8</ele>
        <time>2020-06-14T13:04:50Z</time>
      </trkpt>
      <trkpt lat="46.67528" lon="6.08602">
        <ele>1022.2</ele>
        <time>2020-06-14T13:04:56Z</time>
      </trkpt>
      <trkpt lat="46.67524" lon="6.08597">
        <ele>1022</ele>
        <time>2020-06-14T13:05:03Z</time>
      </trkpt>
      <trkpt lat="46.6752" lon="6.08592">
        <ele>1021.4</ele>
        <time>2020-06-14T13:05:08Z</time>
      </trkpt>
      <trkpt lat="46.67517" lon="6.08586">
        <ele>1020.7</ele>
        <time>2020-06-14T13:05:13Z</time>
      </trkpt>
      <trkpt lat="46.67514" lon="6.0858">
        <ele>1019.6</ele>
        <time>2020-06-14T13:05:19Z</time>
      </trkpt>
      <trkpt lat="46.67511" lon="6.08574">
        <ele>1018.8</ele>
        <time>2020-06-14T13:05:24Z</time>
      </trkpt>
      <trkpt lat="46.67507" lon="6.08569">
        <ele>1018.4</ele>
        <time>2020-06-14T13:05:28Z</time>
      </trkpt>
      <trkpt lat="46.67504" lon="6.08562">
        <ele>1018</ele>
        <time>2020-06-14T13:05:32Z</time>
      </trkpt>
      <trkpt lat="46.67499" lon="6.08558">
        <ele>1017.6</ele>
        <time>2020-06-14T13:05:37Z</time>
      </trkpt>
      <trkpt lat="46.67495" lon="6.08553">
        <ele>1017.1</ele>
        <time>2020-06-14T13:05:44Z</time>
      </trkpt>
      <trkpt lat="46.67492" lon="6.08548">
        <ele>1017.1</ele>
        <time>2020-06-14T13:05:47Z</time>
      </trkpt>
      <trkpt lat="46.67487" lon="6.08545">
        <ele>1017.8</ele>
        <time>2020-06-14T13:05:53Z</time>
      </trkpt>
      <trkpt lat="46.67483" lon="6.08543">
        <ele>1018.6</ele>
        <time>2020-06-14T13:05:57Z</time>
      </trkpt>
      <trkpt lat="46.67478" lon="6.0854">
        <ele>1019.5</ele>
        <time>2020-06-14T13:06:01Z</time>
      </trkpt>
      <trkpt lat="46.67474" lon="6.08535">
        <ele>1021</ele>
        <time>2020-06-14T13:06:07Z</time>
      </trkpt>
      <trkpt lat="46.6747" lon="6.0853">
        <ele>1022</ele>
        <time>2020-06-14T13:06:11Z</time>
      </trkpt>
      <trkpt lat="46.67466" lon="6.08525">
        <ele>1022.9</ele>
        <time>2020-06-14T13:06:14Z</time>
      </trkpt>
      <trkpt lat="46.67462" lon="6.08519">
        <ele>1023.7</ele>
        <time>2020-06-14T13:06:17Z</time>
      </trkpt>
      <trkpt lat="46.67458" lon="6.08514">
        <ele>1025</ele>
        <time>2020-06-14T13:06:24Z</time>
      </trkpt>
      <trkpt lat="46.67454" lon="6.08511">
        <ele>1025.4</ele>
        <time>2020-06-14T13:06:29Z</time>
      </trkpt>
      <trkpt lat="46.6745" lon="6.0851">
        <ele>1025.8</ele>
        <time>2020-06-14T13:06:32Z</time>
      </trkpt>
      <trkpt lat="46.67445" lon="6.08505">
        <ele>1026.1</ele>
        <time>2020-06-14T13:06:35Z</time>
      </trkpt>
      <trkpt lat="46.67442" lon="6.085">
        <ele>1026.7</ele>
        <time>2020-06-14T13:06:39Z</time>
      </trkpt>
      <trkpt lat="46.67436" lon="6.08492">
        <ele>1030.6</ele>
        <time>2020-06-14T13:06:55Z</time>
      </trkpt>
      <trkpt lat="46.67433" lon="6.08486">
        <ele>1032</ele>
        <time>2020-06-14T13:07:02Z</time>
      </trkpt>
      <trkpt lat="46.67429" lon="6.0848">
        <ele>1033.7</ele>
        <time>2020-06-14T13:07:20Z</time>
      </trkpt>
      <trkpt lat="46.67427" lon="6.08473">
        <ele>1033.9</ele>
        <time>2020-06-14T13:07:25Z</time>
      </trkpt>
      <trkpt lat="46.67425" lon="6.08467">
        <ele>1034.2</ele>
        <time>2020-06-14T13:07:30Z</time>
      </trkpt>
      <trkpt lat="46.67422" lon="6.0846">
        <ele>1034.5</ele>
        <time>2020-06-14T13:07:33Z</time>
      </trkpt>
      <trkpt lat="46.67419" lon="6.08454">
        <ele>1034.9</ele>
        <time>2020-06-14T13:07:38Z</time>
      </trkpt>
      <trkpt lat="46.67417" lon="6.08448">
        <ele>1035.9</ele>
        <time>2020-06-14T13:07:44Z</time>
      </trkpt>
      <trkpt lat="46.67415" lon="6.08441">
        <ele>1037.8</ele>
        <time>2020-06-14T13:07:56Z</time>
      </trkpt>
      <trkpt lat="46.67413" lon="6.08435">
        <ele>1038.3</ele>
        <time>2020-06-14T13:08:02Z</time>
      </trkpt>
      <trkpt lat="46.6741" lon="6.0843">
        <ele>1038.3</ele>
        <time>2020-06-14T13:08:08Z</time>
      </trkpt>
      <trkpt lat="46.67407" lon="6.08423">
        <ele>1037.8</ele>
        <time>2020-06-14T13:08:15Z</time>
      </trkpt>
      <trkpt lat="46.67405" lon="6.08417">
        <ele>1037.4</ele>
        <time>2020-06-14T13:08:18Z</time>
      </trkpt>
      <trkpt lat="46.67403" lon="6.0841">
        <ele>1036.5</ele>
        <time>2020-06-14T13:08:22Z</time>
      </trkpt>
      <trkpt lat="46.67401" lon="6.08403">
        <ele>1035.6</ele>
        <time>2020-06-14T13:08:26Z</time>
      </trkpt>
      <trkpt lat="46.67398" lon="6.08397">
        <ele>1034.2</ele>
        <time>2020-06-14T13:08:31Z</time>
      </trkpt>
      <trkpt lat="46.67396" lon="6.08392">
        <ele>1033</ele>
        <time>2020-06-14T13:08:36Z</time>
      </trkpt>
      <trkpt lat="46.67393" lon="6.08386">
        <ele>1030.4</ele>
        <time>2020-06-14T13:08:47Z</time>
      </trkpt>
      <trkpt lat="46.67388" lon="6.08382">
        <ele>1026.2</ele>
        <time>2020-06-14T13:09:09Z</time>
      </trkpt>
      <trkpt lat="46.67384" lon="6.08381">
        <ele>1026.1</ele>
        <time>2020-06-14T13:09:12Z</time>
      </trkpt>
      <trkpt lat="46.67379" lon="6.08378">
        <ele>1026.1</ele>
        <time>2020-06-14T13:09:14Z</time>
      </trkpt>
      <trkpt lat="46.67375" lon="6.08375">
        <ele>1026.2</ele>
        <time>2020-06-14T13:09:16Z</time>
      </trkpt>
      <trkpt lat="46.67371" lon="6.08371">
        <ele>1026.4</ele>
        <time>2020-06-14T13:09:20Z</time>
      </trkpt>
      <trkpt lat="46.67366" lon="6.08368">
        <ele>1026.8</ele>
        <time>2020-06-14T13:09:24Z</time>
      </trkpt>
      <trkpt lat="46.67361" lon="6.08365">
        <ele>1027.3</ele>
        <time>2020-06-14T13:09:28Z</time>
      </trkpt>
      <trkpt lat="46.67357" lon="6.08363">
        <ele>1027.8</ele>
        <time>2020-06-14T13:09:31Z</time>
      </trkpt>
      <trkpt lat="46.67352" lon="6.08359">
        <ele>1028.5</ele>
        <time>2020-06-14T13:09:34Z</time>
      </trkpt>
      <trkpt lat="46.67347" lon="6.08355">
        <ele>1029.7</ele>
        <time>2020-06-14T13:09:39Z</time>
      </trkpt>
      <trkpt lat="46.67343" lon="6.08351">
        <ele>1030.5</ele>
        <time>2020-06-14T13:09:43Z</time>
      </trkpt>
      <trkpt lat="46.67341" lon="6.08345">
        <ele>1031.3</ele>
        <time>2020-06-14T13:09:48Z</time>
      </trkpt>
      <trkpt lat="46.67338" lon="6.08339">
        <ele>1032</ele>
        <time>2020-06-14T13:09:54Z</time>
      </trkpt>
      <trkpt lat="46.67335" lon="6.08334">
        <ele>1032.3</ele>
        <time>2020-06-14T13:09:59Z</time>
      </trkpt>
      <trkpt lat="46.67332" lon="6.08329">
        <ele>1032.1</ele>
        <time>2020-06-14T13:10:05Z</time>
      </trkpt>
      <trkpt lat="46.67331" lon="6.08322">
        <ele>1031.7</ele>
        <time>2020-06-14T13:10:10Z</time>
      </trkpt>
      <trkpt lat="46.67329" lon="6.08314">
        <ele>1031.1</ele>
        <time>2020-06-14T13:10:16Z</time>
      </trkpt>
      <trkpt lat="46.67329" lon="6.08307">
        <ele>1030.5</ele>
        <time>2020-06-14T13:10:22Z</time>
      </trkpt>
      <trkpt lat="46.67327" lon="6.083">
        <ele>1029.6</ele>
        <time>2020-06-14T13:10:29Z</time>
      </trkpt>
      <trkpt lat="46.67325" lon="6.08294">
        <ele>1028.9</ele>
        <time>2020-06-14T13:10:34Z</time>
      </trkpt>
      <trkpt lat="46.67324" lon="6.08287">
        <ele>1028.3</ele>
        <time>2020-06-14T13:10:38Z</time>
      </trkpt>
      <trkpt lat="46.67323" lon="6.0828">
        <ele>1027.9</ele>
        <time>2020-06-14T13:10:42Z</time>
      </trkpt>
      <trkpt lat="46.67324" lon="6.08273">
        <ele>1027.7</ele>
        <time>2020-06-14T13:10:45Z</time>
      </trkpt>
      <trkpt lat="46.67325" lon="6.08266">
        <ele>1027.7</ele>
        <time>2020-06-14T13:10:50Z</time>
      </trkpt>
      <trkpt lat="46.67327" lon="6.08259">
        <ele>1028.1</ele>
        <time>2020-06-14T13:10:56Z</time>
      </trkpt>
      <trkpt lat="46.67331" lon="6.08254">
        <ele>1028.6</ele>
        <time>2020-06-14T13:11:01Z</time>
      </trkpt>
      <trkpt lat="46.67331" lon="6.08247">
        <ele>1029.3</ele>
        <time>2020-06-14T13:11:06Z</time>
      </trkpt>
      <trkpt lat="46.67331" lon="6.08239">
        <ele>1029.8</ele>
        <time>2020-06-14T13:11:10Z</time>
      </trkpt>
      <trkpt lat="46.6733" lon="6.08231">
        <ele>1030.3</ele>
        <time>2020-06-14T13:11:15Z</time>
      </trkpt>
      <trkpt lat="46.67329" lon="6.08222">
        <ele>1030.5</ele>
        <time>2020-06-14T13:11:19Z</time>
      </trkpt>
      <trkpt lat="46.67328" lon="6.08214">
        <ele>1030.4</ele>
        <time>2020-06-14T13:11:24Z</time>
      </trkpt>
      <trkpt lat="46.67327" lon="6.08207">
        <ele>1030.3</ele>
        <time>2020-06-14T13:11:29Z</time>
      </trkpt>
      <trkpt lat="46.67327" lon="6.08201">
        <ele>1030.3</ele>
        <time>2020-06-14T13:11:32Z</time>
      </trkpt>
      <trkpt lat="46.67325" lon="6.08195">
        <ele>1030.2</ele>
        <time>2020-06-14T13:11:35Z</time>
      </trkpt>
      <trkpt lat="46.67322" lon="6.08189">
        <ele>1030.1</ele>
        <time>2020-06-14T13:11:38Z</time>
      </trkpt>
      <trkpt lat="46.67319" lon="6.08183">
        <ele>1030</ele>
        <time>2020-06-14T13:11:40Z</time>
      </trkpt>
      <trkpt lat="46.67317" lon="6.08177">
        <ele>1029.8</ele>
        <time>2020-06-14T13:11:44Z</time>
      </trkpt>
      <trkpt lat="46.67318" lon="6.08183">
        <ele>1028.6</ele>
        <time>2020-06-14T13:12:19Z</time>
      </trkpt>
      <trkpt lat="46.67322" lon="6.08181">
        <ele>1030.7</ele>
        <time>2020-06-14T13:12:34Z</time>
      </trkpt>
      <trkpt lat="46.67318" lon="6.08183">
        <ele>1031.4</ele>
        <time>2020-06-14T13:13:19Z</time>
      </trkpt>
      <trkpt lat="46.67318" lon="6.08177">
        <ele>1029.5</ele>
        <time>2020-06-14T13:13:48Z</time>
      </trkpt>
      <trkpt lat="46.67321" lon="6.08171">
        <ele>1029.5</ele>
        <time>2020-06-14T13:13:51Z</time>
      </trkpt>
      <trkpt lat="46.67324" lon="6.08164">
        <ele>1029.7</ele>
        <time>2020-06-14T13:13:55Z</time>
      </trkpt>
      <trkpt lat="46.67324" lon="6.08157">
        <ele>1030.1</ele>
        <time>2020-06-14T13:14:01Z</time>
      </trkpt>
      <trkpt lat="46.67326" lon="6.0815">
        <ele>1030.7</ele>
        <time>2020-06-14T13:14:07Z</time>
      </trkpt>
      <trkpt lat="46.67327" lon="6.08143">
        <ele>1030.8</ele>
        <time>2020-06-14T13:14:15Z</time>
      </trkpt>
      <trkpt lat="46.67329" lon="6.08137">
        <ele>1030.9</ele>
        <time>2020-06-14T13:14:26Z</time>
      </trkpt>
      <trkpt lat="46.6733" lon="6.0813">
        <ele>1031.4</ele>
        <time>2020-06-14T13:14:31Z</time>
      </trkpt>
      <trkpt lat="46.67327" lon="6.08124">
        <ele>1032</ele>
        <time>2020-06-14T13:14:36Z</time>
      </trkpt>
      <trkpt lat="46.67325" lon="6.08117">
        <ele>1032.8</ele>
        <time>2020-06-14T13:14:43Z</time>
      </trkpt>
      <trkpt lat="46.67323" lon="6.08111">
        <ele>1033.4</ele>
        <time>2020-06-14T13:14:48Z</time>
      </trkpt>
      <trkpt lat="46.67319" lon="6.08106">
        <ele>1033.9</ele>
        <time>2020-06-14T13:14:54Z</time>
      </trkpt>
      <trkpt lat="46.67316" lon="6.08101">
        <ele>1034.2</ele>
        <time>2020-06-14T13:14:59Z</time>
      </trkpt>
      <trkpt lat="46.67312" lon="6.08096">
        <ele>1033.9</ele>
        <time>2020-06-14T13:15:04Z</time>
      </trkpt>
      <trkpt lat="46.67308" lon="6.08091">
        <ele>1033.4</ele>
        <time>2020-06-14T13:15:08Z</time>
      </trkpt>
      <trkpt lat="46.67307" lon="6.08084">
        <ele>1033</ele>
        <time>2020-06-14T13:15:11Z</time>
      </trkpt>
      <trkpt lat="46.67305" lon="6.08077">
        <ele>1032.8</ele>
        <time>2020-06-14T13:15:14Z</time>
      </trkpt>
      <trkpt lat="46.67304" lon="6.0807">
        <ele>1032.6</ele>
        <time>2020-06-14T13:15:19Z</time>
      </trkpt>
      <trkpt lat="46.67303" lon="6.08062">
        <ele>1032.6</ele>
        <time>2020-06-14T13:15:23Z</time>
      </trkpt>
      <trkpt lat="46.67301" lon="6.08056">
        <ele>1032.7</ele>
        <time>2020-06-14T13:15:32Z</time>
      </trkpt>
      <trkpt lat="46.67302" lon="6.08049">
        <ele>1032.6</ele>
        <time>2020-06-14T13:15:40Z</time>
      </trkpt>
      <trkpt lat="46.67303" lon="6.08041">
        <ele>1032.6</ele>
        <time>2020-06-14T13:15:44Z</time>
      </trkpt>
      <trkpt lat="46.67304" lon="6.08034">
        <ele>1032.5</ele>
        <time>2020-06-14T13:15:48Z</time>
      </trkpt>
      <trkpt lat="46.67305" lon="6.08028">
        <ele>1032.5</ele>
        <time>2020-06-14T13:15:53Z</time>
      </trkpt>
      <trkpt lat="46.67306" lon="6.0802">
        <ele>1032.3</ele>
        <time>2020-06-14T13:16:00Z</time>
      </trkpt>
      <trkpt lat="46.67308" lon="6.08014">
        <ele>1032.2</ele>
        <time>2020-06-14T13:16:04Z</time>
      </trkpt>
      <trkpt lat="46.67309" lon="6.08007">
        <ele>1032.2</ele>
        <time>2020-06-14T13:16:08Z</time>
      </trkpt>
      <trkpt lat="46.6731" lon="6.08">
        <ele>1032.4</ele>
        <time>2020-06-14T13:16:14Z</time>
      </trkpt>
      <trkpt lat="46.67314" lon="6.07997">
        <ele>1032.4</ele>
        <time>2020-06-14T13:16:23Z</time>
      </trkpt>
      <trkpt lat="46.67317" lon="6.07991">
        <ele>1032.1</ele>
        <time>2020-06-14T13:16:38Z</time>
      </trkpt>
      <trkpt lat="46.67319" lon="6.07983">
        <ele>1032.2</ele>
        <time>2020-06-14T13:16:42Z</time>
      </trkpt>
      <trkpt lat="46.67321" lon="6.07976">
        <ele>1032</ele>
        <time>2020-06-14T13:16:47Z</time>
      </trkpt>
      <trkpt lat="46.67323" lon="6.07969">
        <ele>1031.9</ele>
        <time>2020-06-14T13:16:50Z</time>
      </trkpt>
      <trkpt lat="46.67324" lon="6.07963">
        <ele>1031.7</ele>
        <time>2020-06-14T13:16:54Z</time>
      </trkpt>
      <trkpt lat="46.67327" lon="6.07955">
        <ele>1031.9</ele>
        <time>2020-06-14T13:17:00Z</time>
      </trkpt>
      <trkpt lat="46.6733" lon="6.07951">
        <ele>1032.3</ele>
        <time>2020-06-14T13:17:09Z</time>
      </trkpt>
      <trkpt lat="46.67333" lon="6.07945">
        <ele>1032.6</ele>
        <time>2020-06-14T13:17:14Z</time>
      </trkpt>
      <trkpt lat="46.67334" lon="6.07939">
        <ele>1033.5</ele>
        <time>2020-06-14T13:17:22Z</time>
      </trkpt>
      <trkpt lat="46.67335" lon="6.07932">
        <ele>1034.3</ele>
        <time>2020-06-14T13:17:35Z</time>
      </trkpt>
      <trkpt lat="46.67335" lon="6.07924">
        <ele>1034.1</ele>
        <time>2020-06-14T13:17:41Z</time>
      </trkpt>
      <trkpt lat="46.67335" lon="6.07918">
        <ele>1034.2</ele>
        <time>2020-06-14T13:17:54Z</time>
      </trkpt>
      <trkpt lat="46.67337" lon="6.07911">
        <ele>1034.3</ele>
        <time>2020-06-14T13:18:00Z</time>
      </trkpt>
      <trkpt lat="46.6734" lon="6.07904">
        <ele>1034.1</ele>
        <time>2020-06-14T13:18:04Z</time>
      </trkpt>
      <trkpt lat="46.67342" lon="6.07897">
        <ele>1033.9</ele>
        <time>2020-06-14T13:18:08Z</time>
      </trkpt>
      <trkpt lat="46.67343" lon="6.0789">
        <ele>1033.6</ele>
        <time>2020-06-14T13:18:13Z</time>
      </trkpt>
      <trkpt lat="46.67342" lon="6.07883">
        <ele>1033.5</ele>
        <time>2020-06-14T13:18:17Z</time>
      </trkpt>
      <trkpt lat="46.67343" lon="6.07876">
        <ele>1033.3</ele>
        <time>2020-06-14T13:18:22Z</time>
      </trkpt>
      <trkpt lat="46.67342" lon="6.07869">
        <ele>1033.2</ele>
        <time>2020-06-14T13:18:26Z</time>
      </trkpt>
      <trkpt lat="46.67341" lon="6.07863">
        <ele>1033</ele>
        <time>2020-06-14T13:18:31Z</time>
      </trkpt>
      <trkpt lat="46.67336" lon="6.0786">
        <ele>1032.6</ele>
        <time>2020-06-14T13:18:38Z</time>
      </trkpt>
      <trkpt lat="46.67333" lon="6.07855">
        <ele>1032.2</ele>
        <time>2020-06-14T13:18:42Z</time>
      </trkpt>
      <trkpt lat="46.67329" lon="6.07851">
        <ele>1031.8</ele>
        <time>2020-06-14T13:18:45Z</time>
      </trkpt>
      <trkpt lat="46.67325" lon="6.07846">
        <ele>1031.1</ele>
        <time>2020-06-14T13:18:49Z</time>
      </trkpt>
      <trkpt lat="46.67321" lon="6.07841">
        <ele>1030.3</ele>
        <time>2020-06-14T13:18:53Z</time>
      </trkpt>
      <trkpt lat="46.67319" lon="6.07835">
        <ele>1028.8</ele>
        <time>2020-06-14T13:19:02Z</time>
      </trkpt>
      <trkpt lat="46.67315" lon="6.07833">
        <ele>1027.9</ele>
        <time>2020-06-14T13:19:08Z</time>
      </trkpt>
      <trkpt lat="46.6731" lon="6.07832">
        <ele>1027.1</ele>
        <time>2020-06-14T13:19:13Z</time>
      </trkpt>
      <trkpt lat="46.67306" lon="6.07829">
        <ele>1025.9</ele>
        <time>2020-06-14T13:19:18Z</time>
      </trkpt>
      <trkpt lat="46.67301" lon="6.07826">
        <ele>1023.6</ele>
        <time>2020-06-14T13:19:24Z</time>
      </trkpt>
      <trkpt lat="46.67297" lon="6.07822">
        <ele>1021.7</ele>
        <time>2020-06-14T13:19:29Z</time>
      </trkpt>
      <trkpt lat="46.67293" lon="6.0782">
        <ele>1020.2</ele>
        <time>2020-06-14T13:19:33Z</time>
      </trkpt>
      <trkpt lat="46.67288" lon="6.07818">
        <ele>1018.6</ele>
        <time>2020-06-14T13:19:38Z</time>
      </trkpt>
      <trkpt lat="46.67283" lon="6.07816">
        <ele>1017</ele>
        <time>2020-06-14T13:19:44Z</time>
      </trkpt>
      <trkpt lat="46.67279" lon="6.07814">
        <ele>1016</ele>
        <time>2020-06-14T13:19:49Z</time>
      </trkpt>
      <trkpt lat="46.67274" lon="6.07811">
        <ele>1015.3</ele>
        <time>2020-06-14T13:19:53Z</time>
      </trkpt>
      <trkpt lat="46.6727" lon="6.07808">
        <ele>1014.7</ele>
        <time>2020-06-14T13:19:57Z</time>
      </trkpt>
      <trkpt lat="46.67265" lon="6.07804">
        <ele>1014.1</ele>
        <time>2020-06-14T13:20:02Z</time>
      </trkpt>
      <trkpt lat="46.6726" lon="6.07802">
        <ele>1013.9</ele>
        <time>2020-06-14T13:20:06Z</time>
      </trkpt>
      <trkpt lat="46.67256" lon="6.07802">
        <ele>1013.8</ele>
        <time>2020-06-14T13:20:10Z</time>
      </trkpt>
      <trkpt lat="46.67251" lon="6.07802">
        <ele>1013.6</ele>
        <time>2020-06-14T13:20:14Z</time>
      </trkpt>
      <trkpt lat="46.67246" lon="6.07802">
        <ele>1013.4</ele>
        <time>2020-06-14T13:20:19Z</time>
      </trkpt>
      <trkpt lat="46.6724" lon="6.07803">
        <ele>1013.3</ele>
        <time>2020-06-14T13:20:24Z</time>
      </trkpt>
      <trkpt lat="46.67235" lon="6.07804">
        <ele>1013.5</ele>
        <time>2020-06-14T13:20:29Z</time>
      </trkpt>
      <trkpt lat="46.6723" lon="6.07805">
        <ele>1013.5</ele>
        <time>2020-06-14T13:20:35Z</time>
      </trkpt>
      <trkpt lat="46.67224" lon="6.07806">
        <ele>1013.6</ele>
        <time>2020-06-14T13:20:42Z</time>
      </trkpt>
      <trkpt lat="46.6722" lon="6.07805">
        <ele>1013.6</ele>
        <time>2020-06-14T13:20:47Z</time>
      </trkpt>
      <trkpt lat="46.67218" lon="6.07811">
        <ele>1013.9</ele>
        <time>2020-06-14T13:21:23Z</time>
      </trkpt>
      <trkpt lat="46.67216" lon="6.07818">
        <ele>1014.1</ele>
        <time>2020-06-14T13:21:31Z</time>
      </trkpt>
      <trkpt lat="46.67215" lon="6.07824">
        <ele>1014.3</ele>
        <time>2020-06-14T13:21:36Z</time>
      </trkpt>
      <trkpt lat="46.6721" lon="6.07824">
        <ele>1019.6</ele>
        <time>2020-06-14T13:21:56Z</time>
      </trkpt>
      <trkpt lat="46.67206" lon="6.0782">
        <ele>1023.3</ele>
        <time>2020-06-14T13:22:29Z</time>
      </trkpt>
      <trkpt lat="46.67209" lon="6.07815">
        <ele>1023.4</ele>
        <time>2020-06-14T13:22:39Z</time>
      </trkpt>
      <trkpt lat="46.67214" lon="6.07816">
        <ele>1024.2</ele>
        <time>2020-06-14T13:22:44Z</time>
      </trkpt>
      <trkpt lat="46.67217" lon="6.07822">
        <ele>1024.7</ele>
        <time>2020-06-14T13:22:48Z</time>
      </trkpt>
      <trkpt lat="46.6722" lon="6.07827">
        <ele>1031.5</ele>
        <time>2020-06-14T13:23:12Z</time>
      </trkpt>
      <trkpt lat="46.67225" lon="6.07828">
        <ele>1032.9</ele>
        <time>2020-06-14T13:23:21Z</time>
      </trkpt>
      <trkpt lat="46.6723" lon="6.07829">
        <ele>1033.3</ele>
        <time>2020-06-14T13:23:25Z</time>
      </trkpt>
      <trkpt lat="46.67235" lon="6.0783">
        <ele>1033.9</ele>
        <time>2020-06-14T13:23:30Z</time>
      </trkpt>
      <trkpt lat="46.67239" lon="6.07827">
        <ele>1037.6</ele>
        <time>2020-06-14T13:23:58Z</time>
      </trkpt>
      <trkpt lat="46.67244" lon="6.07826">
        <ele>1039.7</ele>
        <time>2020-06-14T13:24:07Z</time>
      </trkpt>
      <trkpt lat="46.6725" lon="6.07827">
        <ele>1040.5</ele>
        <time>2020-06-14T13:24:13Z</time>
      </trkpt>
      <trkpt lat="46.67254" lon="6.07828">
        <ele>1040.8</ele>
        <time>2020-06-14T13:24:18Z</time>
      </trkpt>
      <trkpt lat="46.67259" lon="6.07831">
        <ele>1040.9</ele>
        <time>2020-06-14T13:24:23Z</time>
      </trkpt>
      <trkpt lat="46.67263" lon="6.07834">
        <ele>1040.8</ele>
        <time>2020-06-14T13:24:27Z</time>
      </trkpt>
      <trkpt lat="46.67267" lon="6.07837">
        <ele>1040.6</ele>
        <time>2020-06-14T13:24:33Z</time>
      </trkpt>
      <trkpt lat="46.67272" lon="6.07838">
        <ele>1040.1</ele>
        <time>2020-06-14T13:24:38Z</time>
      </trkpt>
      <trkpt lat="46.67277" lon="6.07841">
        <ele>1039.5</ele>
        <time>2020-06-14T13:24:45Z</time>
      </trkpt>
      <trkpt lat="46.67282" lon="6.07843">
        <ele>1039.1</ele>
        <time>2020-06-14T13:24:52Z</time>
      </trkpt>
      <trkpt lat="46.67286" lon="6.07846">
        <ele>1038.5</ele>
        <time>2020-06-14T13:24:59Z</time>
      </trkpt>
      <trkpt lat="46.67291" lon="6.07849">
        <ele>1038.1</ele>
        <time>2020-06-14T13:25:06Z</time>
      </trkpt>
      <trkpt lat="46.67301" lon="6.07853">
        <ele>1037</ele>
        <time>2020-06-14T13:25:23Z</time>
      </trkpt>
      <trkpt lat="46.67305" lon="6.07854">
        <ele>1036.7</ele>
        <time>2020-06-14T13:25:26Z</time>
      </trkpt>
      <trkpt lat="46.6731" lon="6.07858">
        <ele>1036.3</ele>
        <time>2020-06-14T13:25:30Z</time>
      </trkpt>
      <trkpt lat="46.67314" lon="6.0786">
        <ele>1036</ele>
        <time>2020-06-14T13:25:33Z</time>
      </trkpt>
      <trkpt lat="46.6732" lon="6.07863">
        <ele>1035.4</ele>
        <time>2020-06-14T13:25:38Z</time>
      </trkpt>
      <trkpt lat="46.67325" lon="6.07866">
        <ele>1035</ele>
        <time>2020-06-14T13:25:41Z</time>
      </trkpt>
      <trkpt lat="46.6733" lon="6.07866">
        <ele>1034.6</ele>
        <time>2020-06-14T13:25:44Z</time>
      </trkpt>
      <trkpt lat="46.67341" lon="6.07863">
        <ele>1032.8</ele>
        <time>2020-06-14T13:25:56Z</time>
      </trkpt>
      <trkpt lat="46.67346" lon="6.0786">
        <ele>1032.6</ele>
        <time>2020-06-14T13:26:00Z</time>
      </trkpt>
      <trkpt lat="46.67351" lon="6.07855">
        <ele>1032.5</ele>
        <time>2020-06-14T13:26:03Z</time>
      </trkpt>
      <trkpt lat="46.67355" lon="6.07852">
        <ele>1032.6</ele>
        <time>2020-06-14T13:26:06Z</time>
      </trkpt>
      <trkpt lat="46.67358" lon="6.07848">
        <ele>1032.3</ele>
        <time>2020-06-14T13:26:11Z</time>
      </trkpt>
      <trkpt lat="46.67364" lon="6.07845">
        <ele>1032.1</ele>
        <time>2020-06-14T13:26:16Z</time>
      </trkpt>
      <trkpt lat="46.67368" lon="6.07842">
        <ele>1032.1</ele>
        <time>2020-06-14T13:26:20Z</time>
      </trkpt>
      <trkpt lat="46.67373" lon="6.07837">
        <ele>1032.2</ele>
        <time>2020-06-14T13:26:26Z</time>
      </trkpt>
      <trkpt lat="46.67376" lon="6.07833">
        <ele>1032.6</ele>
        <time>2020-06-14T13:26:32Z</time>
      </trkpt>
      <trkpt lat="46.6738" lon="6.07829">
        <ele>1033.2</ele>
        <time>2020-06-14T13:26:43Z</time>
      </trkpt>
      <trkpt lat="46.67384" lon="6.07825">
        <ele>1035</ele>
        <time>2020-06-14T13:26:51Z</time>
      </trkpt>
      <trkpt lat="46.67387" lon="6.07819">
        <ele>1036.1</ele>
        <time>2020-06-14T13:26:59Z</time>
      </trkpt>
      <trkpt lat="46.67391" lon="6.07815">
        <ele>1036.5</ele>
        <time>2020-06-14T13:27:04Z</time>
      </trkpt>
      <trkpt lat="46.67395" lon="6.0781">
        <ele>1036.7</ele>
        <time>2020-06-14T13:27:09Z</time>
      </trkpt>
      <trkpt lat="46.67399" lon="6.07806">
        <ele>1036.8</ele>
        <time>2020-06-14T13:27:13Z</time>
      </trkpt>
      <trkpt lat="46.67403" lon="6.07803">
        <ele>1036.8</ele>
        <time>2020-06-14T13:27:17Z</time>
      </trkpt>
      <trkpt lat="46.67406" lon="6.07796">
        <ele>1036.7</ele>
        <time>2020-06-14T13:27:23Z</time>
      </trkpt>
      <trkpt lat="46.67405" lon="6.07789">
        <ele>1036.5</ele>
        <time>2020-06-14T13:27:38Z</time>
      </trkpt>
      <trkpt lat="46.67402" lon="6.07784">
        <ele>1037.7</ele>
        <time>2020-06-14T13:27:49Z</time>
      </trkpt>
      <trkpt lat="46.67399" lon="6.07778">
        <ele>1037.9</ele>
        <time>2020-06-14T13:27:52Z</time>
      </trkpt>
      <trkpt lat="46.67396" lon="6.07773">
        <ele>1037.8</ele>
        <time>2020-06-14T13:27:59Z</time>
      </trkpt>
      <trkpt lat="46.67392" lon="6.07769">
        <ele>1036.3</ele>
        <time>2020-06-14T13:28:08Z</time>
      </trkpt>
      <trkpt lat="46.67387" lon="6.07767">
        <ele>1034.6</ele>
        <time>2020-06-14T13:28:14Z</time>
      </trkpt>
      <trkpt lat="46.67382" lon="6.07765">
        <ele>1033.4</ele>
        <time>2020-06-14T13:28:18Z</time>
      </trkpt>
      <trkpt lat="46.67377" lon="6.07762">
        <ele>1032.3</ele>
        <time>2020-06-14T13:28:22Z</time>
      </trkpt>
      <trkpt lat="46.67373" lon="6.07761">
        <ele>1030.7</ele>
        <time>2020-06-14T13:28:29Z</time>
      </trkpt>
      <trkpt lat="46.67368" lon="6.07759">
        <ele>1029.5</ele>
        <time>2020-06-14T13:28:37Z</time>
      </trkpt>
      <trkpt lat="46.67364" lon="6.07755">
        <ele>1028.7</ele>
        <time>2020-06-14T13:28:42Z</time>
      </trkpt>
      <trkpt lat="46.67361" lon="6.0775">
        <ele>1027.9</ele>
        <time>2020-06-14T13:28:48Z</time>
      </trkpt>
      <trkpt lat="46.67357" lon="6.07744">
        <ele>1027.3</ele>
        <time>2020-06-14T13:28:53Z</time>
      </trkpt>
      <trkpt lat="46.67353" lon="6.0774">
        <ele>1026.8</ele>
        <time>2020-06-14T13:28:57Z</time>
      </trkpt>
      <trkpt lat="46.6735" lon="6.07735">
        <ele>1026.1</ele>
        <time>2020-06-14T13:29:04Z</time>
      </trkpt>
      <trkpt lat="46.67346" lon="6.07731">
        <ele>1024.7</ele>
        <time>2020-06-14T13:29:14Z</time>
      </trkpt>
      <trkpt lat="46.67343" lon="6.07727">
        <ele>1024.2</ele>
        <time>2020-06-14T13:29:18Z</time>
      </trkpt>
      <trkpt lat="46.67339" lon="6.07724">
        <ele>1023.3</ele>
        <time>2020-06-14T13:29:23Z</time>
      </trkpt>
      <trkpt lat="46.67334" lon="6.07723">
        <ele>1020.2</ele>
        <time>2020-06-14T13:29:38Z</time>
      </trkpt>
      <trkpt lat="46.67331" lon="6.07719">
        <ele>1019</ele>
        <time>2020-06-14T13:29:43Z</time>
      </trkpt>
      <trkpt lat="46.67323" lon="6.07712">
        <ele>1022</ele>
        <time>2020-06-14T13:31:34Z</time>
      </trkpt>
      <trkpt lat="46.67318" lon="6.07708">
        <ele>1023.1</ele>
        <time>2020-06-14T13:31:38Z</time>
      </trkpt>
      <trkpt lat="46.67315" lon="6.07703">
        <ele>1025.8</ele>
        <time>2020-06-14T13:31:45Z</time>
      </trkpt>
      <trkpt lat="46.6731" lon="6.07699">
        <ele>1028.7</ele>
        <time>2020-06-14T13:31:51Z</time>
      </trkpt>
      <trkpt lat="46.67304" lon="6.07698">
        <ele>1029.8</ele>
        <time>2020-06-14T13:31:53Z</time>
      </trkpt>
      <trkpt lat="46.67299" lon="6.07693">
        <ele>1030.8</ele>
        <time>2020-06-14T13:31:55Z</time>
      </trkpt>
      <trkpt lat="46.67289" lon="6.07676">
        <ele>1036</ele>
        <time>2020-06-14T13:32:04Z</time>
      </trkpt>
      <trkpt lat="46.67281" lon="6.07664">
        <ele>1040.4</ele>
        <time>2020-06-14T13:32:32Z</time>
      </trkpt>
      <trkpt lat="46.67278" lon="6.07657">
        <ele>1040.1</ele>
        <time>2020-06-14T13:32:46Z</time>
      </trkpt>
      <trkpt lat="46.6727" lon="6.07637">
        <ele>1036.6</ele>
        <time>2020-06-14T13:33:16Z</time>
      </trkpt>
      <trkpt lat="46.67271" lon="6.07629">
        <ele>1036.5</ele>
        <time>2020-06-14T13:33:26Z</time>
      </trkpt>
      <trkpt lat="46.67268" lon="6.07623">
        <ele>1037.3</ele>
        <time>2020-06-14T13:33:46Z</time>
      </trkpt>
      <trkpt lat="46.67264" lon="6.07618">
        <ele>1037.4</ele>
        <time>2020-06-14T13:35:11Z</time>
      </trkpt>
      <trkpt lat="46.67258" lon="6.07612">
        <ele>1037.2</ele>
        <time>2020-06-14T13:35:16Z</time>
      </trkpt>
      <trkpt lat="46.67255" lon="6.07606">
        <ele>1037.1</ele>
        <time>2020-06-14T13:35:19Z</time>
      </trkpt>
      <trkpt lat="46.67246" lon="6.07596">
        <ele>1036.9</ele>
        <time>2020-06-14T13:35:29Z</time>
      </trkpt>
      <trkpt lat="46.67242" lon="6.07592">
        <ele>1036.9</ele>
        <time>2020-06-14T13:35:31Z</time>
      </trkpt>
      <trkpt lat="46.67237" lon="6.07587">
        <ele>1037</ele>
        <time>2020-06-14T13:35:33Z</time>
      </trkpt>
      <trkpt lat="46.67234" lon="6.07582">
        <ele>1037.6</ele>
        <time>2020-06-14T13:35:38Z</time>
      </trkpt>
      <trkpt lat="46.67229" lon="6.0758">
        <ele>1038</ele>
        <time>2020-06-14T13:35:41Z</time>
      </trkpt>
      <trkpt lat="46.67225" lon="6.07576">
        <ele>1038.8</ele>
        <time>2020-06-14T13:35:45Z</time>
      </trkpt>
      <trkpt lat="46.67221" lon="6.07572">
        <ele>1039.9</ele>
        <time>2020-06-14T13:35:50Z</time>
      </trkpt>
      <trkpt lat="46.67217" lon="6.07567">
        <ele>1040.4</ele>
        <time>2020-06-14T13:35:56Z</time>
      </trkpt>
      <trkpt lat="46.67213" lon="6.07563">
        <ele>1040</ele>
        <time>2020-06-14T13:36:03Z</time>
      </trkpt>
      <trkpt lat="46.67194" lon="6.07527">
        <ele>1027.8</ele>
        <time>2020-06-14T13:41:05Z</time>
      </trkpt>
      <trkpt lat="46.67191" lon="6.07522">
        <ele>1027.1</ele>
        <time>2020-06-14T13:41:13Z</time>
      </trkpt>
      <trkpt lat="46.67187" lon="6.07516">
        <ele>1026.9</ele>
        <time>2020-06-14T13:41:17Z</time>
      </trkpt>
      <trkpt lat="46.67183" lon="6.07512">
        <ele>1027</ele>
        <time>2020-06-14T13:41:20Z</time>
      </trkpt>
      <trkpt lat="46.67179" lon="6.07506">
        <ele>1026.9</ele>
        <time>2020-06-14T13:41:25Z</time>
      </trkpt>
      <trkpt lat="46.67178" lon="6.075">
        <ele>1026.8</ele>
        <time>2020-06-14T13:41:28Z</time>
      </trkpt>
      <trkpt lat="46.67175" lon="6.07493">
        <ele>1026.6</ele>
        <time>2020-06-14T13:41:32Z</time>
      </trkpt>
      <trkpt lat="46.67172" lon="6.07486">
        <ele>1026.5</ele>
        <time>2020-06-14T13:41:35Z</time>
      </trkpt>
      <trkpt lat="46.67171" lon="6.0748">
        <ele>1026.7</ele>
        <time>2020-06-14T13:41:39Z</time>
      </trkpt>
      <trkpt lat="46.67169" lon="6.07474">
        <ele>1027.4</ele>
        <time>2020-06-14T13:41:45Z</time>
      </trkpt>
      <trkpt lat="46.67167" lon="6.07467">
        <ele>1028.9</ele>
        <time>2020-06-14T13:41:55Z</time>
      </trkpt>
      <trkpt lat="46.67165" lon="6.07461">
        <ele>1029.4</ele>
        <time>2020-06-14T13:42:01Z</time>
      </trkpt>
      <trkpt lat="46.67161" lon="6.07457">
        <ele>1028.6</ele>
        <time>2020-06-14T13:42:11Z</time>
      </trkpt>
      <trkpt lat="46.67157" lon="6.07453">
        <ele>1026.6</ele>
        <time>2020-06-14T13:42:18Z</time>
      </trkpt>
      <trkpt lat="46.67153" lon="6.07449">
        <ele>1025.1</ele>
        <time>2020-06-14T13:42:23Z</time>
      </trkpt>
      <trkpt lat="46.67147" lon="6.07444">
        <ele>1024.3</ele>
        <time>2020-06-14T13:42:26Z</time>
      </trkpt>
      <trkpt lat="46.67142" lon="6.0744">
        <ele>1023.7</ele>
        <time>2020-06-14T13:42:28Z</time>
      </trkpt>
      <trkpt lat="46.67138" lon="6.07437">
        <ele>1022</ele>
        <time>2020-06-14T13:42:34Z</time>
      </trkpt>
      <trkpt lat="46.67133" lon="6.07432">
        <ele>1020.4</ele>
        <time>2020-06-14T13:42:41Z</time>
      </trkpt>
      <trkpt lat="46.67129" lon="6.07428">
        <ele>1020.2</ele>
        <time>2020-06-14T13:42:43Z</time>
      </trkpt>
      <trkpt lat="46.67124" lon="6.07423">
        <ele>1020</ele>
        <time>2020-06-14T13:42:45Z</time>
      </trkpt>
      <trkpt lat="46.6712" lon="6.07419">
        <ele>1019.7</ele>
        <time>2020-06-14T13:42:48Z</time>
      </trkpt>
      <trkpt lat="46.67116" lon="6.07416">
        <ele>1019.3</ele>
        <time>2020-06-14T13:42:58Z</time>
      </trkpt>
      <trkpt lat="46.67112" lon="6.07414">
        <ele>1019.3</ele>
        <time>2020-06-14T13:43:03Z</time>
      </trkpt>
      <trkpt lat="46.67108" lon="6.0741">
        <ele>1019</ele>
        <time>2020-06-14T13:43:11Z</time>
      </trkpt>
      <trkpt lat="46.67104" lon="6.07406">
        <ele>1017.6</ele>
        <time>2020-06-14T13:43:21Z</time>
      </trkpt>
      <trkpt lat="46.67098" lon="6.07404">
        <ele>1016.9</ele>
        <time>2020-06-14T13:43:27Z</time>
      </trkpt>
      <trkpt lat="46.67094" lon="6.074">
        <ele>1016.4</ele>
        <time>2020-06-14T13:43:31Z</time>
      </trkpt>
      <trkpt lat="46.67091" lon="6.07395">
        <ele>1015.8</ele>
        <time>2020-06-14T13:43:35Z</time>
      </trkpt>
      <trkpt lat="46.67087" lon="6.07391">
        <ele>1014.8</ele>
        <time>2020-06-14T13:43:40Z</time>
      </trkpt>
      <trkpt lat="46.67083" lon="6.07387">
        <ele>1012.7</ele>
        <time>2020-06-14T13:43:51Z</time>
      </trkpt>
      <trkpt lat="46.67078" lon="6.07381">
        <ele>1012</ele>
        <time>2020-06-14T13:43:56Z</time>
      </trkpt>
      <trkpt lat="46.67076" lon="6.07376">
        <ele>1011.5</ele>
        <time>2020-06-14T13:44:00Z</time>
      </trkpt>
      <trkpt lat="46.67072" lon="6.0737">
        <ele>1011</ele>
        <time>2020-06-14T13:44:04Z</time>
      </trkpt>
      <trkpt lat="46.67069" lon="6.07364">
        <ele>1010.7</ele>
        <time>2020-06-14T13:44:07Z</time>
      </trkpt>
      <trkpt lat="46.67068" lon="6.07357">
        <ele>1010.2</ele>
        <time>2020-06-14T13:44:12Z</time>
      </trkpt>
      <trkpt lat="46.67068" lon="6.07349">
        <ele>1009.6</ele>
        <time>2020-06-14T13:44:18Z</time>
      </trkpt>
      <trkpt lat="46.67065" lon="6.07343">
        <ele>1009.1</ele>
        <time>2020-06-14T13:44:23Z</time>
      </trkpt>
      <trkpt lat="46.67062" lon="6.07337">
        <ele>1008.7</ele>
        <time>2020-06-14T13:44:26Z</time>
      </trkpt>
      <trkpt lat="46.67059" lon="6.07331">
        <ele>1007.9</ele>
        <time>2020-06-14T13:44:31Z</time>
      </trkpt>
      <trkpt lat="46.67058" lon="6.07324">
        <ele>1007.2</ele>
        <time>2020-06-14T13:44:35Z</time>
      </trkpt>
      <trkpt lat="46.67058" lon="6.07318">
        <ele>1006.5</ele>
        <time>2020-06-14T13:44:39Z</time>
      </trkpt>
      <trkpt lat="46.67056" lon="6.07311">
        <ele>1005.5</ele>
        <time>2020-06-14T13:44:44Z</time>
      </trkpt>
      <trkpt lat="46.67054" lon="6.07305">
        <ele>1005.1</ele>
        <time>2020-06-14T13:44:49Z</time>
      </trkpt>
      <trkpt lat="46.67053" lon="6.07298">
        <ele>1005.4</ele>
        <time>2020-06-14T13:44:54Z</time>
      </trkpt>
      <trkpt lat="46.67052" lon="6.07291">
        <ele>1006.5</ele>
        <time>2020-06-14T13:45:00Z</time>
      </trkpt>
      <trkpt lat="46.67049" lon="6.07285">
        <ele>1007.9</ele>
        <time>2020-06-14T13:45:06Z</time>
      </trkpt>
      <trkpt lat="46.67046" lon="6.0728">
        <ele>1009.3</ele>
        <time>2020-06-14T13:45:12Z</time>
      </trkpt>
      <trkpt lat="46.67041" lon="6.07276">
        <ele>1010.6</ele>
        <time>2020-06-14T13:45:17Z</time>
      </trkpt>
      <trkpt lat="46.67038" lon="6.07272">
        <ele>1012.3</ele>
        <time>2020-06-14T13:45:24Z</time>
      </trkpt>
      <trkpt lat="46.67037" lon="6.07264">
        <ele>1013.8</ele>
        <time>2020-06-14T13:45:31Z</time>
      </trkpt>
      <trkpt lat="46.67035" lon="6.07258">
        <ele>1015.1</ele>
        <time>2020-06-14T13:45:37Z</time>
      </trkpt>
      <trkpt lat="46.67033" lon="6.07251">
        <ele>1016.2</ele>
        <time>2020-06-14T13:45:43Z</time>
      </trkpt>
      <trkpt lat="46.67031" lon="6.07244">
        <ele>1016.9</ele>
        <time>2020-06-14T13:45:48Z</time>
      </trkpt>
      <trkpt lat="46.67029" lon="6.07237">
        <ele>1017.4</ele>
        <time>2020-06-14T13:45:53Z</time>
      </trkpt>
      <trkpt lat="46.67027" lon="6.07231">
        <ele>1017.6</ele>
        <time>2020-06-14T13:45:56Z</time>
      </trkpt>
      <trkpt lat="46.67024" lon="6.07225">
        <ele>1017.7</ele>
        <time>2020-06-14T13:46:00Z</time>
      </trkpt>
      <trkpt lat="46.67021" lon="6.07219">
        <ele>1017.6</ele>
        <time>2020-06-14T13:46:05Z</time>
      </trkpt>
      <trkpt lat="46.67019" lon="6.07212">
        <ele>1017.8</ele>
        <time>2020-06-14T13:46:13Z</time>
      </trkpt>
      <trkpt lat="46.67016" lon="6.07207">
        <ele>1018.5</ele>
        <time>2020-06-14T13:46:24Z</time>
      </trkpt>
      <trkpt lat="46.67016" lon="6.072">
        <ele>1019.1</ele>
        <time>2020-06-14T13:46:30Z</time>
      </trkpt>
      <trkpt lat="46.67013" lon="6.07193">
        <ele>1019.6</ele>
        <time>2020-06-14T13:46:35Z</time>
      </trkpt>
      <trkpt lat="46.67011" lon="6.07187">
        <ele>1020.1</ele>
        <time>2020-06-14T13:46:40Z</time>
      </trkpt>
      <trkpt lat="46.67009" lon="6.0718">
        <ele>1020.7</ele>
        <time>2020-06-14T13:46:46Z</time>
      </trkpt>
      <trkpt lat="46.67006" lon="6.07175">
        <ele>1021.3</ele>
        <time>2020-06-14T13:46:51Z</time>
      </trkpt>
      <trkpt lat="46.67003" lon="6.0717">
        <ele>1021.7</ele>
        <time>2020-06-14T13:46:55Z</time>
      </trkpt>
      <trkpt lat="46.66999" lon="6.07165">
        <ele>1022.1</ele>
        <time>2020-06-14T13:46:59Z</time>
      </trkpt>
      <trkpt lat="46.66996" lon="6.07161">
        <ele>1022.2</ele>
        <time>2020-06-14T13:47:04Z</time>
      </trkpt>
      <trkpt lat="46.66994" lon="6.07154">
        <ele>1022.3</ele>
        <time>2020-06-14T13:47:08Z</time>
      </trkpt>
      <trkpt lat="46.66992" lon="6.07147">
        <ele>1022.7</ele>
        <time>2020-06-14T13:47:14Z</time>
      </trkpt>
      <trkpt lat="46.66991" lon="6.07141">
        <ele>1023.2</ele>
        <time>2020-06-14T13:47:21Z</time>
      </trkpt>
      <trkpt lat="46.6699" lon="6.07134">
        <ele>1024</ele>
        <time>2020-06-14T13:47:26Z</time>
      </trkpt>
      <trkpt lat="46.66989" lon="6.07126">
        <ele>1024.8</ele>
        <time>2020-06-14T13:47:30Z</time>
      </trkpt>
      <trkpt lat="46.66989" lon="6.07119">
        <ele>1025.4</ele>
        <time>2020-06-14T13:47:34Z</time>
      </trkpt>
      <trkpt lat="46.66988" lon="6.07111">
        <ele>1026</ele>
        <time>2020-06-14T13:47:38Z</time>
      </trkpt>
      <trkpt lat="46.66987" lon="6.07103">
        <ele>1026.6</ele>
        <time>2020-06-14T13:47:43Z</time>
      </trkpt>
      <trkpt lat="46.66987" lon="6.07097">
        <ele>1027.5</ele>
        <time>2020-06-14T13:47:51Z</time>
      </trkpt>
      <trkpt lat="46.66988" lon="6.0709">
        <ele>1028.5</ele>
        <time>2020-06-14T13:48:05Z</time>
      </trkpt>
      <trkpt lat="46.66985" lon="6.07085">
        <ele>1028.1</ele>
        <time>2020-06-14T13:48:18Z</time>
      </trkpt>
      <trkpt lat="46.66982" lon="6.07078">
        <ele>1027.2</ele>
        <time>2020-06-14T13:48:27Z</time>
      </trkpt>
      <trkpt lat="46.66977" lon="6.07076">
        <ele>1026.2</ele>
        <time>2020-06-14T13:48:58Z</time>
      </trkpt>
      <trkpt lat="46.6698" lon="6.07073">
        <ele>1025.8</ele>
        <time>2020-06-14T13:49:14Z</time>
      </trkpt>
      <trkpt lat="46.66985" lon="6.07072">
        <ele>1025.7</ele>
        <time>2020-06-14T13:49:20Z</time>
      </trkpt>
      <trkpt lat="46.66986" lon="6.07066">
        <ele>1026.3</ele>
        <time>2020-06-14T13:49:34Z</time>
      </trkpt>
      <trkpt lat="46.6698" lon="6.07064">
        <ele>1028.6</ele>
        <time>2020-06-14T13:55:40Z</time>
      </trkpt>
      <trkpt lat="46.66978" lon="6.07058">
        <ele>1027.9</ele>
        <time>2020-06-14T13:55:48Z</time>
      </trkpt>
      <trkpt lat="46.66973" lon="6.07053">
        <ele>1027.8</ele>
        <time>2020-06-14T13:55:53Z</time>
      </trkpt>
      <trkpt lat="46.6697" lon="6.07047">
        <ele>1027.5</ele>
        <time>2020-06-14T13:55:58Z</time>
      </trkpt>
      <trkpt lat="46.66965" lon="6.07042">
        <ele>1026.9</ele>
        <time>2020-06-14T13:56:02Z</time>
      </trkpt>
      <trkpt lat="46.66962" lon="6.07036">
        <ele>1026.2</ele>
        <time>2020-06-14T13:56:06Z</time>
      </trkpt>
      <trkpt lat="46.66958" lon="6.07031">
        <ele>1024.9</ele>
        <time>2020-06-14T13:56:12Z</time>
      </trkpt>
      <trkpt lat="46.66954" lon="6.07025">
        <ele>1023.8</ele>
        <time>2020-06-14T13:56:17Z</time>
      </trkpt>
      <trkpt lat="46.66951" lon="6.07019">
        <ele>1022.6</ele>
        <time>2020-06-14T13:56:22Z</time>
      </trkpt>
      <trkpt lat="46.66947" lon="6.07013">
        <ele>1021.4</ele>
        <time>2020-06-14T13:56:27Z</time>
      </trkpt>
      <trkpt lat="46.66944" lon="6.07009">
        <ele>1020.7</ele>
        <time>2020-06-14T13:56:30Z</time>
      </trkpt>
      <trkpt lat="46.6694" lon="6.07002">
        <ele>1019.6</ele>
        <time>2020-06-14T13:56:34Z</time>
      </trkpt>
      <trkpt lat="46.66938" lon="6.06996">
        <ele>1018.5</ele>
        <time>2020-06-14T13:56:38Z</time>
      </trkpt>
      <trkpt lat="46.66935" lon="6.06989">
        <ele>1017.3</ele>
        <time>2020-06-14T13:56:43Z</time>
      </trkpt>
      <trkpt lat="46.66932" lon="6.06982">
        <ele>1016.3</ele>
        <time>2020-06-14T13:56:48Z</time>
      </trkpt>
      <trkpt lat="46.6693" lon="6.06976">
        <ele>1015.7</ele>
        <time>2020-06-14T13:56:53Z</time>
      </trkpt>
      <trkpt lat="46.66927" lon="6.0697">
        <ele>1015.2</ele>
        <time>2020-06-14T13:57:01Z</time>
      </trkpt>
      <trkpt lat="46.66926" lon="6.06962">
        <ele>1015.2</ele>
        <time>2020-06-14T13:57:07Z</time>
      </trkpt>
      <trkpt lat="46.66926" lon="6.06955">
        <ele>1015</ele>
        <time>2020-06-14T13:57:12Z</time>
      </trkpt>
      <trkpt lat="46.66927" lon="6.06948">
        <ele>1014.8</ele>
        <time>2020-06-14T13:57:17Z</time>
      </trkpt>
      <trkpt lat="46.66928" lon="6.0694">
        <ele>1014.6</ele>
        <time>2020-06-14T13:57:21Z</time>
      </trkpt>
      <trkpt lat="46.66931" lon="6.06935">
        <ele>1015</ele>
        <time>2020-06-14T13:57:28Z</time>
      </trkpt>
      <trkpt lat="46.66936" lon="6.06935">
        <ele>1017.9</ele>
        <time>2020-06-14T13:57:38Z</time>
      </trkpt>
      <trkpt lat="46.66937" lon="6.06942">
        <ele>1021.1</ele>
        <time>2020-06-14T13:57:54Z</time>
      </trkpt>
      <trkpt lat="46.66937" lon="6.06949">
        <ele>1024.1</ele>
        <time>2020-06-14T13:58:50Z</time>
      </trkpt>
      <trkpt lat="46.66932" lon="6.06953">
        <ele>1025.2</ele>
        <time>2020-06-14T13:58:58Z</time>
      </trkpt>
      <trkpt lat="46.66928" lon="6.06955">
        <ele>1025.5</ele>
        <time>2020-06-14T13:59:03Z</time>
      </trkpt>
      <trkpt lat="46.66923" lon="6.06957">
        <ele>1025.2</ele>
        <time>2020-06-14T13:59:09Z</time>
      </trkpt>
      <trkpt lat="46.66918" lon="6.06956">
        <ele>1024.7</ele>
        <time>2020-06-14T13:59:13Z</time>
      </trkpt>
      <trkpt lat="46.66913" lon="6.06955">
        <ele>1023.9</ele>
        <time>2020-06-14T13:59:17Z</time>
      </trkpt>
      <trkpt lat="46.66907" lon="6.06955">
        <ele>1023.3</ele>
        <time>2020-06-14T13:59:20Z</time>
      </trkpt>
      <trkpt lat="46.66903" lon="6.06957">
        <ele>1022.4</ele>
        <time>2020-06-14T13:59:24Z</time>
      </trkpt>
      <trkpt lat="46.66898" lon="6.06957">
        <ele>1021.5</ele>
        <time>2020-06-14T13:59:28Z</time>
      </trkpt>
      <trkpt lat="46.66894" lon="6.0696">
        <ele>1020.6</ele>
        <time>2020-06-14T13:59:32Z</time>
      </trkpt>
      <trkpt lat="46.66888" lon="6.06962">
        <ele>1019.5</ele>
        <time>2020-06-14T13:59:37Z</time>
      </trkpt>
      <trkpt lat="46.66883" lon="6.06961">
        <ele>1017.2</ele>
        <time>2020-06-14T13:59:45Z</time>
      </trkpt>
      <trkpt lat="46.6688" lon="6.06957">
        <ele>1015.7</ele>
        <time>2020-06-14T13:59:50Z</time>
      </trkpt>
      <trkpt lat="46.66875" lon="6.06953">
        <ele>1014.4</ele>
        <time>2020-06-14T13:59:55Z</time>
      </trkpt>
      <trkpt lat="46.66871" lon="6.0695">
        <ele>1013</ele>
        <time>2020-06-14T14:00:01Z</time>
      </trkpt>
      <trkpt lat="46.66867" lon="6.06946">
        <ele>1010.9</ele>
        <time>2020-06-14T14:00:08Z</time>
      </trkpt>
      <trkpt lat="46.66863" lon="6.06945">
        <ele>1008.9</ele>
        <time>2020-06-14T14:00:15Z</time>
      </trkpt>
      <trkpt lat="46.66858" lon="6.06944">
        <ele>1007.6</ele>
        <time>2020-06-14T14:00:20Z</time>
      </trkpt>
      <trkpt lat="46.66853" lon="6.0694">
        <ele>1005.8</ele>
        <time>2020-06-14T14:00:27Z</time>
      </trkpt>
      <trkpt lat="46.66849" lon="6.06937">
        <ele>1004.5</ele>
        <time>2020-06-14T14:00:32Z</time>
      </trkpt>
      <trkpt lat="46.66843" lon="6.06937">
        <ele>1003.3</ele>
        <time>2020-06-14T14:00:36Z</time>
      </trkpt>
      <trkpt lat="46.66839" lon="6.06937">
        <ele>1002.3</ele>
        <time>2020-06-14T14:00:40Z</time>
      </trkpt>
      <trkpt lat="46.66833" lon="6.06937">
        <ele>1001.5</ele>
        <time>2020-06-14T14:00:44Z</time>
      </trkpt>
      <trkpt lat="46.66828" lon="6.06936">
        <ele>1000.8</ele>
        <time>2020-06-14T14:00:48Z</time>
      </trkpt>
      <trkpt lat="46.66823" lon="6.06936">
        <ele>1000.1</ele>
        <time>2020-06-14T14:00:53Z</time>
      </trkpt>
      <trkpt lat="46.66818" lon="6.06938">
        <ele>999.6</ele>
        <time>2020-06-14T14:00:58Z</time>
      </trkpt>
      <trkpt lat="46.66813" lon="6.06939">
        <ele>999.2</ele>
        <time>2020-06-14T14:01:03Z</time>
      </trkpt>
      <trkpt lat="46.66808" lon="6.06938">
        <ele>998.7</ele>
        <time>2020-06-14T14:01:09Z</time>
      </trkpt>
      <trkpt lat="46.66802" lon="6.06937">
        <ele>998.1</ele>
        <time>2020-06-14T14:01:15Z</time>
      </trkpt>
      <trkpt lat="46.66797" lon="6.06935">
        <ele>997.8</ele>
        <time>2020-06-14T14:01:20Z</time>
      </trkpt>
      <trkpt lat="46.66792" lon="6.06932">
        <ele>997.7</ele>
        <time>2020-06-14T14:01:23Z</time>
      </trkpt>
      <trkpt lat="46.66787" lon="6.0693">
        <ele>997.6</ele>
        <time>2020-06-14T14:01:28Z</time>
      </trkpt>
      <trkpt lat="46.66782" lon="6.06929">
        <ele>997.6</ele>
        <time>2020-06-14T14:01:36Z</time>
      </trkpt>
      <trkpt lat="46.6678" lon="6.06935">
        <ele>997.6</ele>
        <time>2020-06-14T14:01:59Z</time>
      </trkpt>
      <trkpt lat="46.66777" lon="6.0694">
        <ele>997.8</ele>
        <time>2020-06-14T14:02:15Z</time>
      </trkpt>
      <trkpt lat="46.66772" lon="6.06943">
        <ele>998.1</ele>
        <time>2020-06-14T14:02:37Z</time>
      </trkpt>
      <trkpt lat="46.66776" lon="6.06937">
        <ele>999.6</ele>
        <time>2020-06-14T14:03:35Z</time>
      </trkpt>
      <trkpt lat="46.66778" lon="6.06931">
        <ele>999.1</ele>
        <time>2020-06-14T14:03:43Z</time>
      </trkpt>
      <trkpt lat="46.66778" lon="6.06923">
        <ele>998.8</ele>
        <time>2020-06-14T14:03:52Z</time>
      </trkpt>
      <trkpt lat="46.66779" lon="6.06916">
        <ele>998.8</ele>
        <time>2020-06-14T14:03:58Z</time>
      </trkpt>
      <trkpt lat="46.66778" lon="6.06909">
        <ele>998.6</ele>
        <time>2020-06-14T14:04:03Z</time>
      </trkpt>
      <trkpt lat="46.66776" lon="6.06902">
        <ele>998.4</ele>
        <time>2020-06-14T14:04:06Z</time>
      </trkpt>
      <trkpt lat="46.66774" lon="6.06896">
        <ele>998.1</ele>
        <time>2020-06-14T14:04:11Z</time>
      </trkpt>
      <trkpt lat="46.66773" lon="6.06889">
        <ele>997.9</ele>
        <time>2020-06-14T14:04:16Z</time>
      </trkpt>
      <trkpt lat="46.66772" lon="6.06882">
        <ele>997.8</ele>
        <time>2020-06-14T14:04:20Z</time>
      </trkpt>
      <trkpt lat="46.66771" lon="6.06875">
        <ele>997.5</ele>
        <time>2020-06-14T14:04:27Z</time>
      </trkpt>
      <trkpt lat="46.66767" lon="6.06871">
        <ele>996.8</ele>
        <time>2020-06-14T14:04:33Z</time>
      </trkpt>
      <trkpt lat="46.66764" lon="6.06865">
        <ele>996.2</ele>
        <time>2020-06-14T14:04:38Z</time>
      </trkpt>
      <trkpt lat="46.66761" lon="6.0686">
        <ele>995.7</ele>
        <time>2020-06-14T14:04:43Z</time>
      </trkpt>
      <trkpt lat="46.66757" lon="6.06855">
        <ele>995.2</ele>
        <time>2020-06-14T14:04:47Z</time>
      </trkpt>
      <trkpt lat="46.66755" lon="6.06848">
        <ele>994.6</ele>
        <time>2020-06-14T14:04:53Z</time>
      </trkpt>
      <trkpt lat="46.66753" lon="6.06841">
        <ele>994.1</ele>
        <time>2020-06-14T14:04:58Z</time>
      </trkpt>
      <trkpt lat="46.66752" lon="6.06834">
        <ele>993.6</ele>
        <time>2020-06-14T14:05:02Z</time>
      </trkpt>
      <trkpt lat="46.66749" lon="6.06828">
        <ele>993</ele>
        <time>2020-06-14T14:05:07Z</time>
      </trkpt>
      <trkpt lat="46.66746" lon="6.06822">
        <ele>992.6</ele>
        <time>2020-06-14T14:05:10Z</time>
      </trkpt>
      <trkpt lat="46.66744" lon="6.06816">
        <ele>992.2</ele>
        <time>2020-06-14T14:05:13Z</time>
      </trkpt>
      <trkpt lat="46.66743" lon="6.06808">
        <ele>991.9</ele>
        <time>2020-06-14T14:05:18Z</time>
      </trkpt>
      <trkpt lat="46.66741" lon="6.06802">
        <ele>991.8</ele>
        <time>2020-06-14T14:05:23Z</time>
      </trkpt>
      <trkpt lat="46.66739" lon="6.06797">
        <ele>991.8</ele>
        <time>2020-06-14T14:05:26Z</time>
      </trkpt>
      <trkpt lat="46.66735" lon="6.06792">
        <ele>991.8</ele>
        <time>2020-06-14T14:05:31Z</time>
      </trkpt>
      <trkpt lat="46.66732" lon="6.06787">
        <ele>991.7</ele>
        <time>2020-06-14T14:05:36Z</time>
      </trkpt>
      <trkpt lat="46.66728" lon="6.06781">
        <ele>991.6</ele>
        <time>2020-06-14T14:05:41Z</time>
      </trkpt>
      <trkpt lat="46.66726" lon="6.06775">
        <ele>991.9</ele>
        <time>2020-06-14T14:05:45Z</time>
      </trkpt>
      <trkpt lat="46.66723" lon="6.0677">
        <ele>992.1</ele>
        <time>2020-06-14T14:05:50Z</time>
      </trkpt>
      <trkpt lat="46.6672" lon="6.06763">
        <ele>992.4</ele>
        <time>2020-06-14T14:05:55Z</time>
      </trkpt>
      <trkpt lat="46.66718" lon="6.06757">
        <ele>992.8</ele>
        <time>2020-06-14T14:06:00Z</time>
      </trkpt>
      <trkpt lat="46.66715" lon="6.06753">
        <ele>993.6</ele>
        <time>2020-06-14T14:06:09Z</time>
      </trkpt>
      <trkpt lat="46.66712" lon="6.06747">
        <ele>995.2</ele>
        <time>2020-06-14T14:06:15Z</time>
      </trkpt>
      <trkpt lat="46.66709" lon="6.06741">
        <ele>996.4</ele>
        <time>2020-06-14T14:06:19Z</time>
      </trkpt>
      <trkpt lat="46.66707" lon="6.06734">
        <ele>997.5</ele>
        <time>2020-06-14T14:06:23Z</time>
      </trkpt>
      <trkpt lat="46.66704" lon="6.06728">
        <ele>998.6</ele>
        <time>2020-06-14T14:06:29Z</time>
      </trkpt>
      <trkpt lat="46.66701" lon="6.06722">
        <ele>999.6</ele>
        <time>2020-06-14T14:06:35Z</time>
      </trkpt>
      <trkpt lat="46.66699" lon="6.06715">
        <ele>1000.3</ele>
        <time>2020-06-14T14:06:41Z</time>
      </trkpt>
      <trkpt lat="46.66697" lon="6.06709">
        <ele>1000.7</ele>
        <time>2020-06-14T14:06:45Z</time>
      </trkpt>
      <trkpt lat="46.66695" lon="6.06703">
        <ele>1000.8</ele>
        <time>2020-06-14T14:06:49Z</time>
      </trkpt>
      <trkpt lat="46.66692" lon="6.06696">
        <ele>1001</ele>
        <time>2020-06-14T14:06:54Z</time>
      </trkpt>
      <trkpt lat="46.6669" lon="6.06689">
        <ele>1001</ele>
        <time>2020-06-14T14:06:59Z</time>
      </trkpt>
      <trkpt lat="46.66688" lon="6.06683">
        <ele>1000.9</ele>
        <time>2020-06-14T14:07:03Z</time>
      </trkpt>
      <trkpt lat="46.66686" lon="6.06676">
        <ele>1000.9</ele>
        <time>2020-06-14T14:07:07Z</time>
      </trkpt>
      <trkpt lat="46.66684" lon="6.06668">
        <ele>1001</ele>
        <time>2020-06-14T14:07:12Z</time>
      </trkpt>
      <trkpt lat="46.66683" lon="6.06661">
        <ele>1000.7</ele>
        <time>2020-06-14T14:07:18Z</time>
      </trkpt>
      <trkpt lat="46.66679" lon="6.06655">
        <ele>1000.4</ele>
        <time>2020-06-14T14:07:24Z</time>
      </trkpt>
      <trkpt lat="46.66676" lon="6.06649">
        <ele>1000.3</ele>
        <time>2020-06-14T14:07:28Z</time>
      </trkpt>
      <trkpt lat="46.66673" lon="6.06645">
        <ele>1000.5</ele>
        <time>2020-06-14T14:07:32Z</time>
      </trkpt>
      <trkpt lat="46.6667" lon="6.06638">
        <ele>1000.7</ele>
        <time>2020-06-14T14:07:37Z</time>
      </trkpt>
      <trkpt lat="46.66667" lon="6.06632">
        <ele>1001</ele>
        <time>2020-06-14T14:07:42Z</time>
      </trkpt>
      <trkpt lat="46.66665" lon="6.06625">
        <ele>1001.3</ele>
        <time>2020-06-14T14:07:47Z</time>
      </trkpt>
      <trkpt lat="46.66664" lon="6.06619">
        <ele>1001.6</ele>
        <time>2020-06-14T14:07:55Z</time>
      </trkpt>
      <trkpt lat="46.66663" lon="6.0661">
        <ele>1001.7</ele>
        <time>2020-06-14T14:08:00Z</time>
      </trkpt>
      <trkpt lat="46.66661" lon="6.06603">
        <ele>1001.8</ele>
        <time>2020-06-14T14:08:04Z</time>
      </trkpt>
      <trkpt lat="46.66659" lon="6.06595">
        <ele>1001.9</ele>
        <time>2020-06-14T14:08:09Z</time>
      </trkpt>
      <trkpt lat="46.66657" lon="6.0659">
        <ele>1002</ele>
        <time>2020-06-14T14:08:13Z</time>
      </trkpt>
      <trkpt lat="46.66654" lon="6.06584">
        <ele>1002.2</ele>
        <time>2020-06-14T14:08:18Z</time>
      </trkpt>
      <trkpt lat="46.66652" lon="6.06577">
        <ele>1002.2</ele>
        <time>2020-06-14T14:08:25Z</time>
      </trkpt>
      <trkpt lat="46.66651" lon="6.0657">
        <ele>1002</ele>
        <time>2020-06-14T14:08:31Z</time>
      </trkpt>
      <trkpt lat="46.66649" lon="6.06563">
        <ele>1002</ele>
        <time>2020-06-14T14:08:36Z</time>
      </trkpt>
      <trkpt lat="46.66646" lon="6.06557">
        <ele>1001.7</ele>
        <time>2020-06-14T14:08:42Z</time>
      </trkpt>
      <trkpt lat="46.66644" lon="6.06551">
        <ele>1001.4</ele>
        <time>2020-06-14T14:08:48Z</time>
      </trkpt>
      <trkpt lat="46.66642" lon="6.06545">
        <ele>1001.1</ele>
        <time>2020-06-14T14:08:53Z</time>
      </trkpt>
      <trkpt lat="46.6664" lon="6.06539">
        <ele>1000.8</ele>
        <time>2020-06-14T14:08:58Z</time>
      </trkpt>
      <trkpt lat="46.66638" lon="6.06532">
        <ele>1000.4</ele>
        <time>2020-06-14T14:09:03Z</time>
      </trkpt>
      <trkpt lat="46.66635" lon="6.06526">
        <ele>1000</ele>
        <time>2020-06-14T14:09:08Z</time>
      </trkpt>
      <trkpt lat="46.66633" lon="6.06521">
        <ele>999.4</ele>
        <time>2020-06-14T14:09:12Z</time>
      </trkpt>
      <trkpt lat="46.66631" lon="6.06513">
        <ele>998.8</ele>
        <time>2020-06-14T14:09:17Z</time>
      </trkpt>
      <trkpt lat="46.66629" lon="6.06507">
        <ele>998.5</ele>
        <time>2020-06-14T14:09:20Z</time>
      </trkpt>
      <trkpt lat="46.66627" lon="6.065">
        <ele>997.9</ele>
        <time>2020-06-14T14:09:25Z</time>
      </trkpt>
      <trkpt lat="46.66624" lon="6.06494">
        <ele>997.3</ele>
        <time>2020-06-14T14:09:30Z</time>
      </trkpt>
      <trkpt lat="46.66622" lon="6.06487">
        <ele>996.5</ele>
        <time>2020-06-14T14:09:36Z</time>
      </trkpt>
      <trkpt lat="46.66619" lon="6.06482">
        <ele>996</ele>
        <time>2020-06-14T14:09:41Z</time>
      </trkpt>
      <trkpt lat="46.66616" lon="6.06476">
        <ele>995.2</ele>
        <time>2020-06-14T14:09:46Z</time>
      </trkpt>
      <trkpt lat="46.66613" lon="6.0647">
        <ele>994.1</ele>
        <time>2020-06-14T14:09:51Z</time>
      </trkpt>
      <trkpt lat="46.66612" lon="6.06463">
        <ele>993.1</ele>
        <time>2020-06-14T14:09:57Z</time>
      </trkpt>
      <trkpt lat="46.6661" lon="6.06456">
        <ele>992.4</ele>
        <time>2020-06-14T14:10:03Z</time>
      </trkpt>
      <trkpt lat="46.66608" lon="6.0645">
        <ele>991.6</ele>
        <time>2020-06-14T14:10:08Z</time>
      </trkpt>
      <trkpt lat="46.66605" lon="6.06444">
        <ele>990.6</ele>
        <time>2020-06-14T14:10:14Z</time>
      </trkpt>
      <trkpt lat="46.66603" lon="6.06437">
        <ele>989.6</ele>
        <time>2020-06-14T14:10:21Z</time>
      </trkpt>
      <trkpt lat="46.66601" lon="6.06431">
        <ele>988.5</ele>
        <time>2020-06-14T14:10:28Z</time>
      </trkpt>
      <trkpt lat="46.66597" lon="6.06424">
        <ele>987.7</ele>
        <time>2020-06-14T14:10:33Z</time>
      </trkpt>
      <trkpt lat="46.66595" lon="6.06418">
        <ele>986.9</ele>
        <time>2020-06-14T14:10:38Z</time>
      </trkpt>
      <trkpt lat="46.66592" lon="6.06413">
        <ele>986</ele>
        <time>2020-06-14T14:10:45Z</time>
      </trkpt>
      <trkpt lat="46.66589" lon="6.06407">
        <ele>985.3</ele>
        <time>2020-06-14T14:10:52Z</time>
      </trkpt>
      <trkpt lat="46.66586" lon="6.06401">
        <ele>984.7</ele>
        <time>2020-06-14T14:10:56Z</time>
      </trkpt>
      <trkpt lat="46.66584" lon="6.06394">
        <ele>983.5</ele>
        <time>2020-06-14T14:11:02Z</time>
      </trkpt>
      <trkpt lat="46.66581" lon="6.06389">
        <ele>982.7</ele>
        <time>2020-06-14T14:11:06Z</time>
      </trkpt>
      <trkpt lat="46.66578" lon="6.06382">
        <ele>981.7</ele>
        <time>2020-06-14T14:11:11Z</time>
      </trkpt>
      <trkpt lat="46.66578" lon="6.06375">
        <ele>980.4</ele>
        <time>2020-06-14T14:11:19Z</time>
      </trkpt>
      <trkpt lat="46.66576" lon="6.06368">
        <ele>978.6</ele>
        <time>2020-06-14T14:11:31Z</time>
      </trkpt>
      <trkpt lat="46.66574" lon="6.06362">
        <ele>978</ele>
        <time>2020-06-14T14:11:36Z</time>
      </trkpt>
      <trkpt lat="46.6657" lon="6.06357">
        <ele>977.8</ele>
        <time>2020-06-14T14:11:44Z</time>
      </trkpt>
      <trkpt lat="46.66568" lon="6.06351">
        <ele>977.5</ele>
        <time>2020-06-14T14:11:49Z</time>
      </trkpt>
      <trkpt lat="46.66565" lon="6.06345">
        <ele>976.9</ele>
        <time>2020-06-14T14:11:55Z</time>
      </trkpt>
      <trkpt lat="46.66563" lon="6.06338">
        <ele>976</ele>
        <time>2020-06-14T14:12:02Z</time>
      </trkpt>
      <trkpt lat="46.66561" lon="6.06332">
        <ele>975.5</ele>
        <time>2020-06-14T14:12:07Z</time>
      </trkpt>
      <trkpt lat="46.66557" lon="6.06327">
        <ele>974.2</ele>
        <time>2020-06-14T14:12:15Z</time>
      </trkpt>
      <trkpt lat="46.66553" lon="6.06323">
        <ele>972.8</ele>
        <time>2020-06-14T14:12:21Z</time>
      </trkpt>
      <trkpt lat="46.6655" lon="6.06318">
        <ele>971.5</ele>
        <time>2020-06-14T14:12:26Z</time>
      </trkpt>
      <trkpt lat="46.66548" lon="6.06312">
        <ele>968.1</ele>
        <time>2020-06-14T14:12:49Z</time>
      </trkpt>
      <trkpt lat="46.66544" lon="6.06307">
        <ele>967.2</ele>
        <time>2020-06-14T14:12:55Z</time>
      </trkpt>
      <trkpt lat="46.66544" lon="6.063">
        <ele>963.7</ele>
        <time>2020-06-14T14:13:09Z</time>
      </trkpt>
      <trkpt lat="46.6654" lon="6.06296">
        <ele>961.9</ele>
        <time>2020-06-14T14:13:15Z</time>
      </trkpt>
      <trkpt lat="46.66535" lon="6.06293">
        <ele>960.5</ele>
        <time>2020-06-14T14:13:22Z</time>
      </trkpt>
      <trkpt lat="46.6653" lon="6.0629">
        <ele>959.8</ele>
        <time>2020-06-14T14:13:27Z</time>
      </trkpt>
      <trkpt lat="46.66525" lon="6.06287">
        <ele>959.2</ele>
        <time>2020-06-14T14:13:32Z</time>
      </trkpt>
      <trkpt lat="46.66521" lon="6.06284">
        <ele>958.6</ele>
        <time>2020-06-14T14:13:36Z</time>
      </trkpt>
      <trkpt lat="46.66516" lon="6.06282">
        <ele>955.9</ele>
        <time>2020-06-14T14:13:48Z</time>
      </trkpt>
      <trkpt lat="46.66513" lon="6.06278">
        <ele>951.3</ele>
        <time>2020-06-14T14:14:35Z</time>
      </trkpt>
      <trkpt lat="46.66512" lon="6.06271">
        <ele>952.3</ele>
        <time>2020-06-14T14:14:44Z</time>
      </trkpt>
      <trkpt lat="46.66513" lon="6.06263">
        <ele>953</ele>
        <time>2020-06-14T14:14:50Z</time>
      </trkpt>
      <trkpt lat="46.66517" lon="6.0625">
        <ele>953.6</ele>
        <time>2020-06-14T14:15:13Z</time>
      </trkpt>
      <trkpt lat="46.66516" lon="6.06244">
        <ele>953.1</ele>
        <time>2020-06-14T14:15:18Z</time>
      </trkpt>
      <trkpt lat="46.66514" lon="6.06237">
        <ele>952.8</ele>
        <time>2020-06-14T14:15:24Z</time>
      </trkpt>
      <trkpt lat="46.66513" lon="6.0623">
        <ele>952.8</ele>
        <time>2020-06-14T14:15:31Z</time>
      </trkpt>
      <trkpt lat="46.66511" lon="6.06224">
        <ele>953.2</ele>
        <time>2020-06-14T14:15:37Z</time>
      </trkpt>
      <trkpt lat="46.66509" lon="6.06217">
        <ele>954.6</ele>
        <time>2020-06-14T14:15:48Z</time>
      </trkpt>
      <trkpt lat="46.66505" lon="6.06213">
        <ele>956.2</ele>
        <time>2020-06-14T14:15:56Z</time>
      </trkpt>
      <trkpt lat="46.66503" lon="6.06207">
        <ele>958.1</ele>
        <time>2020-06-14T14:16:03Z</time>
      </trkpt>
      <trkpt lat="46.66501" lon="6.062">
        <ele>960.4</ele>
        <time>2020-06-14T14:16:12Z</time>
      </trkpt>
      <trkpt lat="46.66501" lon="6.06194">
        <ele>961.7</ele>
        <time>2020-06-14T14:16:27Z</time>
      </trkpt>
      <trkpt lat="46.66503" lon="6.06199">
        <ele>961.4</ele>
        <time>2020-06-14T14:16:49Z</time>
      </trkpt>
      <trkpt lat="46.66502" lon="6.06193">
        <ele>963.8</ele>
        <time>2020-06-14T14:17:17Z</time>
      </trkpt>
      <trkpt lat="46.665" lon="6.06187">
        <ele>964.4</ele>
        <time>2020-06-14T14:17:26Z</time>
      </trkpt>
      <trkpt lat="46.66496" lon="6.06182">
        <ele>964.7</ele>
        <time>2020-06-14T14:17:31Z</time>
      </trkpt>
      <trkpt lat="46.66493" lon="6.06177">
        <ele>965.3</ele>
        <time>2020-06-14T14:17:37Z</time>
      </trkpt>
      <trkpt lat="46.66492" lon="6.06171">
        <ele>965.9</ele>
        <time>2020-06-14T14:17:43Z</time>
      </trkpt>
      <trkpt lat="46.66488" lon="6.06165">
        <ele>967</ele>
        <time>2020-06-14T14:17:50Z</time>
      </trkpt>
      <trkpt lat="46.66487" lon="6.06158">
        <ele>968.5</ele>
        <time>2020-06-14T14:17:56Z</time>
      </trkpt>
      <trkpt lat="46.66485" lon="6.06151">
        <ele>970.1</ele>
        <time>2020-06-14T14:18:01Z</time>
      </trkpt>
      <trkpt lat="46.66483" lon="6.06145">
        <ele>971.5</ele>
        <time>2020-06-14T14:18:06Z</time>
      </trkpt>
      <trkpt lat="46.6648" lon="6.06139">
        <ele>973.1</ele>
        <time>2020-06-14T14:18:13Z</time>
      </trkpt>
      <trkpt lat="46.66477" lon="6.06133">
        <ele>974</ele>
        <time>2020-06-14T14:18:19Z</time>
      </trkpt>
      <trkpt lat="46.66475" lon="6.06126">
        <ele>974.7</ele>
        <time>2020-06-14T14:18:26Z</time>
      </trkpt>
      <trkpt lat="46.66474" lon="6.0612">
        <ele>975.5</ele>
        <time>2020-06-14T14:18:34Z</time>
      </trkpt>
      <trkpt lat="46.66478" lon="6.06115">
        <ele>977.3</ele>
        <time>2020-06-14T14:18:44Z</time>
      </trkpt>
      <trkpt lat="46.66482" lon="6.06112">
        <ele>978.9</ele>
        <time>2020-06-14T14:18:52Z</time>
      </trkpt>
      <trkpt lat="46.66486" lon="6.06112">
        <ele>982.5</ele>
        <time>2020-06-14T14:19:19Z</time>
      </trkpt>
      <trkpt lat="46.66485" lon="6.06105">
        <ele>983.2</ele>
        <time>2020-06-14T14:19:26Z</time>
      </trkpt>
      <trkpt lat="46.66483" lon="6.06098">
        <ele>983.6</ele>
        <time>2020-06-14T14:19:31Z</time>
      </trkpt>
      <trkpt lat="46.66481" lon="6.06091">
        <ele>983.8</ele>
        <time>2020-06-14T14:19:37Z</time>
      </trkpt>
      <trkpt lat="46.6648" lon="6.06085">
        <ele>984</ele>
        <time>2020-06-14T14:19:42Z</time>
      </trkpt>
      <trkpt lat="46.66478" lon="6.06079">
        <ele>984.3</ele>
        <time>2020-06-14T14:19:49Z</time>
      </trkpt>
      <trkpt lat="46.66476" lon="6.06071">
        <ele>984.4</ele>
        <time>2020-06-14T14:20:02Z</time>
      </trkpt>
      <trkpt lat="46.66475" lon="6.06065">
        <ele>984.6</ele>
        <time>2020-06-14T14:20:06Z</time>
      </trkpt>
      <trkpt lat="46.66472" lon="6.06059">
        <ele>984.8</ele>
        <time>2020-06-14T14:20:11Z</time>
      </trkpt>
      <trkpt lat="46.66471" lon="6.06052">
        <ele>985</ele>
        <time>2020-06-14T14:20:17Z</time>
      </trkpt>
      <trkpt lat="46.66471" lon="6.06045">
        <ele>985.1</ele>
        <time>2020-06-14T14:20:21Z</time>
      </trkpt>
      <trkpt lat="46.66469" lon="6.06039">
        <ele>985.1</ele>
        <time>2020-06-14T14:20:25Z</time>
      </trkpt>
      <trkpt lat="46.66468" lon="6.06032">
        <ele>985.5</ele>
        <time>2020-06-14T14:20:31Z</time>
      </trkpt>
      <trkpt lat="46.66466" lon="6.06025">
        <ele>985.8</ele>
        <time>2020-06-14T14:20:38Z</time>
      </trkpt>
      <trkpt lat="46.66464" lon="6.0602">
        <ele>986</ele>
        <time>2020-06-14T14:20:44Z</time>
      </trkpt>
      <trkpt lat="46.66461" lon="6.06015">
        <ele>989.1</ele>
        <time>2020-06-14T14:21:17Z</time>
      </trkpt>
      <trkpt lat="46.66457" lon="6.0602">
        <ele>991.9</ele>
        <time>2020-06-14T14:21:57Z</time>
      </trkpt>
      <trkpt lat="46.66456" lon="6.06012">
        <ele>991.9</ele>
        <time>2020-06-14T14:22:22Z</time>
      </trkpt>
      <trkpt lat="46.66456" lon="6.06005">
        <ele>991.9</ele>
        <time>2020-06-14T14:22:26Z</time>
      </trkpt>
      <trkpt lat="46.66456" lon="6.05998">
        <ele>992.1</ele>
        <time>2020-06-14T14:22:32Z</time>
      </trkpt>
      <trkpt lat="46.66457" lon="6.05991">
        <ele>992.3</ele>
        <time>2020-06-14T14:22:38Z</time>
      </trkpt>
      <trkpt lat="46.66457" lon="6.05985">
        <ele>992.3</ele>
        <time>2020-06-14T14:22:47Z</time>
      </trkpt>
      <trkpt lat="46.66456" lon="6.05978">
        <ele>992.4</ele>
        <time>2020-06-14T14:22:56Z</time>
      </trkpt>
      <trkpt lat="46.66455" lon="6.05972">
        <ele>992.8</ele>
        <time>2020-06-14T14:23:03Z</time>
      </trkpt>
      <trkpt lat="46.66452" lon="6.05965">
        <ele>993.3</ele>
        <time>2020-06-14T14:23:08Z</time>
      </trkpt>
      <trkpt lat="46.66451" lon="6.05959">
        <ele>994.2</ele>
        <time>2020-06-14T14:23:15Z</time>
      </trkpt>
      <trkpt lat="46.66449" lon="6.05952">
        <ele>995.3</ele>
        <time>2020-06-14T14:23:25Z</time>
      </trkpt>
      <trkpt lat="46.66449" lon="6.05946">
        <ele>996.7</ele>
        <time>2020-06-14T14:23:38Z</time>
      </trkpt>
      <trkpt lat="46.6645" lon="6.05939">
        <ele>998.6</ele>
        <time>2020-06-14T14:23:48Z</time>
      </trkpt>
      <trkpt lat="46.66447" lon="6.05932">
        <ele>1000.1</ele>
        <time>2020-06-14T14:23:57Z</time>
      </trkpt>
      <trkpt lat="46.66448" lon="6.05925">
        <ele>1005</ele>
        <time>2020-06-14T14:24:36Z</time>
      </trkpt>
      <trkpt lat="46.66449" lon="6.05918">
        <ele>1006.2</ele>
        <time>2020-06-14T14:24:47Z</time>
      </trkpt>
      <trkpt lat="46.66448" lon="6.05911">
        <ele>1007.2</ele>
        <time>2020-06-14T14:24:54Z</time>
      </trkpt>
      <trkpt lat="46.66446" lon="6.05905">
        <ele>1008.4</ele>
        <time>2020-06-14T14:25:00Z</time>
      </trkpt>
      <trkpt lat="46.66447" lon="6.05898">
        <ele>1010</ele>
        <time>2020-06-14T14:25:07Z</time>
      </trkpt>
      <trkpt lat="46.66447" lon="6.05891">
        <ele>1011.1</ele>
        <time>2020-06-14T14:25:13Z</time>
      </trkpt>
      <trkpt lat="46.66446" lon="6.05884">
        <ele>1012.4</ele>
        <time>2020-06-14T14:25:20Z</time>
      </trkpt>
      <trkpt lat="46.66445" lon="6.05878">
        <ele>1013.7</ele>
        <time>2020-06-14T14:25:26Z</time>
      </trkpt>
      <trkpt lat="46.66446" lon="6.05869">
        <ele>1014.9</ele>
        <time>2020-06-14T14:25:31Z</time>
      </trkpt>
      <trkpt lat="46.66446" lon="6.05863">
        <ele>1016.4</ele>
        <time>2020-06-14T14:25:38Z</time>
      </trkpt>
      <trkpt lat="46.66446" lon="6.05855">
        <ele>1017.7</ele>
        <time>2020-06-14T14:25:46Z</time>
      </trkpt>
      <trkpt lat="46.66447" lon="6.05848">
        <ele>1018.6</ele>
        <time>2020-06-14T14:25:52Z</time>
      </trkpt>
      <trkpt lat="46.66448" lon="6.05841">
        <ele>1019.1</ele>
        <time>2020-06-14T14:25:58Z</time>
      </trkpt>
      <trkpt lat="46.66446" lon="6.05834">
        <ele>1019.5</ele>
        <time>2020-06-14T14:26:04Z</time>
      </trkpt>
      <trkpt lat="46.66446" lon="6.05827">
        <ele>1021.4</ele>
        <time>2020-06-14T14:26:17Z</time>
      </trkpt>
      <trkpt lat="46.66444" lon="6.05821">
        <ele>1023.5</ele>
        <time>2020-06-14T14:26:26Z</time>
      </trkpt>
      <trkpt lat="46.6645" lon="6.05815">
        <ele>1026</ele>
        <time>2020-06-14T14:27:13Z</time>
      </trkpt>
      <trkpt lat="46.66446" lon="6.0582">
        <ele>1026.4</ele>
        <time>2020-06-14T14:27:42Z</time>
      </trkpt>
      <trkpt lat="46.66443" lon="6.05824">
        <ele>1026.6</ele>
        <time>2020-06-14T14:27:52Z</time>
      </trkpt>
      <trkpt lat="46.66446" lon="6.05819">
        <ele>1027.1</ele>
        <time>2020-06-14T14:28:14Z</time>
      </trkpt>
      <trkpt lat="46.66449" lon="6.05814">
        <ele>1027</ele>
        <time>2020-06-14T14:28:19Z</time>
      </trkpt>
      <trkpt lat="46.66446" lon="6.05819">
        <ele>1026.5</ele>
        <time>2020-06-14T14:28:47Z</time>
      </trkpt>
      <trkpt lat="46.66448" lon="6.05815">
        <ele>1036</ele>
        <time>2020-06-14T14:34:34Z</time>
      </trkpt>
      <trkpt lat="46.66449" lon="6.05808">
        <ele>1037</ele>
        <time>2020-06-14T14:34:40Z</time>
      </trkpt>
      <trkpt lat="46.66449" lon="6.05801">
        <ele>1037.8</ele>
        <time>2020-06-14T14:35:14Z</time>
      </trkpt>
      <trkpt lat="46.66447" lon="6.05795">
        <ele>1037.4</ele>
        <time>2020-06-14T14:35:20Z</time>
      </trkpt>
      <trkpt lat="46.66445" lon="6.05787">
        <ele>1037.5</ele>
        <time>2020-06-14T14:35:26Z</time>
      </trkpt>
      <trkpt lat="46.66444" lon="6.05781">
        <ele>1037.7</ele>
        <time>2020-06-14T14:35:29Z</time>
      </trkpt>
      <trkpt lat="46.66442" lon="6.05775">
        <ele>1038.3</ele>
        <time>2020-06-14T14:35:33Z</time>
      </trkpt>
      <trkpt lat="46.66438" lon="6.05769">
        <ele>1038.9</ele>
        <time>2020-06-14T14:35:37Z</time>
      </trkpt>
      <trkpt lat="46.66436" lon="6.05763">
        <ele>1039.3</ele>
        <time>2020-06-14T14:35:40Z</time>
      </trkpt>
      <trkpt lat="46.66434" lon="6.05756">
        <ele>1039.9</ele>
        <time>2020-06-14T14:35:46Z</time>
      </trkpt>
      <trkpt lat="46.66433" lon="6.05743">
        <ele>1041.3</ele>
        <time>2020-06-14T14:36:01Z</time>
      </trkpt>
      <trkpt lat="46.66432" lon="6.05736">
        <ele>1041.4</ele>
        <time>2020-06-14T14:36:06Z</time>
      </trkpt>
      <trkpt lat="46.66428" lon="6.05725">
        <ele>1041.8</ele>
        <time>2020-06-14T14:36:16Z</time>
      </trkpt>
      <trkpt lat="46.66427" lon="6.05718">
        <ele>1042</ele>
        <time>2020-06-14T14:36:22Z</time>
      </trkpt>
      <trkpt lat="46.66424" lon="6.05712">
        <ele>1042.5</ele>
        <time>2020-06-14T14:36:28Z</time>
      </trkpt>
      <trkpt lat="46.66422" lon="6.05705">
        <ele>1043.1</ele>
        <time>2020-06-14T14:36:34Z</time>
      </trkpt>
      <trkpt lat="46.66419" lon="6.05699">
        <ele>1043.6</ele>
        <time>2020-06-14T14:36:41Z</time>
      </trkpt>
      <trkpt lat="46.66417" lon="6.05693">
        <ele>1043.6</ele>
        <time>2020-06-14T14:36:48Z</time>
      </trkpt>
      <trkpt lat="46.66415" lon="6.05686">
        <ele>1043.3</ele>
        <time>2020-06-14T14:36:54Z</time>
      </trkpt>
      <trkpt lat="46.66414" lon="6.05679">
        <ele>1042.8</ele>
        <time>2020-06-14T14:36:59Z</time>
      </trkpt>
      <trkpt lat="46.66411" lon="6.05673">
        <ele>1041.9</ele>
        <time>2020-06-14T14:37:05Z</time>
      </trkpt>
      <trkpt lat="46.66409" lon="6.05666">
        <ele>1040.6</ele>
        <time>2020-06-14T14:37:10Z</time>
      </trkpt>
      <trkpt lat="46.66406" lon="6.05659">
        <ele>1039.5</ele>
        <time>2020-06-14T14:37:15Z</time>
      </trkpt>
      <trkpt lat="46.66404" lon="6.05654">
        <ele>1038.7</ele>
        <time>2020-06-14T14:37:19Z</time>
      </trkpt>
      <trkpt lat="46.66402" lon="6.05647">
        <ele>1037.9</ele>
        <time>2020-06-14T14:37:24Z</time>
      </trkpt>
      <trkpt lat="46.664" lon="6.0564">
        <ele>1037.3</ele>
        <time>2020-06-14T14:37:29Z</time>
      </trkpt>
      <trkpt lat="46.66399" lon="6.05632">
        <ele>1036.8</ele>
        <time>2020-06-14T14:37:34Z</time>
      </trkpt>
      <trkpt lat="46.66397" lon="6.05626">
        <ele>1036.2</ele>
        <time>2020-06-14T14:37:41Z</time>
      </trkpt>
      <trkpt lat="46.66394" lon="6.05621">
        <ele>1035.1</ele>
        <time>2020-06-14T14:37:56Z</time>
      </trkpt>
      <trkpt lat="46.66391" lon="6.05615">
        <ele>1034.9</ele>
        <time>2020-06-14T14:38:00Z</time>
      </trkpt>
      <trkpt lat="46.66389" lon="6.0561">
        <ele>1034.5</ele>
        <time>2020-06-14T14:38:06Z</time>
      </trkpt>
      <trkpt lat="46.66387" lon="6.05603">
        <ele>1034.2</ele>
        <time>2020-06-14T14:38:13Z</time>
      </trkpt>
      <trkpt lat="46.66385" lon="6.05596">
        <ele>1034.1</ele>
        <time>2020-06-14T14:38:18Z</time>
      </trkpt>
      <trkpt lat="46.66383" lon="6.05589">
        <ele>1033.9</ele>
        <time>2020-06-14T14:38:23Z</time>
      </trkpt>
      <trkpt lat="46.66383" lon="6.05583">
        <ele>1033.6</ele>
        <time>2020-06-14T14:38:28Z</time>
      </trkpt>
      <trkpt lat="46.66381" lon="6.05576">
        <ele>1031.8</ele>
        <time>2020-06-14T14:38:56Z</time>
      </trkpt>
      <trkpt lat="46.66385" lon="6.05571">
        <ele>1031.7</ele>
        <time>2020-06-14T14:39:03Z</time>
      </trkpt>
      <trkpt lat="46.66389" lon="6.0557">
        <ele>1032.2</ele>
        <time>2020-06-14T14:39:11Z</time>
      </trkpt>
      <trkpt lat="46.66386" lon="6.05566">
        <ele>1032.1</ele>
        <time>2020-06-14T14:39:27Z</time>
      </trkpt>
      <trkpt lat="46.66383" lon="6.0556">
        <ele>1031.8</ele>
        <time>2020-06-14T14:39:33Z</time>
      </trkpt>
      <trkpt lat="46.66382" lon="6.05554">
        <ele>1031.8</ele>
        <time>2020-06-14T14:39:38Z</time>
      </trkpt>
      <trkpt lat="46.66383" lon="6.05547">
        <ele>1032.1</ele>
        <time>2020-06-14T14:39:43Z</time>
      </trkpt>
      <trkpt lat="46.66387" lon="6.05542">
        <ele>1033.4</ele>
        <time>2020-06-14T14:40:23Z</time>
      </trkpt>
      <trkpt lat="46.66391" lon="6.05538">
        <ele>1033.1</ele>
        <time>2020-06-14T14:40:31Z</time>
      </trkpt>
      <trkpt lat="46.66393" lon="6.05532">
        <ele>1033.1</ele>
        <time>2020-06-14T14:40:39Z</time>
      </trkpt>
      <trkpt lat="46.66395" lon="6.05526">
        <ele>1033</ele>
        <time>2020-06-14T14:40:47Z</time>
      </trkpt>
      <trkpt lat="46.66396" lon="6.0552">
        <ele>1033.2</ele>
        <time>2020-06-14T14:40:56Z</time>
      </trkpt>
      <trkpt lat="46.66393" lon="6.05514">
        <ele>1033.2</ele>
        <time>2020-06-14T14:41:00Z</time>
      </trkpt>
      <trkpt lat="46.6639" lon="6.05508">
        <ele>1033.1</ele>
        <time>2020-06-14T14:41:05Z</time>
      </trkpt>
      <trkpt lat="46.66388" lon="6.05502">
        <ele>1033</ele>
        <time>2020-06-14T14:41:11Z</time>
      </trkpt>
      <trkpt lat="46.66386" lon="6.05495">
        <ele>1032.8</ele>
        <time>2020-06-14T14:41:17Z</time>
      </trkpt>
      <trkpt lat="46.66383" lon="6.05489">
        <ele>1032.7</ele>
        <time>2020-06-14T14:41:24Z</time>
      </trkpt>
      <trkpt lat="46.66382" lon="6.05482">
        <ele>1032.8</ele>
        <time>2020-06-14T14:41:32Z</time>
      </trkpt>
      <trkpt lat="46.66384" lon="6.05476">
        <ele>1033</ele>
        <time>2020-06-14T14:41:39Z</time>
      </trkpt>
      <trkpt lat="46.66381" lon="6.05472">
        <ele>1033.2</ele>
        <time>2020-06-14T14:41:47Z</time>
      </trkpt>
      <trkpt lat="46.66376" lon="6.05472">
        <ele>1033.4</ele>
        <time>2020-06-14T14:41:56Z</time>
      </trkpt>
      <trkpt lat="46.66373" lon="6.05466">
        <ele>1033.5</ele>
        <time>2020-06-14T14:42:05Z</time>
      </trkpt>
      <trkpt lat="46.66371" lon="6.05459">
        <ele>1033</ele>
        <time>2020-06-14T14:42:13Z</time>
      </trkpt>
      <trkpt lat="46.66369" lon="6.05452">
        <ele>1032.4</ele>
        <time>2020-06-14T14:42:20Z</time>
      </trkpt>
      <trkpt lat="46.66366" lon="6.05446">
        <ele>1032</ele>
        <time>2020-06-14T14:42:26Z</time>
      </trkpt>
      <trkpt lat="46.66364" lon="6.05439">
        <ele>1031.8</ele>
        <time>2020-06-14T14:42:32Z</time>
      </trkpt>
      <trkpt lat="46.66365" lon="6.05433">
        <ele>1031.4</ele>
        <time>2020-06-14T14:42:41Z</time>
      </trkpt>
      <trkpt lat="46.66371" lon="6.05431">
        <ele>1031.3</ele>
        <time>2020-06-14T14:42:49Z</time>
      </trkpt>
      <trkpt lat="46.66368" lon="6.05426">
        <ele>1028.8</ele>
        <time>2020-06-14T14:43:10Z</time>
      </trkpt>
      <trkpt lat="46.6637" lon="6.05418">
        <ele>1029.1</ele>
        <time>2020-06-14T14:43:19Z</time>
      </trkpt>
      <trkpt lat="46.66373" lon="6.05409">
        <ele>1029.7</ele>
        <time>2020-06-14T14:43:25Z</time>
      </trkpt>
      <trkpt lat="46.66374" lon="6.05402">
        <ele>1030.2</ele>
        <time>2020-06-14T14:43:28Z</time>
      </trkpt>
      <trkpt lat="46.66373" lon="6.05395">
        <ele>1030.7</ele>
        <time>2020-06-14T14:43:31Z</time>
      </trkpt>
      <trkpt lat="46.66372" lon="6.05388">
        <ele>1031.5</ele>
        <time>2020-06-14T14:43:35Z</time>
      </trkpt>
      <trkpt lat="46.66372" lon="6.05381">
        <ele>1032.5</ele>
        <time>2020-06-14T14:43:39Z</time>
      </trkpt>
      <trkpt lat="46.66372" lon="6.05373">
        <ele>1033.7</ele>
        <time>2020-06-14T14:43:44Z</time>
      </trkpt>
      <trkpt lat="46.6637" lon="6.05366">
        <ele>1034.6</ele>
        <time>2020-06-14T14:43:49Z</time>
      </trkpt>
      <trkpt lat="46.6637" lon="6.05359">
        <ele>1035.5</ele>
        <time>2020-06-14T14:43:56Z</time>
      </trkpt>
      <trkpt lat="46.66369" lon="6.05352">
        <ele>1035.8</ele>
        <time>2020-06-14T14:44:02Z</time>
      </trkpt>
      <trkpt lat="46.66366" lon="6.05346">
        <ele>1036.1</ele>
        <time>2020-06-14T14:44:06Z</time>
      </trkpt>
      <trkpt lat="46.66365" lon="6.05339">
        <ele>1036.8</ele>
        <time>2020-06-14T14:44:21Z</time>
      </trkpt>
      <trkpt lat="46.66364" lon="6.05331">
        <ele>1037.2</ele>
        <time>2020-06-14T14:44:26Z</time>
      </trkpt>
      <trkpt lat="46.66359" lon="6.05323">
        <ele>1037.3</ele>
        <time>2020-06-14T14:45:08Z</time>
      </trkpt>
      <trkpt lat="46.66356" lon="6.05317">
        <ele>1037.2</ele>
        <time>2020-06-14T14:45:13Z</time>
      </trkpt>
      <trkpt lat="46.66354" lon="6.05312">
        <ele>1037.4</ele>
        <time>2020-06-14T14:45:20Z</time>
      </trkpt>
      <trkpt lat="46.66353" lon="6.05304">
        <ele>1036.7</ele>
        <time>2020-06-14T14:45:46Z</time>
      </trkpt>
      <trkpt lat="46.66352" lon="6.05298">
        <ele>1035.7</ele>
        <time>2020-06-14T14:46:01Z</time>
      </trkpt>
      <trkpt lat="46.66352" lon="6.05291">
        <ele>1035</ele>
        <time>2020-06-14T14:46:21Z</time>
      </trkpt>
      <trkpt lat="46.66355" lon="6.05286">
        <ele>1035.4</ele>
        <time>2020-06-14T14:46:36Z</time>
      </trkpt>
      <trkpt lat="46.66358" lon="6.0528">
        <ele>1036.2</ele>
        <time>2020-06-14T14:46:43Z</time>
      </trkpt>
      <trkpt lat="46.6636" lon="6.05274">
        <ele>1036.9</ele>
        <time>2020-06-14T14:46:47Z</time>
      </trkpt>
      <trkpt lat="46.6636" lon="6.05266">
        <ele>1037.8</ele>
        <time>2020-06-14T14:46:51Z</time>
      </trkpt>
      <trkpt lat="46.6636" lon="6.05259">
        <ele>1038.6</ele>
        <time>2020-06-14T14:46:54Z</time>
      </trkpt>
      <trkpt lat="46.6636" lon="6.05252">
        <ele>1039.7</ele>
        <time>2020-06-14T14:46:58Z</time>
      </trkpt>
      <trkpt lat="46.66359" lon="6.05244">
        <ele>1040.9</ele>
        <time>2020-06-14T14:47:03Z</time>
      </trkpt>
      <trkpt lat="46.66356" lon="6.05238">
        <ele>1042.2</ele>
        <time>2020-06-14T14:47:11Z</time>
      </trkpt>
      <trkpt lat="46.66351" lon="6.05232">
        <ele>1044.8</ele>
        <time>2020-06-14T14:47:55Z</time>
      </trkpt>
      <trkpt lat="46.6635" lon="6.05225">
        <ele>1045.6</ele>
        <time>2020-06-14T14:48:49Z</time>
      </trkpt>
      <trkpt lat="46.66353" lon="6.05218">
        <ele>1046.8</ele>
        <time>2020-06-14T14:49:18Z</time>
      </trkpt>
      <trkpt lat="46.66353" lon="6.05211">
        <ele>1047.1</ele>
        <time>2020-06-14T14:49:25Z</time>
      </trkpt>
      <trkpt lat="46.66356" lon="6.05205">
        <ele>1048.9</ele>
        <time>2020-06-14T14:50:01Z</time>
      </trkpt>
      <trkpt lat="46.66361" lon="6.05204">
        <ele>1049</ele>
        <time>2020-06-14T14:50:06Z</time>
      </trkpt>
      <trkpt lat="46.66363" lon="6.0521">
        <ele>1049.2</ele>
        <time>2020-06-14T14:50:13Z</time>
      </trkpt>
      <trkpt lat="46.66364" lon="6.05218">
        <ele>1050.5</ele>
        <time>2020-06-14T14:50:51Z</time>
      </trkpt>
      <trkpt lat="46.66363" lon="6.05224">
        <ele>1050.4</ele>
        <time>2020-06-14T14:50:55Z</time>
      </trkpt>
      <trkpt lat="46.66361" lon="6.05218">
        <ele>1048.7</ele>
        <time>2020-06-14T14:51:30Z</time>
      </trkpt>
      <trkpt lat="46.66361" lon="6.05211">
        <ele>1048.6</ele>
        <time>2020-06-14T14:51:35Z</time>
      </trkpt>
      <trkpt lat="46.66362" lon="6.05204">
        <ele>1048.6</ele>
        <time>2020-06-14T14:51:38Z</time>
      </trkpt>
      <trkpt lat="46.66363" lon="6.05197">
        <ele>1048.6</ele>
        <time>2020-06-14T14:51:42Z</time>
      </trkpt>
      <trkpt lat="46.66365" lon="6.05186">
        <ele>1046.3</ele>
        <time>2020-06-14T14:53:01Z</time>
      </trkpt>
      <trkpt lat="46.66369" lon="6.05181">
        <ele>1045.3</ele>
        <time>2020-06-14T14:53:07Z</time>
      </trkpt>
      <trkpt lat="46.66373" lon="6.05178">
        <ele>1044.8</ele>
        <time>2020-06-14T14:53:13Z</time>
      </trkpt>
      <trkpt lat="46.66374" lon="6.05171">
        <ele>1044.4</ele>
        <time>2020-06-14T14:53:22Z</time>
      </trkpt>
      <trkpt lat="46.66378" lon="6.05167">
        <ele>1043.8</ele>
        <time>2020-06-14T14:53:28Z</time>
      </trkpt>
      <trkpt lat="46.66382" lon="6.05161">
        <ele>1043.2</ele>
        <time>2020-06-14T14:53:32Z</time>
      </trkpt>
      <trkpt lat="46.66386" lon="6.05157">
        <ele>1042.6</ele>
        <time>2020-06-14T14:53:36Z</time>
      </trkpt>
      <trkpt lat="46.66417" lon="6.0514">
        <ele>1044</ele>
        <time>2020-06-14T14:54:35Z</time>
      </trkpt>
      <trkpt lat="46.66422" lon="6.05139">
        <ele>1044.1</ele>
        <time>2020-06-14T14:54:39Z</time>
      </trkpt>
      <trkpt lat="46.66428" lon="6.05138">
        <ele>1044.2</ele>
        <time>2020-06-14T14:54:42Z</time>
      </trkpt>
      <trkpt lat="46.66433" lon="6.05138">
        <ele>1044.5</ele>
        <time>2020-06-14T14:54:48Z</time>
      </trkpt>
      <trkpt lat="46.66443" lon="6.05136">
        <ele>1046.3</ele>
        <time>2020-06-14T14:54:59Z</time>
      </trkpt>
      <trkpt lat="46.66451" lon="6.05133">
        <ele>1046.7</ele>
        <time>2020-06-14T14:55:01Z</time>
      </trkpt>
      <trkpt lat="46.66457" lon="6.05131">
        <ele>1047.4</ele>
        <time>2020-06-14T14:55:04Z</time>
      </trkpt>
      <trkpt lat="46.66464" lon="6.05129">
        <ele>1047.8</ele>
        <time>2020-06-14T14:55:06Z</time>
      </trkpt>
      <trkpt lat="46.66473" lon="6.05126">
        <ele>1048.1</ele>
        <time>2020-06-14T14:55:08Z</time>
      </trkpt>
      <trkpt lat="46.6648" lon="6.05125">
        <ele>1048.4</ele>
        <time>2020-06-14T14:55:10Z</time>
      </trkpt>
      <trkpt lat="46.66484" lon="6.05122">
        <ele>1049.5</ele>
        <time>2020-06-14T14:55:19Z</time>
      </trkpt>
      <trkpt lat="46.66489" lon="6.05121">
        <ele>1049.9</ele>
        <time>2020-06-14T14:55:22Z</time>
      </trkpt>
      <trkpt lat="46.66494" lon="6.0512">
        <ele>1050.3</ele>
        <time>2020-06-14T14:55:26Z</time>
      </trkpt>
      <trkpt lat="46.66499" lon="6.05118">
        <ele>1050.9</ele>
        <time>2020-06-14T14:55:30Z</time>
      </trkpt>
      <trkpt lat="46.66504" lon="6.05116">
        <ele>1051.2</ele>
        <time>2020-06-14T14:55:32Z</time>
      </trkpt>
      <trkpt lat="46.66509" lon="6.05113">
        <ele>1051.7</ele>
        <time>2020-06-14T14:55:36Z</time>
      </trkpt>
      <trkpt lat="46.66515" lon="6.05113">
        <ele>1052.1</ele>
        <time>2020-06-14T14:55:40Z</time>
      </trkpt>
      <trkpt lat="46.66521" lon="6.05113">
        <ele>1052.5</ele>
        <time>2020-06-14T14:55:46Z</time>
      </trkpt>
      <trkpt lat="46.66525" lon="6.05112">
        <ele>1052.6</ele>
        <time>2020-06-14T14:55:51Z</time>
      </trkpt>
      <trkpt lat="46.66529" lon="6.05109">
        <ele>1052.3</ele>
        <time>2020-06-14T14:55:57Z</time>
      </trkpt>
      <trkpt lat="46.66534" lon="6.05105">
        <ele>1051.5</ele>
        <time>2020-06-14T14:56:03Z</time>
      </trkpt>
      <trkpt lat="46.66538" lon="6.05099">
        <ele>1051.1</ele>
        <time>2020-06-14T14:56:07Z</time>
      </trkpt>
      <trkpt lat="46.66541" lon="6.05093">
        <ele>1050.7</ele>
        <time>2020-06-14T14:56:12Z</time>
      </trkpt>
      <trkpt lat="46.66544" lon="6.05086">
        <ele>1050.3</ele>
        <time>2020-06-14T14:56:16Z</time>
      </trkpt>
      <trkpt lat="46.66547" lon="6.05081">
        <ele>1050.1</ele>
        <time>2020-06-14T14:56:20Z</time>
      </trkpt>
      <trkpt lat="46.66551" lon="6.05075">
        <ele>1049.9</ele>
        <time>2020-06-14T14:56:24Z</time>
      </trkpt>
      <trkpt lat="46.66555" lon="6.0507">
        <ele>1049.9</ele>
        <time>2020-06-14T14:56:28Z</time>
      </trkpt>
      <trkpt lat="46.66558" lon="6.05064">
        <ele>1049.5</ele>
        <time>2020-06-14T14:56:35Z</time>
      </trkpt>
      <trkpt lat="46.6656" lon="6.05058">
        <ele>1048.9</ele>
        <time>2020-06-14T14:56:42Z</time>
      </trkpt>
      <trkpt lat="46.66564" lon="6.05054">
        <ele>1048.4</ele>
        <time>2020-06-14T14:56:47Z</time>
      </trkpt>
      <trkpt lat="46.66569" lon="6.05051">
        <ele>1048</ele>
        <time>2020-06-14T14:56:52Z</time>
      </trkpt>
      <trkpt lat="46.66572" lon="6.05047">
        <ele>1047.7</ele>
        <time>2020-06-14T14:56:57Z</time>
      </trkpt>
      <trkpt lat="46.66577" lon="6.05043">
        <ele>1047.2</ele>
        <time>2020-06-14T14:57:03Z</time>
      </trkpt>
      <trkpt lat="46.66581" lon="6.05039">
        <ele>1046.7</ele>
        <time>2020-06-14T14:57:08Z</time>
      </trkpt>
      <trkpt lat="46.66585" lon="6.05034">
        <ele>1046</ele>
        <time>2020-06-14T14:57:13Z</time>
      </trkpt>
      <trkpt lat="46.66589" lon="6.0503">
        <ele>1045.5</ele>
        <time>2020-06-14T14:57:17Z</time>
      </trkpt>
      <trkpt lat="46.66592" lon="6.05025">
        <ele>1045</ele>
        <time>2020-06-14T14:57:21Z</time>
      </trkpt>
      <trkpt lat="46.66596" lon="6.0502">
        <ele>1044.4</ele>
        <time>2020-06-14T14:57:26Z</time>
      </trkpt>
      <trkpt lat="46.66599" lon="6.05014">
        <ele>1043.9</ele>
        <time>2020-06-14T14:57:30Z</time>
      </trkpt>
      <trkpt lat="46.66603" lon="6.0501">
        <ele>1043.2</ele>
        <time>2020-06-14T14:57:35Z</time>
      </trkpt>
      <trkpt lat="46.66607" lon="6.05005">
        <ele>1042.5</ele>
        <time>2020-06-14T14:57:40Z</time>
      </trkpt>
      <trkpt lat="46.66612" lon="6.05">
        <ele>1041.8</ele>
        <time>2020-06-14T14:57:44Z</time>
      </trkpt>
      <trkpt lat="46.66616" lon="6.04996">
        <ele>1040.8</ele>
        <time>2020-06-14T14:57:49Z</time>
      </trkpt>
      <trkpt lat="46.6662" lon="6.04992">
        <ele>1040</ele>
        <time>2020-06-14T14:57:54Z</time>
      </trkpt>
      <trkpt lat="46.66624" lon="6.04988">
        <ele>1039.2</ele>
        <time>2020-06-14T14:57:59Z</time>
      </trkpt>
      <trkpt lat="46.66632" lon="6.04968">
        <ele>1035.5</ele>
        <time>2020-06-14T14:58:15Z</time>
      </trkpt>
      <trkpt lat="46.66634" lon="6.04962">
        <ele>1034.5</ele>
        <time>2020-06-14T14:58:20Z</time>
      </trkpt>
      <trkpt lat="46.66635" lon="6.04955">
        <ele>1033.9</ele>
        <time>2020-06-14T14:58:23Z</time>
      </trkpt>
      <trkpt lat="46.66635" lon="6.04947">
        <ele>1033.3</ele>
        <time>2020-06-14T14:58:27Z</time>
      </trkpt>
      <trkpt lat="46.66635" lon="6.04939">
        <ele>1032.8</ele>
        <time>2020-06-14T14:58:32Z</time>
      </trkpt>
      <trkpt lat="46.66636" lon="6.04932">
        <ele>1033.2</ele>
        <time>2020-06-14T14:58:37Z</time>
      </trkpt>
      <trkpt lat="46.66636" lon="6.04925">
        <ele>1034</ele>
        <time>2020-06-14T14:58:41Z</time>
      </trkpt>
      <trkpt lat="46.66636" lon="6.04918">
        <ele>1034.8</ele>
        <time>2020-06-14T14:58:44Z</time>
      </trkpt>
      <trkpt lat="46.66636" lon="6.04911">
        <ele>1035.8</ele>
        <time>2020-06-14T14:58:47Z</time>
      </trkpt>
      <trkpt lat="46.66636" lon="6.04904">
        <ele>1036.8</ele>
        <time>2020-06-14T14:58:50Z</time>
      </trkpt>
      <trkpt lat="46.66636" lon="6.04896">
        <ele>1038.1</ele>
        <time>2020-06-14T14:58:54Z</time>
      </trkpt>
      <trkpt lat="46.66636" lon="6.04889">
        <ele>1039.1</ele>
        <time>2020-06-14T14:58:58Z</time>
      </trkpt>
      <trkpt lat="46.66636" lon="6.04882">
        <ele>1040.1</ele>
        <time>2020-06-14T14:59:02Z</time>
      </trkpt>
      <trkpt lat="46.66636" lon="6.04874">
        <ele>1041.1</ele>
        <time>2020-06-14T14:59:07Z</time>
      </trkpt>
      <trkpt lat="46.66636" lon="6.04866">
        <ele>1041.9</ele>
        <time>2020-06-14T14:59:13Z</time>
      </trkpt>
      <trkpt lat="46.66636" lon="6.04858">
        <ele>1042.7</ele>
        <time>2020-06-14T14:59:19Z</time>
      </trkpt>
      <trkpt lat="46.66636" lon="6.04852">
        <ele>1043.4</ele>
        <time>2020-06-14T14:59:23Z</time>
      </trkpt>
      <trkpt lat="46.66636" lon="6.04845">
        <ele>1043.9</ele>
        <time>2020-06-14T14:59:26Z</time>
      </trkpt>
      <trkpt lat="46.66637" lon="6.04836">
        <ele>1045.1</ele>
        <time>2020-06-14T14:59:31Z</time>
      </trkpt>
      <trkpt lat="46.66637" lon="6.0483">
        <ele>1045.9</ele>
        <time>2020-06-14T14:59:35Z</time>
      </trkpt>
      <trkpt lat="46.66637" lon="6.04823">
        <ele>1046.8</ele>
        <time>2020-06-14T14:59:41Z</time>
      </trkpt>
      <trkpt lat="46.66639" lon="6.04817">
        <ele>1047</ele>
        <time>2020-06-14T14:59:45Z</time>
      </trkpt>
      <trkpt lat="46.66641" lon="6.04811">
        <ele>1046.9</ele>
        <time>2020-06-14T14:59:51Z</time>
      </trkpt>
      <trkpt lat="46.66643" lon="6.04804">
        <ele>1046.8</ele>
        <time>2020-06-14T14:59:55Z</time>
      </trkpt>
      <trkpt lat="46.66645" lon="6.04797">
        <ele>1046.5</ele>
        <time>2020-06-14T15:00:00Z</time>
      </trkpt>
      <trkpt lat="46.66648" lon="6.04792">
        <ele>1046</ele>
        <time>2020-06-14T15:00:06Z</time>
      </trkpt>
      <trkpt lat="46.66651" lon="6.04786">
        <ele>1046</ele>
        <time>2020-06-14T15:00:13Z</time>
      </trkpt>
      <trkpt lat="46.66654" lon="6.04781">
        <ele>1046</ele>
        <time>2020-06-14T15:00:19Z</time>
      </trkpt>
      <trkpt lat="46.66659" lon="6.0478">
        <ele>1046</ele>
        <time>2020-06-14T15:00:25Z</time>
      </trkpt>
      <trkpt lat="46.66665" lon="6.04779">
        <ele>1045.7</ele>
        <time>2020-06-14T15:00:29Z</time>
      </trkpt>
      <trkpt lat="46.66669" lon="6.04776">
        <ele>1045.5</ele>
        <time>2020-06-14T15:00:33Z</time>
      </trkpt>
      <trkpt lat="46.66673" lon="6.04773">
        <ele>1045.2</ele>
        <time>2020-06-14T15:00:38Z</time>
      </trkpt>
      <trkpt lat="46.66678" lon="6.04772">
        <ele>1044.9</ele>
        <time>2020-06-14T15:00:43Z</time>
      </trkpt>
      <trkpt lat="46.66683" lon="6.04772">
        <ele>1044.5</ele>
        <time>2020-06-14T15:00:51Z</time>
      </trkpt>
      <trkpt lat="46.66685" lon="6.04766">
        <ele>1044.4</ele>
        <time>2020-06-14T15:01:06Z</time>
      </trkpt>
      <trkpt lat="46.6669" lon="6.04768">
        <ele>1045.1</ele>
        <time>2020-06-14T15:01:34Z</time>
      </trkpt>
      <trkpt lat="46.66689" lon="6.04761">
        <ele>1050.8</ele>
        <time>2020-06-14T15:02:02Z</time>
      </trkpt>
      <trkpt lat="46.66694" lon="6.04762">
        <ele>1052</ele>
        <time>2020-06-14T15:02:15Z</time>
      </trkpt>
    </trkseg>
  </trk>
</gpx>